<?xml version="1.0" encoding="UTF-8" standalone="no" ?>
<gpx xmlns="http://www.topografix.com/GPX/1/1" xmlns:xsi="http://www.w3.org/2001/XMLSchema-instance" xsi:schemaLocation="http://www.topografix.com/GPX/1/1 http://www.topografix.com/GPX/1/1/gpx.xsd" version="1.1" creator="VisuGPX - https://www.visugpx.com">
  <metadata>
    <name>Entrainement tgv</name>
    <desc><![CDATA[grand som en partant du chateau par le pas dinay
petit sentier après la pluie un déluge]]></desc>
  </metadata>
  <trk>
    <name><![CDATA[Ramongsom on GPSies.com]]></name>
    <trkseg>
      <trkpt lat="45.41304" lon="5.83719">
        <ele>939</ele>
        <time>2011-06-03T07:45:32Z</time>
      </trkpt>
      <trkpt lat="45.4129" lon="5.83718">
        <ele>941</ele>
        <time>2011-06-03T07:45:57Z</time>
      </trkpt>
      <trkpt lat="45.41285" lon="5.83717">
        <ele>942</ele>
        <time>2011-06-03T07:46:00Z</time>
      </trkpt>
      <trkpt lat="45.41276" lon="5.83712">
        <ele>943</ele>
        <time>2011-06-03T07:46:08Z</time>
      </trkpt>
      <trkpt lat="45.41272" lon="5.8371">
        <ele>943</ele>
        <time>2011-06-03T07:46:11Z</time>
      </trkpt>
      <trkpt lat="45.41257" lon="5.83694">
        <ele>943</ele>
        <time>2011-06-03T07:46:24Z</time>
      </trkpt>
      <trkpt lat="45.41249" lon="5.83682">
        <ele>953</ele>
        <time>2011-06-03T07:46:31Z</time>
      </trkpt>
      <trkpt lat="45.41242" lon="5.83678">
        <ele>953</ele>
        <time>2011-06-03T07:46:37Z</time>
      </trkpt>
      <trkpt lat="45.41239" lon="5.83676">
        <ele>953</ele>
        <time>2011-06-03T07:46:40Z</time>
      </trkpt>
      <trkpt lat="45.41233" lon="5.83668">
        <ele>954</ele>
        <time>2011-06-03T07:46:45Z</time>
      </trkpt>
      <trkpt lat="45.4123" lon="5.83659">
        <ele>950</ele>
        <time>2011-06-03T07:46:49Z</time>
      </trkpt>
      <trkpt lat="45.4122" lon="5.83638">
        <ele>951</ele>
        <time>2011-06-03T07:47:01Z</time>
      </trkpt>
      <trkpt lat="45.41207" lon="5.83618">
        <ele>952</ele>
        <time>2011-06-03T07:47:16Z</time>
      </trkpt>
      <trkpt lat="45.41191" lon="5.83608">
        <ele>953</ele>
        <time>2011-06-03T07:47:32Z</time>
      </trkpt>
      <trkpt lat="45.41174" lon="5.83617">
        <ele>955</ele>
        <time>2011-06-03T07:47:49Z</time>
      </trkpt>
      <trkpt lat="45.41156" lon="5.83621">
        <ele>967</ele>
        <time>2011-06-03T07:48:05Z</time>
      </trkpt>
      <trkpt lat="45.4114" lon="5.83623">
        <ele>968</ele>
        <time>2011-06-03T07:48:16Z</time>
      </trkpt>
      <trkpt lat="45.41137" lon="5.83623">
        <ele>968</ele>
        <time>2011-06-03T07:48:18Z</time>
      </trkpt>
      <trkpt lat="45.41124" lon="5.83623">
        <ele>969</ele>
        <time>2011-06-03T07:48:26Z</time>
      </trkpt>
      <trkpt lat="45.41117" lon="5.83623">
        <ele>969</ele>
        <time>2011-06-03T07:48:30Z</time>
      </trkpt>
      <trkpt lat="45.411" lon="5.83618">
        <ele>970</ele>
        <time>2011-06-03T07:48:44Z</time>
      </trkpt>
      <trkpt lat="45.41097" lon="5.83613">
        <ele>970</ele>
        <time>2011-06-03T07:48:47Z</time>
      </trkpt>
      <trkpt lat="45.41091" lon="5.83594">
        <ele>970</ele>
        <time>2011-06-03T07:48:56Z</time>
      </trkpt>
      <trkpt lat="45.41087" lon="5.83579">
        <ele>970</ele>
        <time>2011-06-03T07:49:02Z</time>
      </trkpt>
      <trkpt lat="45.41085" lon="5.8357">
        <ele>970</ele>
        <time>2011-06-03T07:49:07Z</time>
      </trkpt>
      <trkpt lat="45.41077" lon="5.83545">
        <ele>978</ele>
        <time>2011-06-03T07:49:20Z</time>
      </trkpt>
      <trkpt lat="45.41071" lon="5.83521">
        <ele>979</ele>
        <time>2011-06-03T07:49:32Z</time>
      </trkpt>
      <trkpt lat="45.41065" lon="5.83497">
        <ele>985</ele>
        <time>2011-06-03T07:49:44Z</time>
      </trkpt>
      <trkpt lat="45.41063" lon="5.83475">
        <ele>988</ele>
        <time>2011-06-03T07:49:55Z</time>
      </trkpt>
      <trkpt lat="45.41065" lon="5.83472">
        <ele>988</ele>
        <time>2011-06-03T07:49:57Z</time>
      </trkpt>
      <trkpt lat="45.41073" lon="5.83462">
        <ele>989</ele>
        <time>2011-06-03T07:50:11Z</time>
      </trkpt>
      <trkpt lat="45.41076" lon="5.83458">
        <ele>990</ele>
        <time>2011-06-03T07:50:15Z</time>
      </trkpt>
      <trkpt lat="45.41079" lon="5.83454">
        <ele>991</ele>
        <time>2011-06-03T07:50:19Z</time>
      </trkpt>
      <trkpt lat="45.4108" lon="5.83454">
        <ele>991</ele>
        <time>2011-06-03T07:50:20Z</time>
      </trkpt>
      <trkpt lat="45.41093" lon="5.83451">
        <ele>990</ele>
        <time>2011-06-03T07:50:30Z</time>
      </trkpt>
      <trkpt lat="45.41095" lon="5.8345">
        <ele>990</ele>
        <time>2011-06-03T07:50:32Z</time>
      </trkpt>
      <trkpt lat="45.41097" lon="5.83449">
        <ele>990</ele>
        <time>2011-06-03T07:50:33Z</time>
      </trkpt>
      <trkpt lat="45.41105" lon="5.83445">
        <ele>990</ele>
        <time>2011-06-03T07:50:39Z</time>
      </trkpt>
      <trkpt lat="45.41107" lon="5.83444">
        <ele>991</ele>
        <time>2011-06-03T07:50:40Z</time>
      </trkpt>
      <trkpt lat="45.4111" lon="5.83443">
        <ele>991</ele>
        <time>2011-06-03T07:50:42Z</time>
      </trkpt>
      <trkpt lat="45.41112" lon="5.83443">
        <ele>990</ele>
        <time>2011-06-03T07:50:45Z</time>
      </trkpt>
      <trkpt lat="45.41115" lon="5.83441">
        <ele>991</ele>
        <time>2011-06-03T07:50:46Z</time>
      </trkpt>
      <trkpt lat="45.41124" lon="5.83438">
        <ele>991</ele>
        <time>2011-06-03T07:50:52Z</time>
      </trkpt>
      <trkpt lat="45.41129" lon="5.83437">
        <ele>991</ele>
        <time>2011-06-03T07:50:55Z</time>
      </trkpt>
      <trkpt lat="45.41133" lon="5.83439">
        <ele>991</ele>
        <time>2011-06-03T07:50:59Z</time>
      </trkpt>
      <trkpt lat="45.41134" lon="5.83441">
        <ele>990</ele>
        <time>2011-06-03T07:51:02Z</time>
      </trkpt>
      <trkpt lat="45.4114" lon="5.83443">
        <ele>990</ele>
        <time>2011-06-03T07:51:09Z</time>
      </trkpt>
      <trkpt lat="45.41146" lon="5.83444">
        <ele>990</ele>
        <time>2011-06-03T07:51:12Z</time>
      </trkpt>
      <trkpt lat="45.41151" lon="5.83442">
        <ele>991</ele>
        <time>2011-06-03T07:51:18Z</time>
      </trkpt>
      <trkpt lat="45.41153" lon="5.83441">
        <ele>992</ele>
        <time>2011-06-03T07:51:19Z</time>
      </trkpt>
      <trkpt lat="45.4116" lon="5.83436">
        <ele>994</ele>
        <time>2011-06-03T07:51:25Z</time>
      </trkpt>
      <trkpt lat="45.41168" lon="5.83436">
        <ele>989</ele>
        <time>2011-06-03T07:51:31Z</time>
      </trkpt>
      <trkpt lat="45.41171" lon="5.83433">
        <ele>990</ele>
        <time>2011-06-03T07:51:35Z</time>
      </trkpt>
      <trkpt lat="45.41182" lon="5.83423">
        <ele>990</ele>
        <time>2011-06-03T07:51:50Z</time>
      </trkpt>
      <trkpt lat="45.41182" lon="5.83421">
        <ele>990</ele>
        <time>2011-06-03T07:51:53Z</time>
      </trkpt>
      <trkpt lat="45.41183" lon="5.83418">
        <ele>991</ele>
        <time>2011-06-03T07:51:56Z</time>
      </trkpt>
      <trkpt lat="45.41184" lon="5.83415">
        <ele>1003</ele>
        <time>2011-06-03T07:52:00Z</time>
      </trkpt>
      <trkpt lat="45.41182" lon="5.8339">
        <ele>1005</ele>
        <time>2011-06-03T07:52:14Z</time>
      </trkpt>
      <trkpt lat="45.41178" lon="5.83389">
        <ele>1005</ele>
        <time>2011-06-03T07:52:16Z</time>
      </trkpt>
      <trkpt lat="45.41172" lon="5.8339">
        <ele>1005</ele>
        <time>2011-06-03T07:52:26Z</time>
      </trkpt>
      <trkpt lat="45.41162" lon="5.83388">
        <ele>1012</ele>
        <time>2011-06-03T07:52:35Z</time>
      </trkpt>
      <trkpt lat="45.41159" lon="5.83388">
        <ele>1012</ele>
        <time>2011-06-03T07:52:38Z</time>
      </trkpt>
      <trkpt lat="45.41156" lon="5.83383">
        <ele>1013</ele>
        <time>2011-06-03T07:52:44Z</time>
      </trkpt>
      <trkpt lat="45.41147" lon="5.83378">
        <ele>1014</ele>
        <time>2011-06-03T07:52:58Z</time>
      </trkpt>
      <trkpt lat="45.41145" lon="5.83375">
        <ele>1015</ele>
        <time>2011-06-03T07:53:01Z</time>
      </trkpt>
      <trkpt lat="45.41145" lon="5.83374">
        <ele>1015</ele>
        <time>2011-06-03T07:53:03Z</time>
      </trkpt>
      <trkpt lat="45.4114" lon="5.83361">
        <ele>1017</ele>
        <time>2011-06-03T07:53:13Z</time>
      </trkpt>
      <trkpt lat="45.41137" lon="5.8336">
        <ele>1017</ele>
        <time>2011-06-03T07:53:18Z</time>
      </trkpt>
      <trkpt lat="45.41136" lon="5.83358">
        <ele>1017</ele>
        <time>2011-06-03T07:53:21Z</time>
      </trkpt>
      <trkpt lat="45.41133" lon="5.83357">
        <ele>1017</ele>
        <time>2011-06-03T07:53:23Z</time>
      </trkpt>
      <trkpt lat="45.41133" lon="5.83356">
        <ele>1018</ele>
        <time>2011-06-03T07:53:24Z</time>
      </trkpt>
      <trkpt lat="45.41131" lon="5.83351">
        <ele>1018</ele>
        <time>2011-06-03T07:53:27Z</time>
      </trkpt>
      <trkpt lat="45.41126" lon="5.83345">
        <ele>1018</ele>
        <time>2011-06-03T07:53:56Z</time>
      </trkpt>
      <trkpt lat="45.41133" lon="5.83359">
        <ele>1017</ele>
        <time>2011-06-03T07:54:06Z</time>
      </trkpt>
      <trkpt lat="45.41138" lon="5.83361">
        <ele>1017</ele>
        <time>2011-06-03T07:54:11Z</time>
      </trkpt>
      <trkpt lat="45.4114" lon="5.83362">
        <ele>1017</ele>
        <time>2011-06-03T07:54:13Z</time>
      </trkpt>
      <trkpt lat="45.41147" lon="5.83368">
        <ele>1016</ele>
        <time>2011-06-03T07:54:20Z</time>
      </trkpt>
      <trkpt lat="45.41157" lon="5.83375">
        <ele>1015</ele>
        <time>2011-06-03T07:54:29Z</time>
      </trkpt>
      <trkpt lat="45.41165" lon="5.83379">
        <ele>1014</ele>
        <time>2011-06-03T07:54:42Z</time>
      </trkpt>
      <trkpt lat="45.41166" lon="5.83381">
        <ele>1014</ele>
        <time>2011-06-03T07:54:44Z</time>
      </trkpt>
      <trkpt lat="45.41176" lon="5.83387">
        <ele>1006</ele>
        <time>2011-06-03T07:54:51Z</time>
      </trkpt>
      <trkpt lat="45.41179" lon="5.83388">
        <ele>1005</ele>
        <time>2011-06-03T07:54:53Z</time>
      </trkpt>
      <trkpt lat="45.41184" lon="5.83397">
        <ele>1004</ele>
        <time>2011-06-03T07:54:59Z</time>
      </trkpt>
      <trkpt lat="45.41185" lon="5.83398">
        <ele>1004</ele>
        <time>2011-06-03T07:55:01Z</time>
      </trkpt>
      <trkpt lat="45.41188" lon="5.83403">
        <ele>1003</ele>
        <time>2011-06-03T07:55:08Z</time>
      </trkpt>
      <trkpt lat="45.41188" lon="5.83405">
        <ele>1003</ele>
        <time>2011-06-03T07:55:10Z</time>
      </trkpt>
      <trkpt lat="45.41187" lon="5.83405">
        <ele>1003</ele>
        <time>2011-06-03T07:55:12Z</time>
      </trkpt>
      <trkpt lat="45.41186" lon="5.83403">
        <ele>1003</ele>
        <time>2011-06-03T07:55:14Z</time>
      </trkpt>
      <trkpt lat="45.41193" lon="5.83402">
        <ele>1003</ele>
        <time>2011-06-03T07:55:21Z</time>
      </trkpt>
      <trkpt lat="45.41197" lon="5.83406">
        <ele>1002</ele>
        <time>2011-06-03T07:55:28Z</time>
      </trkpt>
      <trkpt lat="45.412" lon="5.8341">
        <ele>1001</ele>
        <time>2011-06-03T07:55:32Z</time>
      </trkpt>
      <trkpt lat="45.412" lon="5.83413">
        <ele>1001</ele>
        <time>2011-06-03T07:55:34Z</time>
      </trkpt>
      <trkpt lat="45.41215" lon="5.83418">
        <ele>981</ele>
        <time>2011-06-03T07:55:52Z</time>
      </trkpt>
      <trkpt lat="45.41217" lon="5.83417">
        <ele>981</ele>
        <time>2011-06-03T07:55:53Z</time>
      </trkpt>
      <trkpt lat="45.41219" lon="5.83417">
        <ele>981</ele>
        <time>2011-06-03T07:55:55Z</time>
      </trkpt>
      <trkpt lat="45.41224" lon="5.83413">
        <ele>996</ele>
        <time>2011-06-03T07:56:00Z</time>
      </trkpt>
      <trkpt lat="45.4123" lon="5.83403">
        <ele>995</ele>
        <time>2011-06-03T07:56:06Z</time>
      </trkpt>
      <trkpt lat="45.41233" lon="5.83394">
        <ele>996</ele>
        <time>2011-06-03T07:56:11Z</time>
      </trkpt>
      <trkpt lat="45.41233" lon="5.83393">
        <ele>997</ele>
        <time>2011-06-03T07:56:12Z</time>
      </trkpt>
      <trkpt lat="45.41239" lon="5.83381">
        <ele>998</ele>
        <time>2011-06-03T07:56:30Z</time>
      </trkpt>
      <trkpt lat="45.41245" lon="5.8337">
        <ele>1000</ele>
        <time>2011-06-03T07:56:37Z</time>
      </trkpt>
      <trkpt lat="45.41247" lon="5.83359">
        <ele>1001</ele>
        <time>2011-06-03T07:56:42Z</time>
      </trkpt>
      <trkpt lat="45.41247" lon="5.83356">
        <ele>1001</ele>
        <time>2011-06-03T07:56:43Z</time>
      </trkpt>
      <trkpt lat="45.41251" lon="5.83339">
        <ele>991</ele>
        <time>2011-06-03T07:56:50Z</time>
      </trkpt>
      <trkpt lat="45.41251" lon="5.83334">
        <ele>998</ele>
        <time>2011-06-03T07:56:52Z</time>
      </trkpt>
      <trkpt lat="45.4125" lon="5.8333">
        <ele>996</ele>
        <time>2011-06-03T07:56:56Z</time>
      </trkpt>
      <trkpt lat="45.4125" lon="5.83329">
        <ele>1003</ele>
        <time>2011-06-03T07:56:57Z</time>
      </trkpt>
      <trkpt lat="45.41247" lon="5.83321">
        <ele>1007</ele>
        <time>2011-06-03T07:57:03Z</time>
      </trkpt>
      <trkpt lat="45.41246" lon="5.83306">
        <ele>1012</ele>
        <time>2011-06-03T07:57:11Z</time>
      </trkpt>
      <trkpt lat="45.41247" lon="5.833">
        <ele>1013</ele>
        <time>2011-06-03T07:57:14Z</time>
      </trkpt>
      <trkpt lat="45.41249" lon="5.83286">
        <ele>1014</ele>
        <time>2011-06-03T07:57:20Z</time>
      </trkpt>
      <trkpt lat="45.41247" lon="5.83283">
        <ele>1015</ele>
        <time>2011-06-03T07:57:22Z</time>
      </trkpt>
      <trkpt lat="45.4124" lon="5.83278">
        <ele>1015</ele>
        <time>2011-06-03T07:57:29Z</time>
      </trkpt>
      <trkpt lat="45.41234" lon="5.83263">
        <ele>1015</ele>
        <time>2011-06-03T07:57:41Z</time>
      </trkpt>
      <trkpt lat="45.41232" lon="5.83261">
        <ele>1016</ele>
        <time>2011-06-03T07:57:46Z</time>
      </trkpt>
      <trkpt lat="45.41233" lon="5.83258">
        <ele>1015</ele>
        <time>2011-06-03T07:57:49Z</time>
      </trkpt>
      <trkpt lat="45.41233" lon="5.83254">
        <ele>1015</ele>
        <time>2011-06-03T07:57:52Z</time>
      </trkpt>
      <trkpt lat="45.41232" lon="5.83244">
        <ele>1020</ele>
        <time>2011-06-03T07:58:02Z</time>
      </trkpt>
      <trkpt lat="45.41231" lon="5.83242">
        <ele>1021</ele>
        <time>2011-06-03T07:58:04Z</time>
      </trkpt>
      <trkpt lat="45.4123" lon="5.83234">
        <ele>1023</ele>
        <time>2011-06-03T07:58:09Z</time>
      </trkpt>
      <trkpt lat="45.41229" lon="5.83231">
        <ele>1023</ele>
        <time>2011-06-03T07:58:11Z</time>
      </trkpt>
      <trkpt lat="45.4123" lon="5.83226">
        <ele>1024</ele>
        <time>2011-06-03T07:58:15Z</time>
      </trkpt>
      <trkpt lat="45.41232" lon="5.83223">
        <ele>1024</ele>
        <time>2011-06-03T07:58:19Z</time>
      </trkpt>
      <trkpt lat="45.41232" lon="5.8322">
        <ele>1024</ele>
        <time>2011-06-03T07:58:22Z</time>
      </trkpt>
      <trkpt lat="45.41233" lon="5.83216">
        <ele>1025</ele>
        <time>2011-06-03T07:58:25Z</time>
      </trkpt>
      <trkpt lat="45.41235" lon="5.83214">
        <ele>1025</ele>
        <time>2011-06-03T07:58:27Z</time>
      </trkpt>
      <trkpt lat="45.41229" lon="5.83199">
        <ele>1027</ele>
        <time>2011-06-03T07:58:37Z</time>
      </trkpt>
      <trkpt lat="45.41226" lon="5.83192">
        <ele>1027</ele>
        <time>2011-06-03T07:58:44Z</time>
      </trkpt>
      <trkpt lat="45.41222" lon="5.8319">
        <ele>1028</ele>
        <time>2011-06-03T07:58:54Z</time>
      </trkpt>
      <trkpt lat="45.4122" lon="5.83184">
        <ele>1028</ele>
        <time>2011-06-03T07:59:01Z</time>
      </trkpt>
      <trkpt lat="45.41218" lon="5.8318">
        <ele>1029</ele>
        <time>2011-06-03T07:59:06Z</time>
      </trkpt>
      <trkpt lat="45.41218" lon="5.83175">
        <ele>1029</ele>
        <time>2011-06-03T07:59:13Z</time>
      </trkpt>
      <trkpt lat="45.41219" lon="5.83171">
        <ele>1029</ele>
        <time>2011-06-03T07:59:16Z</time>
      </trkpt>
      <trkpt lat="45.41215" lon="5.83167">
        <ele>1030</ele>
        <time>2011-06-03T07:59:20Z</time>
      </trkpt>
      <trkpt lat="45.41211" lon="5.83161">
        <ele>1038</ele>
        <time>2011-06-03T07:59:24Z</time>
      </trkpt>
      <trkpt lat="45.41209" lon="5.83156">
        <ele>1039</ele>
        <time>2011-06-03T07:59:27Z</time>
      </trkpt>
      <trkpt lat="45.41211" lon="5.83152">
        <ele>1039</ele>
        <time>2011-06-03T07:59:33Z</time>
      </trkpt>
      <trkpt lat="45.41211" lon="5.8315">
        <ele>1039</ele>
        <time>2011-06-03T07:59:34Z</time>
      </trkpt>
      <trkpt lat="45.41216" lon="5.83138">
        <ele>1039</ele>
        <time>2011-06-03T07:59:41Z</time>
      </trkpt>
      <trkpt lat="45.41215" lon="5.83127">
        <ele>1040</ele>
        <time>2011-06-03T07:59:46Z</time>
      </trkpt>
      <trkpt lat="45.41216" lon="5.83125">
        <ele>1040</ele>
        <time>2011-06-03T07:59:47Z</time>
      </trkpt>
      <trkpt lat="45.41216" lon="5.83122">
        <ele>1040</ele>
        <time>2011-06-03T07:59:49Z</time>
      </trkpt>
      <trkpt lat="45.41218" lon="5.83113">
        <ele>1041</ele>
        <time>2011-06-03T07:59:54Z</time>
      </trkpt>
      <trkpt lat="45.41218" lon="5.83112">
        <ele>1041</ele>
        <time>2011-06-03T07:59:55Z</time>
      </trkpt>
      <trkpt lat="45.41225" lon="5.83104">
        <ele>1040</ele>
        <time>2011-06-03T08:00:06Z</time>
      </trkpt>
      <trkpt lat="45.41228" lon="5.83092">
        <ele>1040</ele>
        <time>2011-06-03T08:00:15Z</time>
      </trkpt>
      <trkpt lat="45.41234" lon="5.83087">
        <ele>1039</ele>
        <time>2011-06-03T08:00:29Z</time>
      </trkpt>
      <trkpt lat="45.41235" lon="5.83086">
        <ele>1039</ele>
        <time>2011-06-03T08:00:30Z</time>
      </trkpt>
      <trkpt lat="45.41254" lon="5.83087">
        <ele>1034</ele>
        <time>2011-06-03T08:00:46Z</time>
      </trkpt>
      <trkpt lat="45.41256" lon="5.83087">
        <ele>1033</ele>
        <time>2011-06-03T08:00:48Z</time>
      </trkpt>
      <trkpt lat="45.41268" lon="5.83085">
        <ele>1029</ele>
        <time>2011-06-03T08:00:58Z</time>
      </trkpt>
      <trkpt lat="45.41275" lon="5.83089">
        <ele>1027</ele>
        <time>2011-06-03T08:01:05Z</time>
      </trkpt>
      <trkpt lat="45.41281" lon="5.83089">
        <ele>1027</ele>
        <time>2011-06-03T08:01:09Z</time>
      </trkpt>
      <trkpt lat="45.41283" lon="5.83088">
        <ele>1026</ele>
        <time>2011-06-03T08:01:10Z</time>
      </trkpt>
      <trkpt lat="45.41289" lon="5.83084">
        <ele>1026</ele>
        <time>2011-06-03T08:01:19Z</time>
      </trkpt>
      <trkpt lat="45.41293" lon="5.8308">
        <ele>1051</ele>
        <time>2011-06-03T08:01:46Z</time>
      </trkpt>
      <trkpt lat="45.41298" lon="5.83083">
        <ele>1050</ele>
        <time>2011-06-03T08:01:52Z</time>
      </trkpt>
      <trkpt lat="45.41302" lon="5.83083">
        <ele>1049</ele>
        <time>2011-06-03T08:01:54Z</time>
      </trkpt>
      <trkpt lat="45.41305" lon="5.83085">
        <ele>1026</ele>
        <time>2011-06-03T08:01:57Z</time>
      </trkpt>
      <trkpt lat="45.41312" lon="5.83086">
        <ele>1027</ele>
        <time>2011-06-03T08:02:02Z</time>
      </trkpt>
      <trkpt lat="45.41318" lon="5.83086">
        <ele>1028</ele>
        <time>2011-06-03T08:02:05Z</time>
      </trkpt>
      <trkpt lat="45.41319" lon="5.83087">
        <ele>1028</ele>
        <time>2011-06-03T08:02:06Z</time>
      </trkpt>
      <trkpt lat="45.41326" lon="5.8309">
        <ele>1029</ele>
        <time>2011-06-03T08:02:15Z</time>
      </trkpt>
      <trkpt lat="45.41334" lon="5.83086">
        <ele>1031</ele>
        <time>2011-06-03T08:02:20Z</time>
      </trkpt>
      <trkpt lat="45.41337" lon="5.83084">
        <ele>1029</ele>
        <time>2011-06-03T08:02:22Z</time>
      </trkpt>
      <trkpt lat="45.41338" lon="5.83084">
        <ele>1028</ele>
        <time>2011-06-03T08:02:23Z</time>
      </trkpt>
      <trkpt lat="45.41345" lon="5.83078">
        <ele>1037</ele>
        <time>2011-06-03T08:02:33Z</time>
      </trkpt>
      <trkpt lat="45.41349" lon="5.83076">
        <ele>1038</ele>
        <time>2011-06-03T08:02:36Z</time>
      </trkpt>
      <trkpt lat="45.41354" lon="5.83073">
        <ele>1038</ele>
        <time>2011-06-03T08:02:41Z</time>
      </trkpt>
      <trkpt lat="45.41358" lon="5.83074">
        <ele>1038</ele>
        <time>2011-06-03T08:02:45Z</time>
      </trkpt>
      <trkpt lat="45.4137" lon="5.8308">
        <ele>1036</ele>
        <time>2011-06-03T08:02:58Z</time>
      </trkpt>
      <trkpt lat="45.41372" lon="5.8308">
        <ele>1035</ele>
        <time>2011-06-03T08:03:01Z</time>
      </trkpt>
      <trkpt lat="45.41374" lon="5.8308">
        <ele>1035</ele>
        <time>2011-06-03T08:03:04Z</time>
      </trkpt>
      <trkpt lat="45.41377" lon="5.8308">
        <ele>1034</ele>
        <time>2011-06-03T08:03:08Z</time>
      </trkpt>
      <trkpt lat="45.41382" lon="5.83074">
        <ele>1034</ele>
        <time>2011-06-03T08:03:13Z</time>
      </trkpt>
      <trkpt lat="45.41383" lon="5.83071">
        <ele>1034</ele>
        <time>2011-06-03T08:03:16Z</time>
      </trkpt>
      <trkpt lat="45.41386" lon="5.83064">
        <ele>1034</ele>
        <time>2011-06-03T08:03:21Z</time>
      </trkpt>
      <trkpt lat="45.41387" lon="5.83054">
        <ele>1037</ele>
        <time>2011-06-03T08:03:28Z</time>
      </trkpt>
      <trkpt lat="45.41389" lon="5.83052">
        <ele>1037</ele>
        <time>2011-06-03T08:03:30Z</time>
      </trkpt>
      <trkpt lat="45.41379" lon="5.8306">
        <ele>1037</ele>
        <time>2011-06-03T08:03:46Z</time>
      </trkpt>
      <trkpt lat="45.41378" lon="5.83058">
        <ele>1038</ele>
        <time>2011-06-03T08:03:48Z</time>
      </trkpt>
      <trkpt lat="45.41378" lon="5.83051">
        <ele>1039</ele>
        <time>2011-06-03T08:03:55Z</time>
      </trkpt>
      <trkpt lat="45.41382" lon="5.83038">
        <ele>1042</ele>
        <time>2011-06-03T08:04:06Z</time>
      </trkpt>
      <trkpt lat="45.41382" lon="5.83036">
        <ele>1042</ele>
        <time>2011-06-03T08:04:08Z</time>
      </trkpt>
      <trkpt lat="45.41382" lon="5.83035">
        <ele>1042</ele>
        <time>2011-06-03T08:04:10Z</time>
      </trkpt>
      <trkpt lat="45.41375" lon="5.83037">
        <ele>1043</ele>
        <time>2011-06-03T08:04:27Z</time>
      </trkpt>
      <trkpt lat="45.41378" lon="5.83026">
        <ele>1045</ele>
        <time>2011-06-03T08:04:39Z</time>
      </trkpt>
      <trkpt lat="45.41384" lon="5.83002">
        <ele>1047</ele>
        <time>2011-06-03T08:05:02Z</time>
      </trkpt>
      <trkpt lat="45.41384" lon="5.82995">
        <ele>1071</ele>
        <time>2011-06-03T08:05:07Z</time>
      </trkpt>
      <trkpt lat="45.41384" lon="5.82994">
        <ele>1071</ele>
        <time>2011-06-03T08:05:08Z</time>
      </trkpt>
      <trkpt lat="45.41384" lon="5.82991">
        <ele>1072</ele>
        <time>2011-06-03T08:05:11Z</time>
      </trkpt>
      <trkpt lat="45.41385" lon="5.82981">
        <ele>1073</ele>
        <time>2011-06-03T08:05:17Z</time>
      </trkpt>
      <trkpt lat="45.41384" lon="5.82978">
        <ele>1074</ele>
        <time>2011-06-03T08:05:18Z</time>
      </trkpt>
      <trkpt lat="45.41382" lon="5.82973">
        <ele>1076</ele>
        <time>2011-06-03T08:05:21Z</time>
      </trkpt>
      <trkpt lat="45.41381" lon="5.82971">
        <ele>1077</ele>
        <time>2011-06-03T08:05:23Z</time>
      </trkpt>
      <trkpt lat="45.4138" lon="5.82966">
        <ele>1078</ele>
        <time>2011-06-03T08:05:29Z</time>
      </trkpt>
      <trkpt lat="45.41377" lon="5.82948">
        <ele>1083</ele>
        <time>2011-06-03T08:05:37Z</time>
      </trkpt>
      <trkpt lat="45.41377" lon="5.82946">
        <ele>1083</ele>
        <time>2011-06-03T08:05:39Z</time>
      </trkpt>
      <trkpt lat="45.41378" lon="5.82942">
        <ele>1083</ele>
        <time>2011-06-03T08:05:41Z</time>
      </trkpt>
      <trkpt lat="45.41378" lon="5.82932">
        <ele>1085</ele>
        <time>2011-06-03T08:05:47Z</time>
      </trkpt>
      <trkpt lat="45.41379" lon="5.82927">
        <ele>1085</ele>
        <time>2011-06-03T08:05:51Z</time>
      </trkpt>
      <trkpt lat="45.41382" lon="5.82924">
        <ele>1084</ele>
        <time>2011-06-03T08:05:54Z</time>
      </trkpt>
      <trkpt lat="45.41384" lon="5.82921">
        <ele>1084</ele>
        <time>2011-06-03T08:05:56Z</time>
      </trkpt>
      <trkpt lat="45.41386" lon="5.82914">
        <ele>1103</ele>
        <time>2011-06-03T08:06:00Z</time>
      </trkpt>
      <trkpt lat="45.41395" lon="5.82904">
        <ele>1100</ele>
        <time>2011-06-03T08:06:07Z</time>
      </trkpt>
      <trkpt lat="45.41394" lon="5.82901">
        <ele>1101</ele>
        <time>2011-06-03T08:06:10Z</time>
      </trkpt>
      <trkpt lat="45.41393" lon="5.82897">
        <ele>1103</ele>
        <time>2011-06-03T08:06:16Z</time>
      </trkpt>
      <trkpt lat="45.41397" lon="5.82895">
        <ele>1102</ele>
        <time>2011-06-03T08:06:21Z</time>
      </trkpt>
      <trkpt lat="45.41405" lon="5.82882">
        <ele>1104</ele>
        <time>2011-06-03T08:06:30Z</time>
      </trkpt>
      <trkpt lat="45.41407" lon="5.8288">
        <ele>1104</ele>
        <time>2011-06-03T08:06:32Z</time>
      </trkpt>
      <trkpt lat="45.4141" lon="5.82874">
        <ele>1105</ele>
        <time>2011-06-03T08:06:40Z</time>
      </trkpt>
      <trkpt lat="45.41416" lon="5.82861">
        <ele>1106</ele>
        <time>2011-06-03T08:06:54Z</time>
      </trkpt>
      <trkpt lat="45.41417" lon="5.8286">
        <ele>1106</ele>
        <time>2011-06-03T08:06:55Z</time>
      </trkpt>
      <trkpt lat="45.41419" lon="5.82856">
        <ele>1083</ele>
        <time>2011-06-03T08:07:00Z</time>
      </trkpt>
      <trkpt lat="45.4142" lon="5.82854">
        <ele>1084</ele>
        <time>2011-06-03T08:07:02Z</time>
      </trkpt>
      <trkpt lat="45.41425" lon="5.82842">
        <ele>1090</ele>
        <time>2011-06-03T08:07:10Z</time>
      </trkpt>
      <trkpt lat="45.41427" lon="5.8284">
        <ele>1089</ele>
        <time>2011-06-03T08:07:12Z</time>
      </trkpt>
      <trkpt lat="45.41429" lon="5.82838">
        <ele>1089</ele>
        <time>2011-06-03T08:07:18Z</time>
      </trkpt>
      <trkpt lat="45.41429" lon="5.82837">
        <ele>1089</ele>
        <time>2011-06-03T08:07:19Z</time>
      </trkpt>
      <trkpt lat="45.41431" lon="5.82832">
        <ele>1099</ele>
        <time>2011-06-03T08:07:22Z</time>
      </trkpt>
      <trkpt lat="45.41434" lon="5.82827">
        <ele>1099</ele>
        <time>2011-06-03T08:07:26Z</time>
      </trkpt>
      <trkpt lat="45.41439" lon="5.8282">
        <ele>1098</ele>
        <time>2011-06-03T08:07:34Z</time>
      </trkpt>
      <trkpt lat="45.4144" lon="5.82814">
        <ele>1098</ele>
        <time>2011-06-03T08:07:38Z</time>
      </trkpt>
      <trkpt lat="45.41442" lon="5.82811">
        <ele>1098</ele>
        <time>2011-06-03T08:07:42Z</time>
      </trkpt>
      <trkpt lat="45.41447" lon="5.82802">
        <ele>1098</ele>
        <time>2011-06-03T08:07:51Z</time>
      </trkpt>
      <trkpt lat="45.41453" lon="5.82795">
        <ele>1098</ele>
        <time>2011-06-03T08:08:03Z</time>
      </trkpt>
      <trkpt lat="45.41456" lon="5.8279">
        <ele>1098</ele>
        <time>2011-06-03T08:08:07Z</time>
      </trkpt>
      <trkpt lat="45.41458" lon="5.82789">
        <ele>1098</ele>
        <time>2011-06-03T08:08:10Z</time>
      </trkpt>
      <trkpt lat="45.41464" lon="5.82777">
        <ele>1099</ele>
        <time>2011-06-03T08:08:23Z</time>
      </trkpt>
      <trkpt lat="45.41465" lon="5.82776">
        <ele>1099</ele>
        <time>2011-06-03T08:08:24Z</time>
      </trkpt>
      <trkpt lat="45.41469" lon="5.82773">
        <ele>1098</ele>
        <time>2011-06-03T08:08:28Z</time>
      </trkpt>
      <trkpt lat="45.41473" lon="5.82768">
        <ele>1098</ele>
        <time>2011-06-03T08:08:32Z</time>
      </trkpt>
      <trkpt lat="45.41477" lon="5.8276">
        <ele>1098</ele>
        <time>2011-06-03T08:08:37Z</time>
      </trkpt>
      <trkpt lat="45.41481" lon="5.82757">
        <ele>1098</ele>
        <time>2011-06-03T08:08:41Z</time>
      </trkpt>
      <trkpt lat="45.41488" lon="5.82747">
        <ele>1102</ele>
        <time>2011-06-03T08:08:50Z</time>
      </trkpt>
      <trkpt lat="45.41488" lon="5.82747">
        <ele>1102</ele>
        <time>2011-06-03T08:08:52Z</time>
      </trkpt>
      <trkpt lat="45.41485" lon="5.82753">
        <ele>1098</ele>
        <time>2011-06-03T08:08:58Z</time>
      </trkpt>
      <trkpt lat="45.41484" lon="5.82755">
        <ele>1098</ele>
        <time>2011-06-03T08:08:59Z</time>
      </trkpt>
      <trkpt lat="45.41483" lon="5.82758">
        <ele>1098</ele>
        <time>2011-06-03T08:09:01Z</time>
      </trkpt>
      <trkpt lat="45.41483" lon="5.82759">
        <ele>1098</ele>
        <time>2011-06-03T08:09:02Z</time>
      </trkpt>
      <trkpt lat="45.41471" lon="5.82765">
        <ele>1099</ele>
        <time>2011-06-03T08:09:15Z</time>
      </trkpt>
      <trkpt lat="45.41465" lon="5.82765">
        <ele>1100</ele>
        <time>2011-06-03T08:09:23Z</time>
      </trkpt>
      <trkpt lat="45.4146" lon="5.82765">
        <ele>1101</ele>
        <time>2011-06-03T08:09:28Z</time>
      </trkpt>
      <trkpt lat="45.41448" lon="5.82766">
        <ele>1104</ele>
        <time>2011-06-03T08:09:37Z</time>
      </trkpt>
      <trkpt lat="45.41445" lon="5.82766">
        <ele>1104</ele>
        <time>2011-06-03T08:09:41Z</time>
      </trkpt>
      <trkpt lat="45.41443" lon="5.82768">
        <ele>1104</ele>
        <time>2011-06-03T08:09:43Z</time>
      </trkpt>
      <trkpt lat="45.41439" lon="5.82767">
        <ele>1106</ele>
        <time>2011-06-03T08:09:47Z</time>
      </trkpt>
      <trkpt lat="45.41428" lon="5.82767">
        <ele>1109</ele>
        <time>2011-06-03T08:09:57Z</time>
      </trkpt>
      <trkpt lat="45.41428" lon="5.82768">
        <ele>1109</ele>
        <time>2011-06-03T08:09:58Z</time>
      </trkpt>
      <trkpt lat="45.4141" lon="5.82775">
        <ele>1130</ele>
        <time>2011-06-03T08:10:19Z</time>
      </trkpt>
      <trkpt lat="45.41406" lon="5.82775">
        <ele>1131</ele>
        <time>2011-06-03T08:10:23Z</time>
      </trkpt>
      <trkpt lat="45.41403" lon="5.82775">
        <ele>1131</ele>
        <time>2011-06-03T08:10:24Z</time>
      </trkpt>
      <trkpt lat="45.41398" lon="5.82774">
        <ele>1132</ele>
        <time>2011-06-03T08:10:32Z</time>
      </trkpt>
      <trkpt lat="45.41397" lon="5.82777">
        <ele>1132</ele>
        <time>2011-06-03T08:10:38Z</time>
      </trkpt>
      <trkpt lat="45.41395" lon="5.82782">
        <ele>1133</ele>
        <time>2011-06-03T08:10:42Z</time>
      </trkpt>
      <trkpt lat="45.41394" lon="5.82776">
        <ele>1133</ele>
        <time>2011-06-03T08:10:46Z</time>
      </trkpt>
      <trkpt lat="45.41392" lon="5.82769">
        <ele>1134</ele>
        <time>2011-06-03T08:10:51Z</time>
      </trkpt>
      <trkpt lat="45.41395" lon="5.82755">
        <ele>1133</ele>
        <time>2011-06-03T08:11:06Z</time>
      </trkpt>
      <trkpt lat="45.41395" lon="5.82751">
        <ele>1133</ele>
        <time>2011-06-03T08:11:11Z</time>
      </trkpt>
      <trkpt lat="45.41394" lon="5.82752">
        <ele>1133</ele>
        <time>2011-06-03T08:11:12Z</time>
      </trkpt>
      <trkpt lat="45.41393" lon="5.82752">
        <ele>1133</ele>
        <time>2011-06-03T08:11:13Z</time>
      </trkpt>
      <trkpt lat="45.4139" lon="5.82751">
        <ele>1134</ele>
        <time>2011-06-03T08:11:18Z</time>
      </trkpt>
      <trkpt lat="45.41389" lon="5.82749">
        <ele>1139</ele>
        <time>2011-06-03T08:11:20Z</time>
      </trkpt>
      <trkpt lat="45.41385" lon="5.82735">
        <ele>1141</ele>
        <time>2011-06-03T08:11:37Z</time>
      </trkpt>
      <trkpt lat="45.41381" lon="5.82731">
        <ele>1142</ele>
        <time>2011-06-03T08:11:41Z</time>
      </trkpt>
      <trkpt lat="45.4138" lon="5.82724">
        <ele>1143</ele>
        <time>2011-06-03T08:11:45Z</time>
      </trkpt>
      <trkpt lat="45.4138" lon="5.82724">
        <ele>1142</ele>
        <time>2011-06-03T08:11:46Z</time>
      </trkpt>
      <trkpt lat="45.41378" lon="5.82708">
        <ele>1143</ele>
        <time>2011-06-03T08:11:56Z</time>
      </trkpt>
      <trkpt lat="45.41378" lon="5.82706">
        <ele>1143</ele>
        <time>2011-06-03T08:11:57Z</time>
      </trkpt>
      <trkpt lat="45.41377" lon="5.82701">
        <ele>1143</ele>
        <time>2011-06-03T08:12:00Z</time>
      </trkpt>
      <trkpt lat="45.41376" lon="5.827">
        <ele>1143</ele>
        <time>2011-06-03T08:12:08Z</time>
      </trkpt>
      <trkpt lat="45.41376" lon="5.82703">
        <ele>1143</ele>
        <time>2011-06-03T08:12:11Z</time>
      </trkpt>
      <trkpt lat="45.41375" lon="5.8271">
        <ele>1144</ele>
        <time>2011-06-03T08:12:15Z</time>
      </trkpt>
      <trkpt lat="45.41373" lon="5.82712">
        <ele>1145</ele>
        <time>2011-06-03T08:12:17Z</time>
      </trkpt>
      <trkpt lat="45.41369" lon="5.82711">
        <ele>1146</ele>
        <time>2011-06-03T08:12:20Z</time>
      </trkpt>
      <trkpt lat="45.41369" lon="5.82699">
        <ele>1145</ele>
        <time>2011-06-03T08:12:31Z</time>
      </trkpt>
      <trkpt lat="45.4137" lon="5.82689">
        <ele>1145</ele>
        <time>2011-06-03T08:12:37Z</time>
      </trkpt>
      <trkpt lat="45.41371" lon="5.82675">
        <ele>1145</ele>
        <time>2011-06-03T08:12:46Z</time>
      </trkpt>
      <trkpt lat="45.41368" lon="5.82677">
        <ele>1146</ele>
        <time>2011-06-03T08:12:52Z</time>
      </trkpt>
      <trkpt lat="45.41367" lon="5.82685">
        <ele>1146</ele>
        <time>2011-06-03T08:12:56Z</time>
      </trkpt>
      <trkpt lat="45.41366" lon="5.82686">
        <ele>1146</ele>
        <time>2011-06-03T08:12:57Z</time>
      </trkpt>
      <trkpt lat="45.41366" lon="5.82687">
        <ele>1146</ele>
        <time>2011-06-03T08:12:58Z</time>
      </trkpt>
      <trkpt lat="45.41362" lon="5.82692">
        <ele>1148</ele>
        <time>2011-06-03T08:13:07Z</time>
      </trkpt>
      <trkpt lat="45.4136" lon="5.82688">
        <ele>1148</ele>
        <time>2011-06-03T08:13:13Z</time>
      </trkpt>
      <trkpt lat="45.41367" lon="5.82673">
        <ele>1146</ele>
        <time>2011-06-03T08:13:22Z</time>
      </trkpt>
      <trkpt lat="45.41367" lon="5.82665">
        <ele>1122</ele>
        <time>2011-06-03T08:13:27Z</time>
      </trkpt>
      <trkpt lat="45.41367" lon="5.82661">
        <ele>1121</ele>
        <time>2011-06-03T08:13:34Z</time>
      </trkpt>
      <trkpt lat="45.41363" lon="5.82671">
        <ele>1148</ele>
        <time>2011-06-03T08:13:48Z</time>
      </trkpt>
      <trkpt lat="45.4136" lon="5.82671">
        <ele>1149</ele>
        <time>2011-06-03T08:13:58Z</time>
      </trkpt>
      <trkpt lat="45.41358" lon="5.82666">
        <ele>1129</ele>
        <time>2011-06-03T08:14:04Z</time>
      </trkpt>
      <trkpt lat="45.41361" lon="5.82664">
        <ele>1125</ele>
        <time>2011-06-03T08:14:07Z</time>
      </trkpt>
      <trkpt lat="45.41363" lon="5.82657">
        <ele>1122</ele>
        <time>2011-06-03T08:14:11Z</time>
      </trkpt>
      <trkpt lat="45.41355" lon="5.82633">
        <ele>1115</ele>
        <time>2011-06-03T08:14:36Z</time>
      </trkpt>
      <trkpt lat="45.41356" lon="5.82628">
        <ele>1112</ele>
        <time>2011-06-03T08:14:39Z</time>
      </trkpt>
      <trkpt lat="45.41356" lon="5.82626">
        <ele>1111</ele>
        <time>2011-06-03T08:14:44Z</time>
      </trkpt>
      <trkpt lat="45.41355" lon="5.82629">
        <ele>1113</ele>
        <time>2011-06-03T08:14:48Z</time>
      </trkpt>
      <trkpt lat="45.41356" lon="5.8264">
        <ele>1118</ele>
        <time>2011-06-03T08:14:53Z</time>
      </trkpt>
      <trkpt lat="45.41353" lon="5.82646">
        <ele>1124</ele>
        <time>2011-06-03T08:14:58Z</time>
      </trkpt>
      <trkpt lat="45.41348" lon="5.82648">
        <ele>1128</ele>
        <time>2011-06-03T08:15:07Z</time>
      </trkpt>
      <trkpt lat="45.41357" lon="5.82635">
        <ele>1115</ele>
        <time>2011-06-03T08:15:16Z</time>
      </trkpt>
      <trkpt lat="45.41358" lon="5.8263">
        <ele>1112</ele>
        <time>2011-06-03T08:15:19Z</time>
      </trkpt>
      <trkpt lat="45.41354" lon="5.8263">
        <ele>1114</ele>
        <time>2011-06-03T08:15:27Z</time>
      </trkpt>
      <trkpt lat="45.41346" lon="5.82633">
        <ele>1118</ele>
        <time>2011-06-03T08:15:36Z</time>
      </trkpt>
      <trkpt lat="45.41342" lon="5.82632">
        <ele>1119</ele>
        <time>2011-06-03T08:15:37Z</time>
      </trkpt>
      <trkpt lat="45.41339" lon="5.82629">
        <ele>1118</ele>
        <time>2011-06-03T08:15:39Z</time>
      </trkpt>
      <trkpt lat="45.41344" lon="5.82607">
        <ele>1108</ele>
        <time>2011-06-03T08:15:58Z</time>
      </trkpt>
      <trkpt lat="45.41344" lon="5.8261">
        <ele>1109</ele>
        <time>2011-06-03T08:16:05Z</time>
      </trkpt>
      <trkpt lat="45.41341" lon="5.82606">
        <ele>1108</ele>
        <time>2011-06-03T08:16:09Z</time>
      </trkpt>
      <trkpt lat="45.41339" lon="5.82604">
        <ele>1108</ele>
        <time>2011-06-03T08:16:12Z</time>
      </trkpt>
      <trkpt lat="45.41337" lon="5.82603">
        <ele>1109</ele>
        <time>2011-06-03T08:16:14Z</time>
      </trkpt>
      <trkpt lat="45.4133" lon="5.82591">
        <ele>1132</ele>
        <time>2011-06-03T08:16:40Z</time>
      </trkpt>
      <trkpt lat="45.4133" lon="5.82586">
        <ele>1124</ele>
        <time>2011-06-03T08:16:42Z</time>
      </trkpt>
      <trkpt lat="45.41335" lon="5.82573">
        <ele>1084</ele>
        <time>2011-06-03T08:16:59Z</time>
      </trkpt>
      <trkpt lat="45.41336" lon="5.82565">
        <ele>1069</ele>
        <time>2011-06-03T08:17:06Z</time>
      </trkpt>
      <trkpt lat="45.41336" lon="5.8256">
        <ele>1062</ele>
        <time>2011-06-03T08:17:12Z</time>
      </trkpt>
      <trkpt lat="45.41345" lon="5.82556">
        <ele>1054</ele>
        <time>2011-06-03T08:17:23Z</time>
      </trkpt>
      <trkpt lat="45.41348" lon="5.82574">
        <ele>1070</ele>
        <time>2011-06-03T08:17:32Z</time>
      </trkpt>
      <trkpt lat="45.41342" lon="5.8256">
        <ele>1059</ele>
        <time>2011-06-03T08:17:41Z</time>
      </trkpt>
      <trkpt lat="45.41332" lon="5.82546">
        <ele>1088</ele>
        <time>2011-06-03T08:17:53Z</time>
      </trkpt>
      <trkpt lat="45.41328" lon="5.82551">
        <ele>1093</ele>
        <time>2011-06-03T08:17:56Z</time>
      </trkpt>
      <trkpt lat="45.41326" lon="5.82552">
        <ele>1094</ele>
        <time>2011-06-03T08:17:59Z</time>
      </trkpt>
      <trkpt lat="45.41321" lon="5.82542">
        <ele>1087</ele>
        <time>2011-06-03T08:18:10Z</time>
      </trkpt>
      <trkpt lat="45.4132" lon="5.82534">
        <ele>1079</ele>
        <time>2011-06-03T08:18:16Z</time>
      </trkpt>
      <trkpt lat="45.41319" lon="5.82533">
        <ele>1078</ele>
        <time>2011-06-03T08:18:17Z</time>
      </trkpt>
      <trkpt lat="45.41319" lon="5.82531">
        <ele>1076</ele>
        <time>2011-06-03T08:18:19Z</time>
      </trkpt>
      <trkpt lat="45.41318" lon="5.82528">
        <ele>1075</ele>
        <time>2011-06-03T08:18:22Z</time>
      </trkpt>
      <trkpt lat="45.41326" lon="5.82527">
        <ele>1070</ele>
        <time>2011-06-03T08:18:31Z</time>
      </trkpt>
      <trkpt lat="45.41323" lon="5.82524">
        <ele>1068</ele>
        <time>2011-06-03T08:18:33Z</time>
      </trkpt>
      <trkpt lat="45.41321" lon="5.82522">
        <ele>1067</ele>
        <time>2011-06-03T08:18:35Z</time>
      </trkpt>
      <trkpt lat="45.41319" lon="5.82523">
        <ele>1068</ele>
        <time>2011-06-03T08:18:37Z</time>
      </trkpt>
      <trkpt lat="45.41311" lon="5.8251">
        <ele>1063</ele>
        <time>2011-06-03T08:18:46Z</time>
      </trkpt>
      <trkpt lat="45.41311" lon="5.82506">
        <ele>1060</ele>
        <time>2011-06-03T08:18:49Z</time>
      </trkpt>
      <trkpt lat="45.41312" lon="5.82504">
        <ele>1058</ele>
        <time>2011-06-03T08:18:53Z</time>
      </trkpt>
      <trkpt lat="45.41321" lon="5.82511">
        <ele>1055</ele>
        <time>2011-06-03T08:19:00Z</time>
      </trkpt>
      <trkpt lat="45.41325" lon="5.82513">
        <ele>1052</ele>
        <time>2011-06-03T08:19:03Z</time>
      </trkpt>
      <trkpt lat="45.41324" lon="5.82509">
        <ele>1048</ele>
        <time>2011-06-03T08:19:05Z</time>
      </trkpt>
      <trkpt lat="45.41319" lon="5.82504">
        <ele>1050</ele>
        <time>2011-06-03T08:19:09Z</time>
      </trkpt>
      <trkpt lat="45.41318" lon="5.82502">
        <ele>1050</ele>
        <time>2011-06-03T08:19:10Z</time>
      </trkpt>
      <trkpt lat="45.41316" lon="5.82491">
        <ele>1012</ele>
        <time>2011-06-03T08:19:17Z</time>
      </trkpt>
      <trkpt lat="45.41316" lon="5.82489">
        <ele>1011</ele>
        <time>2011-06-03T08:19:19Z</time>
      </trkpt>
      <trkpt lat="45.41315" lon="5.82486">
        <ele>1011</ele>
        <time>2011-06-03T08:19:20Z</time>
      </trkpt>
      <trkpt lat="45.41311" lon="5.82482">
        <ele>1009</ele>
        <time>2011-06-03T08:19:24Z</time>
      </trkpt>
      <trkpt lat="45.41304" lon="5.8247">
        <ele>1007</ele>
        <time>2011-06-03T08:19:31Z</time>
      </trkpt>
      <trkpt lat="45.41303" lon="5.82468">
        <ele>1006</ele>
        <time>2011-06-03T08:19:32Z</time>
      </trkpt>
      <trkpt lat="45.413" lon="5.82465">
        <ele>1006</ele>
        <time>2011-06-03T08:19:35Z</time>
      </trkpt>
      <trkpt lat="45.41299" lon="5.82464">
        <ele>1005</ele>
        <time>2011-06-03T08:19:36Z</time>
      </trkpt>
      <trkpt lat="45.41295" lon="5.82461">
        <ele>1005</ele>
        <time>2011-06-03T08:19:40Z</time>
      </trkpt>
      <trkpt lat="45.41295" lon="5.8246">
        <ele>1005</ele>
        <time>2011-06-03T08:19:41Z</time>
      </trkpt>
      <trkpt lat="45.41289" lon="5.82449">
        <ele>1003</ele>
        <time>2011-06-03T08:19:46Z</time>
      </trkpt>
      <trkpt lat="45.41286" lon="5.82445">
        <ele>1003</ele>
        <time>2011-06-03T08:19:50Z</time>
      </trkpt>
      <trkpt lat="45.41285" lon="5.82442">
        <ele>1002</ele>
        <time>2011-06-03T08:19:52Z</time>
      </trkpt>
      <trkpt lat="45.41279" lon="5.82427">
        <ele>1001</ele>
        <time>2011-06-03T08:20:00Z</time>
      </trkpt>
      <trkpt lat="45.41278" lon="5.82425">
        <ele>1001</ele>
        <time>2011-06-03T08:20:04Z</time>
      </trkpt>
      <trkpt lat="45.41276" lon="5.82424">
        <ele>1001</ele>
        <time>2011-06-03T08:20:07Z</time>
      </trkpt>
      <trkpt lat="45.41268" lon="5.82418">
        <ele>1001</ele>
        <time>2011-06-03T08:20:15Z</time>
      </trkpt>
      <trkpt lat="45.41262" lon="5.82416">
        <ele>989</ele>
        <time>2011-06-03T08:20:21Z</time>
      </trkpt>
      <trkpt lat="45.41246" lon="5.82411">
        <ele>1002</ele>
        <time>2011-06-03T08:20:33Z</time>
      </trkpt>
      <trkpt lat="45.41244" lon="5.82411">
        <ele>1003</ele>
        <time>2011-06-03T08:20:36Z</time>
      </trkpt>
      <trkpt lat="45.41242" lon="5.82409">
        <ele>1003</ele>
        <time>2011-06-03T08:20:38Z</time>
      </trkpt>
      <trkpt lat="45.41237" lon="5.82405">
        <ele>1005</ele>
        <time>2011-06-03T08:20:42Z</time>
      </trkpt>
      <trkpt lat="45.41229" lon="5.82401">
        <ele>1006</ele>
        <time>2011-06-03T08:20:48Z</time>
      </trkpt>
      <trkpt lat="45.41227" lon="5.82399">
        <ele>1007</ele>
        <time>2011-06-03T08:20:50Z</time>
      </trkpt>
      <trkpt lat="45.41219" lon="5.82391">
        <ele>1008</ele>
        <time>2011-06-03T08:20:57Z</time>
      </trkpt>
      <trkpt lat="45.41217" lon="5.82385">
        <ele>1008</ele>
        <time>2011-06-03T08:21:01Z</time>
      </trkpt>
      <trkpt lat="45.41215" lon="5.8238">
        <ele>1008</ele>
        <time>2011-06-03T08:21:04Z</time>
      </trkpt>
      <trkpt lat="45.41209" lon="5.82367">
        <ele>1007</ele>
        <time>2011-06-03T08:21:09Z</time>
      </trkpt>
      <trkpt lat="45.41205" lon="5.82362">
        <ele>1007</ele>
        <time>2011-06-03T08:21:13Z</time>
      </trkpt>
      <trkpt lat="45.41204" lon="5.82358">
        <ele>1006</ele>
        <time>2011-06-03T08:21:16Z</time>
      </trkpt>
      <trkpt lat="45.41203" lon="5.82352">
        <ele>1006</ele>
        <time>2011-06-03T08:21:19Z</time>
      </trkpt>
      <trkpt lat="45.41197" lon="5.82339">
        <ele>1006</ele>
        <time>2011-06-03T08:21:25Z</time>
      </trkpt>
      <trkpt lat="45.41193" lon="5.82337">
        <ele>1007</ele>
        <time>2011-06-03T08:21:28Z</time>
      </trkpt>
      <trkpt lat="45.41191" lon="5.82336">
        <ele>1007</ele>
        <time>2011-06-03T08:21:29Z</time>
      </trkpt>
      <trkpt lat="45.41187" lon="5.82333">
        <ele>995</ele>
        <time>2011-06-03T08:21:34Z</time>
      </trkpt>
      <trkpt lat="45.41186" lon="5.82331">
        <ele>996</ele>
        <time>2011-06-03T08:21:35Z</time>
      </trkpt>
      <trkpt lat="45.4118" lon="5.82326">
        <ele>999</ele>
        <time>2011-06-03T08:21:40Z</time>
      </trkpt>
      <trkpt lat="45.41177" lon="5.82323">
        <ele>999</ele>
        <time>2011-06-03T08:21:42Z</time>
      </trkpt>
      <trkpt lat="45.41175" lon="5.82319">
        <ele>998</ele>
        <time>2011-06-03T08:21:46Z</time>
      </trkpt>
      <trkpt lat="45.41173" lon="5.82307">
        <ele>994</ele>
        <time>2011-06-03T08:21:51Z</time>
      </trkpt>
      <trkpt lat="45.41168" lon="5.82308">
        <ele>995</ele>
        <time>2011-06-03T08:21:59Z</time>
      </trkpt>
      <trkpt lat="45.41168" lon="5.82302">
        <ele>993</ele>
        <time>2011-06-03T08:22:05Z</time>
      </trkpt>
      <trkpt lat="45.41171" lon="5.82298">
        <ele>992</ele>
        <time>2011-06-03T08:22:10Z</time>
      </trkpt>
      <trkpt lat="45.41173" lon="5.82283">
        <ele>991</ele>
        <time>2011-06-03T08:22:24Z</time>
      </trkpt>
      <trkpt lat="45.41173" lon="5.82278">
        <ele>991</ele>
        <time>2011-06-03T08:22:27Z</time>
      </trkpt>
      <trkpt lat="45.41171" lon="5.82276">
        <ele>992</ele>
        <time>2011-06-03T08:22:29Z</time>
      </trkpt>
      <trkpt lat="45.4117" lon="5.82272">
        <ele>993</ele>
        <time>2011-06-03T08:22:34Z</time>
      </trkpt>
      <trkpt lat="45.41172" lon="5.82265">
        <ele>994</ele>
        <time>2011-06-03T08:22:39Z</time>
      </trkpt>
      <trkpt lat="45.41171" lon="5.8226">
        <ele>997</ele>
        <time>2011-06-03T08:22:43Z</time>
      </trkpt>
      <trkpt lat="45.4117" lon="5.82254">
        <ele>1000</ele>
        <time>2011-06-03T08:22:47Z</time>
      </trkpt>
      <trkpt lat="45.4117" lon="5.82251">
        <ele>1001</ele>
        <time>2011-06-03T08:22:49Z</time>
      </trkpt>
      <trkpt lat="45.41174" lon="5.82243">
        <ele>992</ele>
        <time>2011-06-03T08:22:53Z</time>
      </trkpt>
      <trkpt lat="45.41175" lon="5.8223">
        <ele>984</ele>
        <time>2011-06-03T08:22:59Z</time>
      </trkpt>
      <trkpt lat="45.41173" lon="5.8222">
        <ele>980</ele>
        <time>2011-06-03T08:23:06Z</time>
      </trkpt>
      <trkpt lat="45.41173" lon="5.82218">
        <ele>980</ele>
        <time>2011-06-03T08:23:07Z</time>
      </trkpt>
      <trkpt lat="45.41172" lon="5.82214">
        <ele>979</ele>
        <time>2011-06-03T08:23:10Z</time>
      </trkpt>
      <trkpt lat="45.41174" lon="5.82207">
        <ele>978</ele>
        <time>2011-06-03T08:23:14Z</time>
      </trkpt>
      <trkpt lat="45.41174" lon="5.822">
        <ele>977</ele>
        <time>2011-06-03T08:23:17Z</time>
      </trkpt>
      <trkpt lat="45.41165" lon="5.82193">
        <ele>1013</ele>
        <time>2011-06-03T08:23:26Z</time>
      </trkpt>
      <trkpt lat="45.41162" lon="5.8219">
        <ele>1013</ele>
        <time>2011-06-03T08:23:28Z</time>
      </trkpt>
      <trkpt lat="45.41159" lon="5.82181">
        <ele>1009</ele>
        <time>2011-06-03T08:23:37Z</time>
      </trkpt>
      <trkpt lat="45.41157" lon="5.8217">
        <ele>1004</ele>
        <time>2011-06-03T08:23:44Z</time>
      </trkpt>
      <trkpt lat="45.41156" lon="5.82168">
        <ele>1005</ele>
        <time>2011-06-03T08:23:47Z</time>
      </trkpt>
      <trkpt lat="45.41155" lon="5.82166">
        <ele>999</ele>
        <time>2011-06-03T08:23:50Z</time>
      </trkpt>
      <trkpt lat="45.41142" lon="5.82154">
        <ele>1004</ele>
        <time>2011-06-03T08:24:00Z</time>
      </trkpt>
      <trkpt lat="45.41142" lon="5.82153">
        <ele>1005</ele>
        <time>2011-06-03T08:24:01Z</time>
      </trkpt>
      <trkpt lat="45.41132" lon="5.82143">
        <ele>1007</ele>
        <time>2011-06-03T08:24:15Z</time>
      </trkpt>
      <trkpt lat="45.41132" lon="5.82137">
        <ele>1007</ele>
        <time>2011-06-03T08:24:19Z</time>
      </trkpt>
      <trkpt lat="45.41132" lon="5.82136">
        <ele>1007</ele>
        <time>2011-06-03T08:24:20Z</time>
      </trkpt>
      <trkpt lat="45.41128" lon="5.82133">
        <ele>1007</ele>
        <time>2011-06-03T08:24:24Z</time>
      </trkpt>
      <trkpt lat="45.41125" lon="5.82126">
        <ele>1007</ele>
        <time>2011-06-03T08:24:30Z</time>
      </trkpt>
      <trkpt lat="45.41124" lon="5.82124">
        <ele>1008</ele>
        <time>2011-06-03T08:24:32Z</time>
      </trkpt>
      <trkpt lat="45.4112" lon="5.82117">
        <ele>1008</ele>
        <time>2011-06-03T08:24:36Z</time>
      </trkpt>
      <trkpt lat="45.41113" lon="5.8211">
        <ele>1009</ele>
        <time>2011-06-03T08:24:43Z</time>
      </trkpt>
      <trkpt lat="45.41115" lon="5.82119">
        <ele>1009</ele>
        <time>2011-06-03T08:24:51Z</time>
      </trkpt>
      <trkpt lat="45.41118" lon="5.82124">
        <ele>1009</ele>
        <time>2011-06-03T08:24:56Z</time>
      </trkpt>
      <trkpt lat="45.4112" lon="5.82129">
        <ele>1010</ele>
        <time>2011-06-03T08:25:00Z</time>
      </trkpt>
      <trkpt lat="45.41119" lon="5.82131">
        <ele>1010</ele>
        <time>2011-06-03T08:25:02Z</time>
      </trkpt>
      <trkpt lat="45.4112" lon="5.82142">
        <ele>1012</ele>
        <time>2011-06-03T08:25:11Z</time>
      </trkpt>
      <trkpt lat="45.41124" lon="5.82155">
        <ele>1012</ele>
        <time>2011-06-03T08:25:21Z</time>
      </trkpt>
      <trkpt lat="45.41125" lon="5.82158">
        <ele>1012</ele>
        <time>2011-06-03T08:25:23Z</time>
      </trkpt>
      <trkpt lat="45.41124" lon="5.82161">
        <ele>1012</ele>
        <time>2011-06-03T08:25:24Z</time>
      </trkpt>
      <trkpt lat="45.41126" lon="5.82166">
        <ele>1012</ele>
        <time>2011-06-03T08:25:28Z</time>
      </trkpt>
      <trkpt lat="45.4113" lon="5.82172">
        <ele>1023</ele>
        <time>2011-06-03T08:25:34Z</time>
      </trkpt>
      <trkpt lat="45.41132" lon="5.82178">
        <ele>1022</ele>
        <time>2011-06-03T08:25:39Z</time>
      </trkpt>
      <trkpt lat="45.41132" lon="5.8218">
        <ele>1022</ele>
        <time>2011-06-03T08:25:40Z</time>
      </trkpt>
      <trkpt lat="45.4113" lon="5.82182">
        <ele>1023</ele>
        <time>2011-06-03T08:25:42Z</time>
      </trkpt>
      <trkpt lat="45.41132" lon="5.82183">
        <ele>1023</ele>
        <time>2011-06-03T08:25:43Z</time>
      </trkpt>
      <trkpt lat="45.41132" lon="5.8219">
        <ele>1023</ele>
        <time>2011-06-03T08:25:47Z</time>
      </trkpt>
      <trkpt lat="45.41132" lon="5.82207">
        <ele>1025</ele>
        <time>2011-06-03T08:26:00Z</time>
      </trkpt>
      <trkpt lat="45.41131" lon="5.82208">
        <ele>1026</ele>
        <time>2011-06-03T08:26:01Z</time>
      </trkpt>
      <trkpt lat="45.4113" lon="5.82215">
        <ele>1026</ele>
        <time>2011-06-03T08:26:21Z</time>
      </trkpt>
      <trkpt lat="45.41128" lon="5.82221">
        <ele>1028</ele>
        <time>2011-06-03T08:26:25Z</time>
      </trkpt>
      <trkpt lat="45.41126" lon="5.8223">
        <ele>1029</ele>
        <time>2011-06-03T08:26:29Z</time>
      </trkpt>
      <trkpt lat="45.41133" lon="5.82252">
        <ele>1035</ele>
        <time>2011-06-03T08:26:41Z</time>
      </trkpt>
      <trkpt lat="45.41133" lon="5.82255">
        <ele>1035</ele>
        <time>2011-06-03T08:26:42Z</time>
      </trkpt>
      <trkpt lat="45.41129" lon="5.8227">
        <ele>1039</ele>
        <time>2011-06-03T08:26:47Z</time>
      </trkpt>
      <trkpt lat="45.41125" lon="5.82277">
        <ele>1041</ele>
        <time>2011-06-03T08:26:51Z</time>
      </trkpt>
      <trkpt lat="45.41123" lon="5.82278">
        <ele>1042</ele>
        <time>2011-06-03T08:26:52Z</time>
      </trkpt>
      <trkpt lat="45.41129" lon="5.82284">
        <ele>1040</ele>
        <time>2011-06-03T08:27:06Z</time>
      </trkpt>
      <trkpt lat="45.41131" lon="5.82289">
        <ele>1040</ele>
        <time>2011-06-03T08:27:13Z</time>
      </trkpt>
      <trkpt lat="45.41139" lon="5.82294">
        <ele>1037</ele>
        <time>2011-06-03T08:27:18Z</time>
      </trkpt>
      <trkpt lat="45.41138" lon="5.82296">
        <ele>1038</ele>
        <time>2011-06-03T08:27:21Z</time>
      </trkpt>
      <trkpt lat="45.41138" lon="5.82298">
        <ele>1038</ele>
        <time>2011-06-03T08:27:22Z</time>
      </trkpt>
      <trkpt lat="45.41139" lon="5.82304">
        <ele>1038</ele>
        <time>2011-06-03T08:27:26Z</time>
      </trkpt>
      <trkpt lat="45.41136" lon="5.82318">
        <ele>1039</ele>
        <time>2011-06-03T08:27:37Z</time>
      </trkpt>
      <trkpt lat="45.41134" lon="5.8232">
        <ele>1040</ele>
        <time>2011-06-03T08:27:39Z</time>
      </trkpt>
      <trkpt lat="45.41127" lon="5.82325">
        <ele>1044</ele>
        <time>2011-06-03T08:27:49Z</time>
      </trkpt>
      <trkpt lat="45.41125" lon="5.82313">
        <ele>1045</ele>
        <time>2011-06-03T08:27:56Z</time>
      </trkpt>
      <trkpt lat="45.41125" lon="5.8231">
        <ele>1044</ele>
        <time>2011-06-03T08:27:58Z</time>
      </trkpt>
      <trkpt lat="45.41126" lon="5.82306">
        <ele>1043</ele>
        <time>2011-06-03T08:28:00Z</time>
      </trkpt>
      <trkpt lat="45.41123" lon="5.82298">
        <ele>1044</ele>
        <time>2011-06-03T08:28:06Z</time>
      </trkpt>
      <trkpt lat="45.41122" lon="5.82296">
        <ele>1044</ele>
        <time>2011-06-03T08:28:07Z</time>
      </trkpt>
      <trkpt lat="45.41114" lon="5.82291">
        <ele>1047</ele>
        <time>2011-06-03T08:28:11Z</time>
      </trkpt>
      <trkpt lat="45.41108" lon="5.82287">
        <ele>1049</ele>
        <time>2011-06-03T08:28:13Z</time>
      </trkpt>
      <trkpt lat="45.41108" lon="5.82285">
        <ele>1048</ele>
        <time>2011-06-03T08:28:14Z</time>
      </trkpt>
      <trkpt lat="45.41106" lon="5.82269">
        <ele>1049</ele>
        <time>2011-06-03T08:28:22Z</time>
      </trkpt>
      <trkpt lat="45.41107" lon="5.82262">
        <ele>1049</ele>
        <time>2011-06-03T08:28:26Z</time>
      </trkpt>
      <trkpt lat="45.41107" lon="5.82261">
        <ele>1049</ele>
        <time>2011-06-03T08:28:27Z</time>
      </trkpt>
      <trkpt lat="45.4111" lon="5.82254">
        <ele>1048</ele>
        <time>2011-06-03T08:28:33Z</time>
      </trkpt>
      <trkpt lat="45.41108" lon="5.82252">
        <ele>1048</ele>
        <time>2011-06-03T08:28:37Z</time>
      </trkpt>
      <trkpt lat="45.41109" lon="5.82248">
        <ele>1039</ele>
        <time>2011-06-03T08:28:44Z</time>
      </trkpt>
      <trkpt lat="45.41108" lon="5.82246">
        <ele>1040</ele>
        <time>2011-06-03T08:28:46Z</time>
      </trkpt>
      <trkpt lat="45.41097" lon="5.82231">
        <ele>1042</ele>
        <time>2011-06-03T08:29:04Z</time>
      </trkpt>
      <trkpt lat="45.41097" lon="5.82229">
        <ele>1041</ele>
        <time>2011-06-03T08:29:06Z</time>
      </trkpt>
      <trkpt lat="45.41096" lon="5.82228">
        <ele>1041</ele>
        <time>2011-06-03T08:29:07Z</time>
      </trkpt>
      <trkpt lat="45.41093" lon="5.82221">
        <ele>1040</ele>
        <time>2011-06-03T08:29:12Z</time>
      </trkpt>
      <trkpt lat="45.41096" lon="5.82228">
        <ele>1041</ele>
        <time>2011-06-03T08:29:26Z</time>
      </trkpt>
      <trkpt lat="45.41099" lon="5.82237">
        <ele>1043</ele>
        <time>2011-06-03T08:29:33Z</time>
      </trkpt>
      <trkpt lat="45.41101" lon="5.82242">
        <ele>1044</ele>
        <time>2011-06-03T08:29:35Z</time>
      </trkpt>
      <trkpt lat="45.41101" lon="5.82251">
        <ele>1052</ele>
        <time>2011-06-03T08:29:40Z</time>
      </trkpt>
      <trkpt lat="45.411" lon="5.82257">
        <ele>1052</ele>
        <time>2011-06-03T08:29:42Z</time>
      </trkpt>
      <trkpt lat="45.41098" lon="5.82262">
        <ele>1053</ele>
        <time>2011-06-03T08:29:46Z</time>
      </trkpt>
      <trkpt lat="45.41088" lon="5.82272">
        <ele>1054</ele>
        <time>2011-06-03T08:29:54Z</time>
      </trkpt>
      <trkpt lat="45.41086" lon="5.82273">
        <ele>1054</ele>
        <time>2011-06-03T08:29:56Z</time>
      </trkpt>
      <trkpt lat="45.41083" lon="5.82278">
        <ele>1086</ele>
        <time>2011-06-03T08:29:59Z</time>
      </trkpt>
      <trkpt lat="45.41082" lon="5.82279">
        <ele>1086</ele>
        <time>2011-06-03T08:30:00Z</time>
      </trkpt>
      <trkpt lat="45.41081" lon="5.82277">
        <ele>1086</ele>
        <time>2011-06-03T08:30:02Z</time>
      </trkpt>
      <trkpt lat="45.41081" lon="5.82262">
        <ele>1077</ele>
        <time>2011-06-03T08:30:11Z</time>
      </trkpt>
      <trkpt lat="45.41081" lon="5.82254">
        <ele>1069</ele>
        <time>2011-06-03T08:30:15Z</time>
      </trkpt>
      <trkpt lat="45.41082" lon="5.8225">
        <ele>1065</ele>
        <time>2011-06-03T08:30:17Z</time>
      </trkpt>
      <trkpt lat="45.41082" lon="5.82243">
        <ele>1068</ele>
        <time>2011-06-03T08:30:23Z</time>
      </trkpt>
      <trkpt lat="45.41073" lon="5.8223">
        <ele>1073</ele>
        <time>2011-06-03T08:30:30Z</time>
      </trkpt>
      <trkpt lat="45.4107" lon="5.82228">
        <ele>1074</ele>
        <time>2011-06-03T08:30:32Z</time>
      </trkpt>
      <trkpt lat="45.41072" lon="5.82232">
        <ele>1073</ele>
        <time>2011-06-03T08:30:34Z</time>
      </trkpt>
      <trkpt lat="45.41077" lon="5.82239">
        <ele>1070</ele>
        <time>2011-06-03T08:30:38Z</time>
      </trkpt>
      <trkpt lat="45.4108" lon="5.8225">
        <ele>1068</ele>
        <time>2011-06-03T08:30:43Z</time>
      </trkpt>
      <trkpt lat="45.41081" lon="5.82252">
        <ele>1069</ele>
        <time>2011-06-03T08:30:44Z</time>
      </trkpt>
      <trkpt lat="45.41079" lon="5.82258">
        <ele>1074</ele>
        <time>2011-06-03T08:30:47Z</time>
      </trkpt>
      <trkpt lat="45.41075" lon="5.8226">
        <ele>1078</ele>
        <time>2011-06-03T08:30:49Z</time>
      </trkpt>
      <trkpt lat="45.4107" lon="5.82267">
        <ele>1084</ele>
        <time>2011-06-03T08:30:53Z</time>
      </trkpt>
      <trkpt lat="45.41073" lon="5.82278">
        <ele>1088</ele>
        <time>2011-06-03T08:31:00Z</time>
      </trkpt>
      <trkpt lat="45.41073" lon="5.8228">
        <ele>1088</ele>
        <time>2011-06-03T08:31:01Z</time>
      </trkpt>
      <trkpt lat="45.41073" lon="5.82285">
        <ele>1090</ele>
        <time>2011-06-03T08:31:04Z</time>
      </trkpt>
      <trkpt lat="45.4107" lon="5.82286">
        <ele>1090</ele>
        <time>2011-06-03T08:31:16Z</time>
      </trkpt>
      <trkpt lat="45.41069" lon="5.82278">
        <ele>1088</ele>
        <time>2011-06-03T08:31:20Z</time>
      </trkpt>
      <trkpt lat="45.41069" lon="5.82276">
        <ele>1088</ele>
        <time>2011-06-03T08:31:21Z</time>
      </trkpt>
      <trkpt lat="45.41071" lon="5.82265">
        <ele>1083</ele>
        <time>2011-06-03T08:31:28Z</time>
      </trkpt>
      <trkpt lat="45.41071" lon="5.82257">
        <ele>1079</ele>
        <time>2011-06-03T08:31:35Z</time>
      </trkpt>
      <trkpt lat="45.41067" lon="5.82253">
        <ele>1080</ele>
        <time>2011-06-03T08:31:39Z</time>
      </trkpt>
      <trkpt lat="45.41066" lon="5.82252">
        <ele>1081</ele>
        <time>2011-06-03T08:31:40Z</time>
      </trkpt>
      <trkpt lat="45.41054" lon="5.82248">
        <ele>1078</ele>
        <time>2011-06-03T08:31:51Z</time>
      </trkpt>
      <trkpt lat="45.41051" lon="5.82241">
        <ele>1080</ele>
        <time>2011-06-03T08:31:55Z</time>
      </trkpt>
      <trkpt lat="45.41052" lon="5.82242">
        <ele>1079</ele>
        <time>2011-06-03T08:32:02Z</time>
      </trkpt>
      <trkpt lat="45.41054" lon="5.82247">
        <ele>1079</ele>
        <time>2011-06-03T08:32:06Z</time>
      </trkpt>
      <trkpt lat="45.41055" lon="5.82253">
        <ele>1088</ele>
        <time>2011-06-03T08:32:11Z</time>
      </trkpt>
      <trkpt lat="45.41055" lon="5.82263">
        <ele>1089</ele>
        <time>2011-06-03T08:32:18Z</time>
      </trkpt>
      <trkpt lat="45.41055" lon="5.82266">
        <ele>1090</ele>
        <time>2011-06-03T08:32:22Z</time>
      </trkpt>
      <trkpt lat="45.41057" lon="5.82276">
        <ele>1092</ele>
        <time>2011-06-03T08:32:30Z</time>
      </trkpt>
      <trkpt lat="45.41059" lon="5.82281">
        <ele>1092</ele>
        <time>2011-06-03T08:32:33Z</time>
      </trkpt>
      <trkpt lat="45.41057" lon="5.8229">
        <ele>1094</ele>
        <time>2011-06-03T08:32:39Z</time>
      </trkpt>
      <trkpt lat="45.41059" lon="5.82296">
        <ele>1094</ele>
        <time>2011-06-03T08:32:44Z</time>
      </trkpt>
      <trkpt lat="45.4106" lon="5.82298">
        <ele>1095</ele>
        <time>2011-06-03T08:32:46Z</time>
      </trkpt>
      <trkpt lat="45.41055" lon="5.8229">
        <ele>1095</ele>
        <time>2011-06-03T08:32:55Z</time>
      </trkpt>
      <trkpt lat="45.41051" lon="5.8228">
        <ele>1094</ele>
        <time>2011-06-03T08:33:05Z</time>
      </trkpt>
      <trkpt lat="45.41051" lon="5.82276">
        <ele>1093</ele>
        <time>2011-06-03T08:33:09Z</time>
      </trkpt>
      <trkpt lat="45.41048" lon="5.82273">
        <ele>1094</ele>
        <time>2011-06-03T08:33:11Z</time>
      </trkpt>
      <trkpt lat="45.41048" lon="5.82269">
        <ele>1093</ele>
        <time>2011-06-03T08:33:14Z</time>
      </trkpt>
      <trkpt lat="45.41045" lon="5.82264">
        <ele>1093</ele>
        <time>2011-06-03T08:33:21Z</time>
      </trkpt>
      <trkpt lat="45.41042" lon="5.8226">
        <ele>1094</ele>
        <time>2011-06-03T08:33:25Z</time>
      </trkpt>
      <trkpt lat="45.41036" lon="5.8226">
        <ele>1096</ele>
        <time>2011-06-03T08:33:29Z</time>
      </trkpt>
      <trkpt lat="45.41032" lon="5.82259">
        <ele>1098</ele>
        <time>2011-06-03T08:33:32Z</time>
      </trkpt>
      <trkpt lat="45.41031" lon="5.82259">
        <ele>1098</ele>
        <time>2011-06-03T08:33:33Z</time>
      </trkpt>
      <trkpt lat="45.41031" lon="5.82258">
        <ele>1098</ele>
        <time>2011-06-03T08:33:34Z</time>
      </trkpt>
      <trkpt lat="45.41026" lon="5.82246">
        <ele>1090</ele>
        <time>2011-06-03T08:33:41Z</time>
      </trkpt>
      <trkpt lat="45.41028" lon="5.82245">
        <ele>1089</ele>
        <time>2011-06-03T08:33:45Z</time>
      </trkpt>
      <trkpt lat="45.4103" lon="5.82255">
        <ele>1098</ele>
        <time>2011-06-03T08:33:52Z</time>
      </trkpt>
      <trkpt lat="45.41036" lon="5.82261">
        <ele>1097</ele>
        <time>2011-06-03T08:33:58Z</time>
      </trkpt>
      <trkpt lat="45.4104" lon="5.82263">
        <ele>1095</ele>
        <time>2011-06-03T08:34:01Z</time>
      </trkpt>
      <trkpt lat="45.41042" lon="5.82268">
        <ele>1095</ele>
        <time>2011-06-03T08:34:06Z</time>
      </trkpt>
      <trkpt lat="45.41044" lon="5.8227">
        <ele>1095</ele>
        <time>2011-06-03T08:34:08Z</time>
      </trkpt>
      <trkpt lat="45.41044" lon="5.82273">
        <ele>1095</ele>
        <time>2011-06-03T08:34:10Z</time>
      </trkpt>
      <trkpt lat="45.41046" lon="5.82287">
        <ele>1096</ele>
        <time>2011-06-03T08:34:18Z</time>
      </trkpt>
      <trkpt lat="45.41043" lon="5.82297">
        <ele>1099</ele>
        <time>2011-06-03T08:34:24Z</time>
      </trkpt>
      <trkpt lat="45.41042" lon="5.82299">
        <ele>1099</ele>
        <time>2011-06-03T08:34:25Z</time>
      </trkpt>
      <trkpt lat="45.41037" lon="5.82307">
        <ele>1102</ele>
        <time>2011-06-03T08:34:48Z</time>
      </trkpt>
      <trkpt lat="45.41039" lon="5.82315">
        <ele>1102</ele>
        <time>2011-06-03T08:35:08Z</time>
      </trkpt>
      <trkpt lat="45.41042" lon="5.82306">
        <ele>1100</ele>
        <time>2011-06-03T08:35:14Z</time>
      </trkpt>
      <trkpt lat="45.41042" lon="5.82301">
        <ele>1099</ele>
        <time>2011-06-03T08:35:17Z</time>
      </trkpt>
      <trkpt lat="45.41038" lon="5.82297">
        <ele>1100</ele>
        <time>2011-06-03T08:35:27Z</time>
      </trkpt>
      <trkpt lat="45.41037" lon="5.82287">
        <ele>1099</ele>
        <time>2011-06-03T08:35:33Z</time>
      </trkpt>
      <trkpt lat="45.41036" lon="5.82276">
        <ele>1098</ele>
        <time>2011-06-03T08:35:37Z</time>
      </trkpt>
      <trkpt lat="45.41035" lon="5.82273">
        <ele>1098</ele>
        <time>2011-06-03T08:35:38Z</time>
      </trkpt>
      <trkpt lat="45.41029" lon="5.82269">
        <ele>1099</ele>
        <time>2011-06-03T08:35:45Z</time>
      </trkpt>
      <trkpt lat="45.41027" lon="5.82271">
        <ele>1100</ele>
        <time>2011-06-03T08:35:48Z</time>
      </trkpt>
      <trkpt lat="45.41027" lon="5.82269">
        <ele>1100</ele>
        <time>2011-06-03T08:35:50Z</time>
      </trkpt>
      <trkpt lat="45.41023" lon="5.82265">
        <ele>1101</ele>
        <time>2011-06-03T08:35:54Z</time>
      </trkpt>
      <trkpt lat="45.41021" lon="5.82264">
        <ele>1101</ele>
        <time>2011-06-03T08:35:55Z</time>
      </trkpt>
      <trkpt lat="45.4102" lon="5.82268">
        <ele>1102</ele>
        <time>2011-06-03T08:35:59Z</time>
      </trkpt>
      <trkpt lat="45.4102" lon="5.82274">
        <ele>1102</ele>
        <time>2011-06-03T08:36:03Z</time>
      </trkpt>
      <trkpt lat="45.41023" lon="5.8228">
        <ele>1101</ele>
        <time>2011-06-03T08:36:14Z</time>
      </trkpt>
      <trkpt lat="45.41022" lon="5.8228">
        <ele>1102</ele>
        <time>2011-06-03T08:36:15Z</time>
      </trkpt>
      <trkpt lat="45.41023" lon="5.82293">
        <ele>1103</ele>
        <time>2011-06-03T08:36:41Z</time>
      </trkpt>
      <trkpt lat="45.41021" lon="5.82283">
        <ele>1102</ele>
        <time>2011-06-03T08:36:44Z</time>
      </trkpt>
      <trkpt lat="45.4102" lon="5.8228">
        <ele>1102</ele>
        <time>2011-06-03T08:36:46Z</time>
      </trkpt>
      <trkpt lat="45.41011" lon="5.82268">
        <ele>1103</ele>
        <time>2011-06-03T08:36:55Z</time>
      </trkpt>
      <trkpt lat="45.41013" lon="5.82275">
        <ele>1103</ele>
        <time>2011-06-03T08:36:57Z</time>
      </trkpt>
      <trkpt lat="45.41005" lon="5.82308">
        <ele>1111</ele>
        <time>2011-06-03T08:37:16Z</time>
      </trkpt>
      <trkpt lat="45.40997" lon="5.8232">
        <ele>1156</ele>
        <time>2011-06-03T08:37:21Z</time>
      </trkpt>
      <trkpt lat="45.40987" lon="5.82305">
        <ele>1171</ele>
        <time>2011-06-03T08:37:35Z</time>
      </trkpt>
      <trkpt lat="45.40985" lon="5.82304">
        <ele>1173</ele>
        <time>2011-06-03T08:37:37Z</time>
      </trkpt>
      <trkpt lat="45.40982" lon="5.82303">
        <ele>1175</ele>
        <time>2011-06-03T08:37:39Z</time>
      </trkpt>
      <trkpt lat="45.40977" lon="5.82305">
        <ele>1179</ele>
        <time>2011-06-03T08:37:46Z</time>
      </trkpt>
      <trkpt lat="45.40979" lon="5.82308">
        <ele>1177</ele>
        <time>2011-06-03T08:37:48Z</time>
      </trkpt>
      <trkpt lat="45.40983" lon="5.82333">
        <ele>1166</ele>
        <time>2011-06-03T08:38:03Z</time>
      </trkpt>
      <trkpt lat="45.40983" lon="5.82337">
        <ele>1188</ele>
        <time>2011-06-03T08:38:04Z</time>
      </trkpt>
      <trkpt lat="45.40983" lon="5.82351">
        <ele>1201</ele>
        <time>2011-06-03T08:38:19Z</time>
      </trkpt>
      <trkpt lat="45.40982" lon="5.82346">
        <ele>1197</ele>
        <time>2011-06-03T08:38:27Z</time>
      </trkpt>
      <trkpt lat="45.40978" lon="5.82329">
        <ele>1174</ele>
        <time>2011-06-03T08:38:33Z</time>
      </trkpt>
      <trkpt lat="45.40976" lon="5.82322">
        <ele>1177</ele>
        <time>2011-06-03T08:38:36Z</time>
      </trkpt>
      <trkpt lat="45.40979" lon="5.82316">
        <ele>1176</ele>
        <time>2011-06-03T08:38:49Z</time>
      </trkpt>
      <trkpt lat="45.40972" lon="5.82333">
        <ele>1183</ele>
        <time>2011-06-03T08:38:58Z</time>
      </trkpt>
      <trkpt lat="45.40967" lon="5.82336">
        <ele>1218</ele>
        <time>2011-06-03T08:39:02Z</time>
      </trkpt>
      <trkpt lat="45.40965" lon="5.82327">
        <ele>1191</ele>
        <time>2011-06-03T08:39:20Z</time>
      </trkpt>
      <trkpt lat="45.40953" lon="5.82307">
        <ele>1203</ele>
        <time>2011-06-03T08:39:40Z</time>
      </trkpt>
      <trkpt lat="45.40944" lon="5.82284">
        <ele>1203</ele>
        <time>2011-06-03T08:40:01Z</time>
      </trkpt>
      <trkpt lat="45.40936" lon="5.82257">
        <ele>1208</ele>
        <time>2011-06-03T08:40:18Z</time>
      </trkpt>
      <trkpt lat="45.40923" lon="5.82244">
        <ele>1208</ele>
        <time>2011-06-03T08:40:38Z</time>
      </trkpt>
      <trkpt lat="45.40922" lon="5.8224">
        <ele>1202</ele>
        <time>2011-06-03T08:40:40Z</time>
      </trkpt>
      <trkpt lat="45.40923" lon="5.82236">
        <ele>1195</ele>
        <time>2011-06-03T08:40:42Z</time>
      </trkpt>
      <trkpt lat="45.4092" lon="5.82231">
        <ele>1188</ele>
        <time>2011-06-03T08:40:46Z</time>
      </trkpt>
      <trkpt lat="45.40918" lon="5.82222">
        <ele>1179</ele>
        <time>2011-06-03T08:40:52Z</time>
      </trkpt>
      <trkpt lat="45.40916" lon="5.82219">
        <ele>1250</ele>
        <time>2011-06-03T08:40:55Z</time>
      </trkpt>
      <trkpt lat="45.40913" lon="5.82216">
        <ele>1250</ele>
        <time>2011-06-03T08:40:59Z</time>
      </trkpt>
      <trkpt lat="45.40907" lon="5.82208">
        <ele>1250</ele>
        <time>2011-06-03T08:41:08Z</time>
      </trkpt>
      <trkpt lat="45.40905" lon="5.82207">
        <ele>1250</ele>
        <time>2011-06-03T08:41:10Z</time>
      </trkpt>
      <trkpt lat="45.409" lon="5.82204">
        <ele>1251</ele>
        <time>2011-06-03T08:41:17Z</time>
      </trkpt>
      <trkpt lat="45.40899" lon="5.82203">
        <ele>1251</ele>
        <time>2011-06-03T08:41:19Z</time>
      </trkpt>
      <trkpt lat="45.40889" lon="5.82187">
        <ele>1251</ele>
        <time>2011-06-03T08:41:33Z</time>
      </trkpt>
      <trkpt lat="45.40887" lon="5.82182">
        <ele>1250</ele>
        <time>2011-06-03T08:41:38Z</time>
      </trkpt>
      <trkpt lat="45.40886" lon="5.82177">
        <ele>1250</ele>
        <time>2011-06-03T08:41:42Z</time>
      </trkpt>
      <trkpt lat="45.40885" lon="5.82176">
        <ele>1251</ele>
        <time>2011-06-03T08:41:44Z</time>
      </trkpt>
      <trkpt lat="45.4088" lon="5.82171">
        <ele>1259</ele>
        <time>2011-06-03T08:41:50Z</time>
      </trkpt>
      <trkpt lat="45.40879" lon="5.82169">
        <ele>1260</ele>
        <time>2011-06-03T08:41:52Z</time>
      </trkpt>
      <trkpt lat="45.40878" lon="5.82167">
        <ele>1261</ele>
        <time>2011-06-03T08:41:55Z</time>
      </trkpt>
      <trkpt lat="45.40878" lon="5.82165">
        <ele>1231</ele>
        <time>2011-06-03T08:41:56Z</time>
      </trkpt>
      <trkpt lat="45.40873" lon="5.82171">
        <ele>1269</ele>
        <time>2011-06-03T08:42:10Z</time>
      </trkpt>
      <trkpt lat="45.40867" lon="5.82155">
        <ele>1245</ele>
        <time>2011-06-03T08:42:36Z</time>
      </trkpt>
      <trkpt lat="45.40864" lon="5.82152">
        <ele>1248</ele>
        <time>2011-06-03T08:42:41Z</time>
      </trkpt>
      <trkpt lat="45.40863" lon="5.82149">
        <ele>1247</ele>
        <time>2011-06-03T08:42:49Z</time>
      </trkpt>
      <trkpt lat="45.40858" lon="5.82134">
        <ele>1243</ele>
        <time>2011-06-03T08:43:15Z</time>
      </trkpt>
      <trkpt lat="45.40853" lon="5.82124">
        <ele>1240</ele>
        <time>2011-06-03T08:43:25Z</time>
      </trkpt>
      <trkpt lat="45.40852" lon="5.8212">
        <ele>1239</ele>
        <time>2011-06-03T08:43:27Z</time>
      </trkpt>
      <trkpt lat="45.40848" lon="5.82098">
        <ele>1233</ele>
        <time>2011-06-03T08:43:39Z</time>
      </trkpt>
      <trkpt lat="45.40848" lon="5.82095">
        <ele>1232</ele>
        <time>2011-06-03T08:43:41Z</time>
      </trkpt>
      <trkpt lat="45.4085" lon="5.82091">
        <ele>1231</ele>
        <time>2011-06-03T08:43:46Z</time>
      </trkpt>
      <trkpt lat="45.40849" lon="5.82073">
        <ele>1211</ele>
        <time>2011-06-03T08:44:10Z</time>
      </trkpt>
      <trkpt lat="45.40844" lon="5.82067">
        <ele>1211</ele>
        <time>2011-06-03T08:44:15Z</time>
      </trkpt>
      <trkpt lat="45.40837" lon="5.82055">
        <ele>1205</ele>
        <time>2011-06-03T08:44:33Z</time>
      </trkpt>
      <trkpt lat="45.40835" lon="5.82052">
        <ele>1204</ele>
        <time>2011-06-03T08:44:36Z</time>
      </trkpt>
      <trkpt lat="45.40832" lon="5.8205">
        <ele>1247</ele>
        <time>2011-06-03T08:44:41Z</time>
      </trkpt>
      <trkpt lat="45.40831" lon="5.82046">
        <ele>1246</ele>
        <time>2011-06-03T08:44:44Z</time>
      </trkpt>
      <trkpt lat="45.40829" lon="5.8204">
        <ele>1244</ele>
        <time>2011-06-03T08:44:59Z</time>
      </trkpt>
      <trkpt lat="45.40829" lon="5.82035">
        <ele>1241</ele>
        <time>2011-06-03T08:45:09Z</time>
      </trkpt>
      <trkpt lat="45.40824" lon="5.8203">
        <ele>1240</ele>
        <time>2011-06-03T08:45:22Z</time>
      </trkpt>
      <trkpt lat="45.40817" lon="5.82016">
        <ele>1233</ele>
        <time>2011-06-03T08:45:32Z</time>
      </trkpt>
      <trkpt lat="45.40817" lon="5.82013">
        <ele>1232</ele>
        <time>2011-06-03T08:45:34Z</time>
      </trkpt>
      <trkpt lat="45.40813" lon="5.82008">
        <ele>1232</ele>
        <time>2011-06-03T08:45:39Z</time>
      </trkpt>
      <trkpt lat="45.40808" lon="5.81996">
        <ele>1208</ele>
        <time>2011-06-03T08:45:46Z</time>
      </trkpt>
      <trkpt lat="45.40808" lon="5.81994">
        <ele>1208</ele>
        <time>2011-06-03T08:45:47Z</time>
      </trkpt>
      <trkpt lat="45.40803" lon="5.8199">
        <ele>1210</ele>
        <time>2011-06-03T08:45:51Z</time>
      </trkpt>
      <trkpt lat="45.40802" lon="5.81989">
        <ele>1210</ele>
        <time>2011-06-03T08:45:52Z</time>
      </trkpt>
      <trkpt lat="45.40799" lon="5.81978">
        <ele>1211</ele>
        <time>2011-06-03T08:45:57Z</time>
      </trkpt>
      <trkpt lat="45.40798" lon="5.81975">
        <ele>1211</ele>
        <time>2011-06-03T08:46:00Z</time>
      </trkpt>
      <trkpt lat="45.40798" lon="5.81973">
        <ele>1211</ele>
        <time>2011-06-03T08:46:01Z</time>
      </trkpt>
      <trkpt lat="45.40797" lon="5.81967">
        <ele>1210</ele>
        <time>2011-06-03T08:46:07Z</time>
      </trkpt>
      <trkpt lat="45.40794" lon="5.81959">
        <ele>1210</ele>
        <time>2011-06-03T08:46:11Z</time>
      </trkpt>
      <trkpt lat="45.40786" lon="5.81954">
        <ele>1212</ele>
        <time>2011-06-03T08:46:19Z</time>
      </trkpt>
      <trkpt lat="45.40785" lon="5.81943">
        <ele>1211</ele>
        <time>2011-06-03T08:46:25Z</time>
      </trkpt>
      <trkpt lat="45.40782" lon="5.81942">
        <ele>1212</ele>
        <time>2011-06-03T08:46:28Z</time>
      </trkpt>
      <trkpt lat="45.40777" lon="5.81934">
        <ele>1212</ele>
        <time>2011-06-03T08:46:34Z</time>
      </trkpt>
      <trkpt lat="45.40776" lon="5.81933">
        <ele>1212</ele>
        <time>2011-06-03T08:46:35Z</time>
      </trkpt>
      <trkpt lat="45.40776" lon="5.81932">
        <ele>1213</ele>
        <time>2011-06-03T08:46:36Z</time>
      </trkpt>
      <trkpt lat="45.40773" lon="5.8193">
        <ele>1213</ele>
        <time>2011-06-03T08:46:40Z</time>
      </trkpt>
      <trkpt lat="45.4077" lon="5.81925">
        <ele>1214</ele>
        <time>2011-06-03T08:46:46Z</time>
      </trkpt>
      <trkpt lat="45.40765" lon="5.81918">
        <ele>1216</ele>
        <time>2011-06-03T08:46:53Z</time>
      </trkpt>
      <trkpt lat="45.40763" lon="5.81915">
        <ele>1208</ele>
        <time>2011-06-03T08:46:56Z</time>
      </trkpt>
      <trkpt lat="45.40759" lon="5.8191">
        <ele>1210</ele>
        <time>2011-06-03T08:47:00Z</time>
      </trkpt>
      <trkpt lat="45.4075" lon="5.81894">
        <ele>1203</ele>
        <time>2011-06-03T08:47:14Z</time>
      </trkpt>
      <trkpt lat="45.40749" lon="5.81891">
        <ele>1230</ele>
        <time>2011-06-03T08:47:16Z</time>
      </trkpt>
      <trkpt lat="45.40746" lon="5.81883">
        <ele>1231</ele>
        <time>2011-06-03T08:47:20Z</time>
      </trkpt>
      <trkpt lat="45.40742" lon="5.81879">
        <ele>1231</ele>
        <time>2011-06-03T08:47:25Z</time>
      </trkpt>
      <trkpt lat="45.40738" lon="5.81874">
        <ele>1231</ele>
        <time>2011-06-03T08:47:30Z</time>
      </trkpt>
      <trkpt lat="45.40732" lon="5.81871">
        <ele>1232</ele>
        <time>2011-06-03T08:47:35Z</time>
      </trkpt>
      <trkpt lat="45.40728" lon="5.81869">
        <ele>1233</ele>
        <time>2011-06-03T08:47:41Z</time>
      </trkpt>
      <trkpt lat="45.40724" lon="5.81856">
        <ele>1232</ele>
        <time>2011-06-03T08:47:53Z</time>
      </trkpt>
      <trkpt lat="45.40723" lon="5.81852">
        <ele>1231</ele>
        <time>2011-06-03T08:47:57Z</time>
      </trkpt>
      <trkpt lat="45.40716" lon="5.81841">
        <ele>1233</ele>
        <time>2011-06-03T08:48:16Z</time>
      </trkpt>
      <trkpt lat="45.40713" lon="5.81834">
        <ele>1234</ele>
        <time>2011-06-03T08:48:28Z</time>
      </trkpt>
      <trkpt lat="45.40711" lon="5.8181">
        <ele>1225</ele>
        <time>2011-06-03T08:48:55Z</time>
      </trkpt>
      <trkpt lat="45.40711" lon="5.81808">
        <ele>1225</ele>
        <time>2011-06-03T08:48:56Z</time>
      </trkpt>
      <trkpt lat="45.40713" lon="5.81795">
        <ele>1224</ele>
        <time>2011-06-03T08:49:01Z</time>
      </trkpt>
      <trkpt lat="45.40713" lon="5.81789">
        <ele>1223</ele>
        <time>2011-06-03T08:49:06Z</time>
      </trkpt>
      <trkpt lat="45.40714" lon="5.81784">
        <ele>1223</ele>
        <time>2011-06-03T08:49:11Z</time>
      </trkpt>
      <trkpt lat="45.4071" lon="5.81771">
        <ele>1223</ele>
        <time>2011-06-03T08:49:22Z</time>
      </trkpt>
      <trkpt lat="45.40708" lon="5.8177">
        <ele>1224</ele>
        <time>2011-06-03T08:49:25Z</time>
      </trkpt>
      <trkpt lat="45.40705" lon="5.81769">
        <ele>1225</ele>
        <time>2011-06-03T08:49:29Z</time>
      </trkpt>
      <trkpt lat="45.40703" lon="5.81766">
        <ele>1225</ele>
        <time>2011-06-03T08:49:31Z</time>
      </trkpt>
      <trkpt lat="45.40703" lon="5.81759">
        <ele>1225</ele>
        <time>2011-06-03T08:49:34Z</time>
      </trkpt>
      <trkpt lat="45.40704" lon="5.81754">
        <ele>1225</ele>
        <time>2011-06-03T08:49:38Z</time>
      </trkpt>
      <trkpt lat="45.40698" lon="5.81736">
        <ele>1217</ele>
        <time>2011-06-03T08:49:51Z</time>
      </trkpt>
      <trkpt lat="45.40697" lon="5.81734">
        <ele>1217</ele>
        <time>2011-06-03T08:49:52Z</time>
      </trkpt>
      <trkpt lat="45.4069" lon="5.81725">
        <ele>1218</ele>
        <time>2011-06-03T08:49:58Z</time>
      </trkpt>
      <trkpt lat="45.40688" lon="5.81724">
        <ele>1218</ele>
        <time>2011-06-03T08:50:01Z</time>
      </trkpt>
      <trkpt lat="45.40687" lon="5.81724">
        <ele>1219</ele>
        <time>2011-06-03T08:50:03Z</time>
      </trkpt>
      <trkpt lat="45.40682" lon="5.81718">
        <ele>1218</ele>
        <time>2011-06-03T08:50:09Z</time>
      </trkpt>
      <trkpt lat="45.40681" lon="5.81718">
        <ele>1219</ele>
        <time>2011-06-03T08:50:10Z</time>
      </trkpt>
      <trkpt lat="45.40671" lon="5.81705">
        <ele>1217</ele>
        <time>2011-06-03T08:50:21Z</time>
      </trkpt>
      <trkpt lat="45.40669" lon="5.81704">
        <ele>1217</ele>
        <time>2011-06-03T08:50:23Z</time>
      </trkpt>
      <trkpt lat="45.40667" lon="5.81703">
        <ele>1237</ele>
        <time>2011-06-03T08:50:25Z</time>
      </trkpt>
      <trkpt lat="45.40664" lon="5.817">
        <ele>1236</ele>
        <time>2011-06-03T08:50:29Z</time>
      </trkpt>
      <trkpt lat="45.40657" lon="5.81698">
        <ele>1237</ele>
        <time>2011-06-03T08:50:36Z</time>
      </trkpt>
      <trkpt lat="45.40656" lon="5.81699">
        <ele>1237</ele>
        <time>2011-06-03T08:50:37Z</time>
      </trkpt>
      <trkpt lat="45.40652" lon="5.81698">
        <ele>1237</ele>
        <time>2011-06-03T08:50:41Z</time>
      </trkpt>
      <trkpt lat="45.40645" lon="5.81698">
        <ele>1239</ele>
        <time>2011-06-03T08:50:48Z</time>
      </trkpt>
      <trkpt lat="45.40643" lon="5.81699">
        <ele>1239</ele>
        <time>2011-06-03T08:50:50Z</time>
      </trkpt>
      <trkpt lat="45.40634" lon="5.817">
        <ele>1241</ele>
        <time>2011-06-03T08:50:57Z</time>
      </trkpt>
      <trkpt lat="45.40632" lon="5.81699">
        <ele>1241</ele>
        <time>2011-06-03T08:50:59Z</time>
      </trkpt>
      <trkpt lat="45.40625" lon="5.81697">
        <ele>1243</ele>
        <time>2011-06-03T08:51:06Z</time>
      </trkpt>
      <trkpt lat="45.40621" lon="5.81696">
        <ele>1243</ele>
        <time>2011-06-03T08:51:10Z</time>
      </trkpt>
      <trkpt lat="45.40616" lon="5.81696">
        <ele>1244</ele>
        <time>2011-06-03T08:51:17Z</time>
      </trkpt>
      <trkpt lat="45.40605" lon="5.81694">
        <ele>1245</ele>
        <time>2011-06-03T08:51:39Z</time>
      </trkpt>
      <trkpt lat="45.406" lon="5.81689">
        <ele>1245</ele>
        <time>2011-06-03T08:51:46Z</time>
      </trkpt>
      <trkpt lat="45.40598" lon="5.81688">
        <ele>1245</ele>
        <time>2011-06-03T08:51:48Z</time>
      </trkpt>
      <trkpt lat="45.40593" lon="5.81687">
        <ele>1245</ele>
        <time>2011-06-03T08:51:55Z</time>
      </trkpt>
      <trkpt lat="45.40584" lon="5.81685">
        <ele>1245</ele>
        <time>2011-06-03T08:52:38Z</time>
      </trkpt>
      <trkpt lat="45.40582" lon="5.81683">
        <ele>1260</ele>
        <time>2011-06-03T08:52:40Z</time>
      </trkpt>
      <trkpt lat="45.40578" lon="5.81681">
        <ele>1259</ele>
        <time>2011-06-03T08:52:44Z</time>
      </trkpt>
      <trkpt lat="45.40574" lon="5.81684">
        <ele>1263</ele>
        <time>2011-06-03T08:52:48Z</time>
      </trkpt>
      <trkpt lat="45.40569" lon="5.81684">
        <ele>1264</ele>
        <time>2011-06-03T08:52:54Z</time>
      </trkpt>
      <trkpt lat="45.40566" lon="5.81686">
        <ele>1266</ele>
        <time>2011-06-03T08:53:00Z</time>
      </trkpt>
      <trkpt lat="45.40556" lon="5.81683">
        <ele>1269</ele>
        <time>2011-06-03T08:53:15Z</time>
      </trkpt>
      <trkpt lat="45.40547" lon="5.81686">
        <ele>1273</ele>
        <time>2011-06-03T08:53:25Z</time>
      </trkpt>
      <trkpt lat="45.40546" lon="5.81685">
        <ele>1273</ele>
        <time>2011-06-03T08:53:27Z</time>
      </trkpt>
      <trkpt lat="45.40541" lon="5.8168">
        <ele>1273</ele>
        <time>2011-06-03T08:53:34Z</time>
      </trkpt>
      <trkpt lat="45.4054" lon="5.81679">
        <ele>1273</ele>
        <time>2011-06-03T08:53:36Z</time>
      </trkpt>
      <trkpt lat="45.40531" lon="5.81676">
        <ele>1275</ele>
        <time>2011-06-03T08:53:44Z</time>
      </trkpt>
      <trkpt lat="45.40523" lon="5.81669">
        <ele>1276</ele>
        <time>2011-06-03T08:54:10Z</time>
      </trkpt>
      <trkpt lat="45.40519" lon="5.81674">
        <ele>1277</ele>
        <time>2011-06-03T08:54:19Z</time>
      </trkpt>
      <trkpt lat="45.40516" lon="5.81676">
        <ele>1278</ele>
        <time>2011-06-03T08:54:23Z</time>
      </trkpt>
      <trkpt lat="45.40511" lon="5.81678">
        <ele>1278</ele>
        <time>2011-06-03T08:54:31Z</time>
      </trkpt>
      <trkpt lat="45.40507" lon="5.81663">
        <ele>1271</ele>
        <time>2011-06-03T08:54:56Z</time>
      </trkpt>
      <trkpt lat="45.40502" lon="5.81654">
        <ele>1267</ele>
        <time>2011-06-03T08:55:01Z</time>
      </trkpt>
      <trkpt lat="45.40493" lon="5.81652">
        <ele>1286</ele>
        <time>2011-06-03T08:55:13Z</time>
      </trkpt>
      <trkpt lat="45.40492" lon="5.81653">
        <ele>1287</ele>
        <time>2011-06-03T08:55:14Z</time>
      </trkpt>
      <trkpt lat="45.40489" lon="5.81652">
        <ele>1288</ele>
        <time>2011-06-03T08:55:19Z</time>
      </trkpt>
      <trkpt lat="45.40485" lon="5.81643">
        <ele>1290</ele>
        <time>2011-06-03T08:55:26Z</time>
      </trkpt>
      <trkpt lat="45.4048" lon="5.81635">
        <ele>1291</ele>
        <time>2011-06-03T08:55:34Z</time>
      </trkpt>
      <trkpt lat="45.4048" lon="5.81633">
        <ele>1291</ele>
        <time>2011-06-03T08:55:35Z</time>
      </trkpt>
      <trkpt lat="45.40478" lon="5.81627">
        <ele>1291</ele>
        <time>2011-06-03T08:55:40Z</time>
      </trkpt>
      <trkpt lat="45.40474" lon="5.8162">
        <ele>1292</ele>
        <time>2011-06-03T08:55:46Z</time>
      </trkpt>
      <trkpt lat="45.40471" lon="5.81613">
        <ele>1291</ele>
        <time>2011-06-03T08:55:55Z</time>
      </trkpt>
      <trkpt lat="45.4047" lon="5.81611">
        <ele>1291</ele>
        <time>2011-06-03T08:55:56Z</time>
      </trkpt>
      <trkpt lat="45.40458" lon="5.81596">
        <ele>1295</ele>
        <time>2011-06-03T08:56:20Z</time>
      </trkpt>
      <trkpt lat="45.40454" lon="5.81598">
        <ele>1296</ele>
        <time>2011-06-03T08:56:24Z</time>
      </trkpt>
      <trkpt lat="45.40451" lon="5.81598">
        <ele>1297</ele>
        <time>2011-06-03T08:56:28Z</time>
      </trkpt>
      <trkpt lat="45.40444" lon="5.81582">
        <ele>1291</ele>
        <time>2011-06-03T08:56:46Z</time>
      </trkpt>
      <trkpt lat="45.40435" lon="5.81559">
        <ele>1291</ele>
        <time>2011-06-03T08:57:04Z</time>
      </trkpt>
      <trkpt lat="45.40433" lon="5.81557">
        <ele>1291</ele>
        <time>2011-06-03T08:57:08Z</time>
      </trkpt>
      <trkpt lat="45.40425" lon="5.81545">
        <ele>1290</ele>
        <time>2011-06-03T08:57:21Z</time>
      </trkpt>
      <trkpt lat="45.40422" lon="5.8154">
        <ele>1289</ele>
        <time>2011-06-03T08:57:25Z</time>
      </trkpt>
      <trkpt lat="45.40422" lon="5.81538">
        <ele>1289</ele>
        <time>2011-06-03T08:57:26Z</time>
      </trkpt>
      <trkpt lat="45.40424" lon="5.81548">
        <ele>1291</ele>
        <time>2011-06-03T08:57:34Z</time>
      </trkpt>
      <trkpt lat="45.40427" lon="5.81567">
        <ele>1297</ele>
        <time>2011-06-03T08:57:57Z</time>
      </trkpt>
      <trkpt lat="45.40424" lon="5.81563">
        <ele>1295</ele>
        <time>2011-06-03T08:58:00Z</time>
      </trkpt>
      <trkpt lat="45.40421" lon="5.81556">
        <ele>1293</ele>
        <time>2011-06-03T08:58:05Z</time>
      </trkpt>
      <trkpt lat="45.40419" lon="5.81554">
        <ele>1293</ele>
        <time>2011-06-03T08:58:07Z</time>
      </trkpt>
      <trkpt lat="45.40414" lon="5.81555">
        <ele>1326</ele>
        <time>2011-06-03T08:58:33Z</time>
      </trkpt>
      <trkpt lat="45.40403" lon="5.8155">
        <ele>1328</ele>
        <time>2011-06-03T08:58:52Z</time>
      </trkpt>
      <trkpt lat="45.40405" lon="5.81549">
        <ele>1328</ele>
        <time>2011-06-03T08:59:12Z</time>
      </trkpt>
      <trkpt lat="45.40406" lon="5.81552">
        <ele>1328</ele>
        <time>2011-06-03T08:59:14Z</time>
      </trkpt>
      <trkpt lat="45.40407" lon="5.81554">
        <ele>1327</ele>
        <time>2011-06-03T08:59:15Z</time>
      </trkpt>
      <trkpt lat="45.40409" lon="5.81563">
        <ele>1326</ele>
        <time>2011-06-03T08:59:21Z</time>
      </trkpt>
      <trkpt lat="45.4041" lon="5.81569">
        <ele>1324</ele>
        <time>2011-06-03T08:59:29Z</time>
      </trkpt>
      <trkpt lat="45.40402" lon="5.81574">
        <ele>1326</ele>
        <time>2011-06-03T08:59:46Z</time>
      </trkpt>
      <trkpt lat="45.40406" lon="5.8156">
        <ele>1327</ele>
        <time>2011-06-03T09:01:48Z</time>
      </trkpt>
      <trkpt lat="45.40405" lon="5.81558">
        <ele>1328</ele>
        <time>2011-06-03T09:01:50Z</time>
      </trkpt>
      <trkpt lat="45.40402" lon="5.81539">
        <ele>1328</ele>
        <time>2011-06-03T09:02:17Z</time>
      </trkpt>
      <trkpt lat="45.40402" lon="5.81535">
        <ele>1327</ele>
        <time>2011-06-03T09:02:20Z</time>
      </trkpt>
      <trkpt lat="45.40402" lon="5.81518">
        <ele>1321</ele>
        <time>2011-06-03T09:02:35Z</time>
      </trkpt>
      <trkpt lat="45.40401" lon="5.81512">
        <ele>1319</ele>
        <time>2011-06-03T09:02:42Z</time>
      </trkpt>
      <trkpt lat="45.40398" lon="5.81507">
        <ele>1319</ele>
        <time>2011-06-03T09:02:46Z</time>
      </trkpt>
      <trkpt lat="45.40397" lon="5.81501">
        <ele>1319</ele>
        <time>2011-06-03T09:02:48Z</time>
      </trkpt>
      <trkpt lat="45.40394" lon="5.81498">
        <ele>1317</ele>
        <time>2011-06-03T09:02:50Z</time>
      </trkpt>
      <trkpt lat="45.40393" lon="5.81483">
        <ele>1320</ele>
        <time>2011-06-03T09:02:56Z</time>
      </trkpt>
      <trkpt lat="45.40396" lon="5.81469">
        <ele>1321</ele>
        <time>2011-06-03T09:03:03Z</time>
      </trkpt>
      <trkpt lat="45.40396" lon="5.81457">
        <ele>1322</ele>
        <time>2011-06-03T09:03:09Z</time>
      </trkpt>
      <trkpt lat="45.40394" lon="5.81444">
        <ele>1322</ele>
        <time>2011-06-03T09:03:16Z</time>
      </trkpt>
      <trkpt lat="45.40392" lon="5.81433">
        <ele>1321</ele>
        <time>2011-06-03T09:03:23Z</time>
      </trkpt>
      <trkpt lat="45.40387" lon="5.81421">
        <ele>1323</ele>
        <time>2011-06-03T09:03:31Z</time>
      </trkpt>
      <trkpt lat="45.40385" lon="5.81417">
        <ele>1324</ele>
        <time>2011-06-03T09:03:34Z</time>
      </trkpt>
      <trkpt lat="45.40385" lon="5.8141">
        <ele>1325</ele>
        <time>2011-06-03T09:03:40Z</time>
      </trkpt>
      <trkpt lat="45.40386" lon="5.81405">
        <ele>1325</ele>
        <time>2011-06-03T09:03:43Z</time>
      </trkpt>
      <trkpt lat="45.40389" lon="5.814">
        <ele>1324</ele>
        <time>2011-06-03T09:03:47Z</time>
      </trkpt>
      <trkpt lat="45.40388" lon="5.81399">
        <ele>1324</ele>
        <time>2011-06-03T09:03:48Z</time>
      </trkpt>
      <trkpt lat="45.40387" lon="5.81392">
        <ele>1326</ele>
        <time>2011-06-03T09:03:53Z</time>
      </trkpt>
      <trkpt lat="45.40386" lon="5.81387">
        <ele>1326</ele>
        <time>2011-06-03T09:03:56Z</time>
      </trkpt>
      <trkpt lat="45.40385" lon="5.81384">
        <ele>1327</ele>
        <time>2011-06-03T09:03:58Z</time>
      </trkpt>
      <trkpt lat="45.40378" lon="5.81373">
        <ele>1330</ele>
        <time>2011-06-03T09:04:07Z</time>
      </trkpt>
      <trkpt lat="45.40375" lon="5.81366">
        <ele>1331</ele>
        <time>2011-06-03T09:04:12Z</time>
      </trkpt>
      <trkpt lat="45.40372" lon="5.81365">
        <ele>1332</ele>
        <time>2011-06-03T09:04:14Z</time>
      </trkpt>
      <trkpt lat="45.4037" lon="5.8136">
        <ele>1333</ele>
        <time>2011-06-03T09:04:18Z</time>
      </trkpt>
      <trkpt lat="45.40368" lon="5.81353">
        <ele>1334</ele>
        <time>2011-06-03T09:04:23Z</time>
      </trkpt>
      <trkpt lat="45.40368" lon="5.81352">
        <ele>1334</ele>
        <time>2011-06-03T09:04:24Z</time>
      </trkpt>
      <trkpt lat="45.40367" lon="5.81349">
        <ele>1335</ele>
        <time>2011-06-03T09:04:26Z</time>
      </trkpt>
      <trkpt lat="45.40362" lon="5.81347">
        <ele>1337</ele>
        <time>2011-06-03T09:04:29Z</time>
      </trkpt>
      <trkpt lat="45.40358" lon="5.81342">
        <ele>1339</ele>
        <time>2011-06-03T09:04:33Z</time>
      </trkpt>
      <trkpt lat="45.40356" lon="5.81334">
        <ele>1341</ele>
        <time>2011-06-03T09:04:39Z</time>
      </trkpt>
      <trkpt lat="45.4036" lon="5.8132">
        <ele>1333</ele>
        <time>2011-06-03T09:04:51Z</time>
      </trkpt>
      <trkpt lat="45.40358" lon="5.81318">
        <ele>1334</ele>
        <time>2011-06-03T09:04:54Z</time>
      </trkpt>
      <trkpt lat="45.40355" lon="5.81313">
        <ele>1334</ele>
        <time>2011-06-03T09:05:00Z</time>
      </trkpt>
      <trkpt lat="45.40355" lon="5.81309">
        <ele>1333</ele>
        <time>2011-06-03T09:05:05Z</time>
      </trkpt>
      <trkpt lat="45.40352" lon="5.81306">
        <ele>1333</ele>
        <time>2011-06-03T09:05:08Z</time>
      </trkpt>
      <trkpt lat="45.40351" lon="5.81302">
        <ele>1332</ele>
        <time>2011-06-03T09:05:11Z</time>
      </trkpt>
      <trkpt lat="45.4035" lon="5.81299">
        <ele>1332</ele>
        <time>2011-06-03T09:05:14Z</time>
      </trkpt>
      <trkpt lat="45.40344" lon="5.81275">
        <ele>1332</ele>
        <time>2011-06-03T09:05:32Z</time>
      </trkpt>
      <trkpt lat="45.40332" lon="5.81256">
        <ele>1348</ele>
        <time>2011-06-03T09:05:48Z</time>
      </trkpt>
      <trkpt lat="45.4032" lon="5.81236">
        <ele>1337</ele>
        <time>2011-06-03T09:06:03Z</time>
      </trkpt>
      <trkpt lat="45.4032" lon="5.81234">
        <ele>1336</ele>
        <time>2011-06-03T09:06:04Z</time>
      </trkpt>
      <trkpt lat="45.40307" lon="5.81227">
        <ele>1335</ele>
        <time>2011-06-03T09:06:16Z</time>
      </trkpt>
      <trkpt lat="45.40305" lon="5.81227">
        <ele>1335</ele>
        <time>2011-06-03T09:06:18Z</time>
      </trkpt>
      <trkpt lat="45.40302" lon="5.81228">
        <ele>1336</ele>
        <time>2011-06-03T09:06:21Z</time>
      </trkpt>
      <trkpt lat="45.40296" lon="5.8123">
        <ele>1337</ele>
        <time>2011-06-03T09:06:25Z</time>
      </trkpt>
      <trkpt lat="45.40285" lon="5.81232">
        <ele>1339</ele>
        <time>2011-06-03T09:06:32Z</time>
      </trkpt>
      <trkpt lat="45.40278" lon="5.81234">
        <ele>1341</ele>
        <time>2011-06-03T09:06:36Z</time>
      </trkpt>
      <trkpt lat="45.40274" lon="5.81234">
        <ele>1342</ele>
        <time>2011-06-03T09:06:39Z</time>
      </trkpt>
      <trkpt lat="45.40267" lon="5.81235">
        <ele>1344</ele>
        <time>2011-06-03T09:06:44Z</time>
      </trkpt>
      <trkpt lat="45.40248" lon="5.81233">
        <ele>1356</ele>
        <time>2011-06-03T09:06:56Z</time>
      </trkpt>
      <trkpt lat="45.40229" lon="5.81231">
        <ele>1355</ele>
        <time>2011-06-03T09:07:07Z</time>
      </trkpt>
      <trkpt lat="45.40223" lon="5.81229">
        <ele>1355</ele>
        <time>2011-06-03T09:07:11Z</time>
      </trkpt>
      <trkpt lat="45.40218" lon="5.8123">
        <ele>1355</ele>
        <time>2011-06-03T09:07:16Z</time>
      </trkpt>
      <trkpt lat="45.4021" lon="5.81228">
        <ele>1355</ele>
        <time>2011-06-03T09:07:22Z</time>
      </trkpt>
      <trkpt lat="45.40193" lon="5.81233">
        <ele>1358</ele>
        <time>2011-06-03T09:07:35Z</time>
      </trkpt>
      <trkpt lat="45.40191" lon="5.81233">
        <ele>1359</ele>
        <time>2011-06-03T09:07:37Z</time>
      </trkpt>
      <trkpt lat="45.40187" lon="5.81233">
        <ele>1360</ele>
        <time>2011-06-03T09:07:39Z</time>
      </trkpt>
      <trkpt lat="45.40179" lon="5.81228">
        <ele>1360</ele>
        <time>2011-06-03T09:07:44Z</time>
      </trkpt>
      <trkpt lat="45.40174" lon="5.81226">
        <ele>1360</ele>
        <time>2011-06-03T09:07:48Z</time>
      </trkpt>
      <trkpt lat="45.40172" lon="5.81225">
        <ele>1360</ele>
        <time>2011-06-03T09:07:49Z</time>
      </trkpt>
      <trkpt lat="45.40154" lon="5.81217">
        <ele>1365</ele>
        <time>2011-06-03T09:08:01Z</time>
      </trkpt>
      <trkpt lat="45.40135" lon="5.8122">
        <ele>1366</ele>
        <time>2011-06-03T09:08:15Z</time>
      </trkpt>
      <trkpt lat="45.40116" lon="5.81226">
        <ele>1368</ele>
        <time>2011-06-03T09:08:31Z</time>
      </trkpt>
      <trkpt lat="45.40115" lon="5.81225">
        <ele>1368</ele>
        <time>2011-06-03T09:08:32Z</time>
      </trkpt>
      <trkpt lat="45.40111" lon="5.81226">
        <ele>1368</ele>
        <time>2011-06-03T09:08:38Z</time>
      </trkpt>
      <trkpt lat="45.40097" lon="5.81224">
        <ele>1370</ele>
        <time>2011-06-03T09:08:47Z</time>
      </trkpt>
      <trkpt lat="45.40088" lon="5.8122">
        <ele>1369</ele>
        <time>2011-06-03T09:08:54Z</time>
      </trkpt>
      <trkpt lat="45.40085" lon="5.8122">
        <ele>1369</ele>
        <time>2011-06-03T09:08:56Z</time>
      </trkpt>
      <trkpt lat="45.40079" lon="5.81213">
        <ele>1377</ele>
        <time>2011-06-03T09:09:02Z</time>
      </trkpt>
      <trkpt lat="45.40063" lon="5.81199">
        <ele>1376</ele>
        <time>2011-06-03T09:09:13Z</time>
      </trkpt>
      <trkpt lat="45.40059" lon="5.81197">
        <ele>1376</ele>
        <time>2011-06-03T09:09:16Z</time>
      </trkpt>
      <trkpt lat="45.40051" lon="5.81188">
        <ele>1376</ele>
        <time>2011-06-03T09:09:21Z</time>
      </trkpt>
      <trkpt lat="45.40049" lon="5.81182">
        <ele>1376</ele>
        <time>2011-06-03T09:09:24Z</time>
      </trkpt>
      <trkpt lat="45.40037" lon="5.81167">
        <ele>1376</ele>
        <time>2011-06-03T09:09:32Z</time>
      </trkpt>
      <trkpt lat="45.40036" lon="5.81164">
        <ele>1369</ele>
        <time>2011-06-03T09:09:34Z</time>
      </trkpt>
      <trkpt lat="45.40025" lon="5.81142">
        <ele>1369</ele>
        <time>2011-06-03T09:09:48Z</time>
      </trkpt>
      <trkpt lat="45.40014" lon="5.81122">
        <ele>1369</ele>
        <time>2011-06-03T09:09:59Z</time>
      </trkpt>
      <trkpt lat="45.4" lon="5.81112">
        <ele>1378</ele>
        <time>2011-06-03T09:10:12Z</time>
      </trkpt>
      <trkpt lat="45.39998" lon="5.81109">
        <ele>1378</ele>
        <time>2011-06-03T09:10:15Z</time>
      </trkpt>
      <trkpt lat="45.39996" lon="5.81105">
        <ele>1378</ele>
        <time>2011-06-03T09:10:17Z</time>
      </trkpt>
      <trkpt lat="45.39989" lon="5.81097">
        <ele>1377</ele>
        <time>2011-06-03T09:10:23Z</time>
      </trkpt>
      <trkpt lat="45.39984" lon="5.81093">
        <ele>1377</ele>
        <time>2011-06-03T09:10:27Z</time>
      </trkpt>
      <trkpt lat="45.39976" lon="5.81088">
        <ele>1379</ele>
        <time>2011-06-03T09:10:34Z</time>
      </trkpt>
      <trkpt lat="45.39966" lon="5.81086">
        <ele>1380</ele>
        <time>2011-06-03T09:10:40Z</time>
      </trkpt>
      <trkpt lat="45.39959" lon="5.81089">
        <ele>1381</ele>
        <time>2011-06-03T09:10:46Z</time>
      </trkpt>
      <trkpt lat="45.39947" lon="5.81091">
        <ele>1382</ele>
        <time>2011-06-03T09:10:57Z</time>
      </trkpt>
      <trkpt lat="45.39943" lon="5.81091">
        <ele>1383</ele>
        <time>2011-06-03T09:11:00Z</time>
      </trkpt>
      <trkpt lat="45.39928" lon="5.8109">
        <ele>1384</ele>
        <time>2011-06-03T09:11:16Z</time>
      </trkpt>
      <trkpt lat="45.3991" lon="5.81081">
        <ele>1387</ele>
        <time>2011-06-03T09:11:29Z</time>
      </trkpt>
      <trkpt lat="45.39892" lon="5.81089">
        <ele>1390</ele>
        <time>2011-06-03T09:11:55Z</time>
      </trkpt>
      <trkpt lat="45.39889" lon="5.8109">
        <ele>1391</ele>
        <time>2011-06-03T09:11:57Z</time>
      </trkpt>
      <trkpt lat="45.39891" lon="5.81095">
        <ele>1391</ele>
        <time>2011-06-03T09:12:40Z</time>
      </trkpt>
      <trkpt lat="45.39887" lon="5.81105">
        <ele>1391</ele>
        <time>2011-06-03T09:12:45Z</time>
      </trkpt>
      <trkpt lat="45.39869" lon="5.81118">
        <ele>1393</ele>
        <time>2011-06-03T09:12:58Z</time>
      </trkpt>
      <trkpt lat="45.39868" lon="5.81121">
        <ele>1393</ele>
        <time>2011-06-03T09:13:00Z</time>
      </trkpt>
      <trkpt lat="45.39863" lon="5.81128">
        <ele>1394</ele>
        <time>2011-06-03T09:13:04Z</time>
      </trkpt>
      <trkpt lat="45.39854" lon="5.81133">
        <ele>1394</ele>
        <time>2011-06-03T09:13:11Z</time>
      </trkpt>
      <trkpt lat="45.39846" lon="5.81131">
        <ele>1395</ele>
        <time>2011-06-03T09:13:16Z</time>
      </trkpt>
      <trkpt lat="45.39833" lon="5.81128">
        <ele>1395</ele>
        <time>2011-06-03T09:13:22Z</time>
      </trkpt>
      <trkpt lat="45.39829" lon="5.81125">
        <ele>1405</ele>
        <time>2011-06-03T09:13:25Z</time>
      </trkpt>
      <trkpt lat="45.3982" lon="5.8111">
        <ele>1403</ele>
        <time>2011-06-03T09:13:33Z</time>
      </trkpt>
      <trkpt lat="45.39808" lon="5.8109">
        <ele>1403</ele>
        <time>2011-06-03T09:13:46Z</time>
      </trkpt>
      <trkpt lat="45.39792" lon="5.81077">
        <ele>1401</ele>
        <time>2011-06-03T09:13:59Z</time>
      </trkpt>
      <trkpt lat="45.39785" lon="5.81071">
        <ele>1402</ele>
        <time>2011-06-03T09:14:07Z</time>
      </trkpt>
      <trkpt lat="45.39778" lon="5.81075">
        <ele>1403</ele>
        <time>2011-06-03T09:14:11Z</time>
      </trkpt>
      <trkpt lat="45.39775" lon="5.81073">
        <ele>1404</ele>
        <time>2011-06-03T09:14:13Z</time>
      </trkpt>
      <trkpt lat="45.39769" lon="5.81063">
        <ele>1404</ele>
        <time>2011-06-03T09:14:21Z</time>
      </trkpt>
      <trkpt lat="45.39762" lon="5.81061">
        <ele>1404</ele>
        <time>2011-06-03T09:14:27Z</time>
      </trkpt>
      <trkpt lat="45.39761" lon="5.81057">
        <ele>1404</ele>
        <time>2011-06-03T09:14:29Z</time>
      </trkpt>
      <trkpt lat="45.3976" lon="5.81053">
        <ele>1404</ele>
        <time>2011-06-03T09:14:31Z</time>
      </trkpt>
      <trkpt lat="45.39759" lon="5.81051">
        <ele>1404</ele>
        <time>2011-06-03T09:14:33Z</time>
      </trkpt>
      <trkpt lat="45.39746" lon="5.81043">
        <ele>1417</ele>
        <time>2011-06-03T09:14:53Z</time>
      </trkpt>
      <trkpt lat="45.39745" lon="5.81042">
        <ele>1417</ele>
        <time>2011-06-03T09:14:54Z</time>
      </trkpt>
      <trkpt lat="45.39724" lon="5.81043">
        <ele>1419</ele>
        <time>2011-06-03T09:15:07Z</time>
      </trkpt>
      <trkpt lat="45.39706" lon="5.81035">
        <ele>1421</ele>
        <time>2011-06-03T09:15:20Z</time>
      </trkpt>
      <trkpt lat="45.39703" lon="5.81032">
        <ele>1421</ele>
        <time>2011-06-03T09:15:24Z</time>
      </trkpt>
      <trkpt lat="45.39699" lon="5.81018">
        <ele>1422</ele>
        <time>2011-06-03T09:15:34Z</time>
      </trkpt>
      <trkpt lat="45.39695" lon="5.81014">
        <ele>1422</ele>
        <time>2011-06-03T09:15:39Z</time>
      </trkpt>
      <trkpt lat="45.39694" lon="5.81012">
        <ele>1423</ele>
        <time>2011-06-03T09:15:41Z</time>
      </trkpt>
      <trkpt lat="45.39678" lon="5.81005">
        <ele>1426</ele>
        <time>2011-06-03T09:15:56Z</time>
      </trkpt>
      <trkpt lat="45.39677" lon="5.81003">
        <ele>1426</ele>
        <time>2011-06-03T09:15:58Z</time>
      </trkpt>
      <trkpt lat="45.39675" lon="5.81001">
        <ele>1427</ele>
        <time>2011-06-03T09:16:01Z</time>
      </trkpt>
      <trkpt lat="45.39669" lon="5.80996">
        <ele>1429</ele>
        <time>2011-06-03T09:16:08Z</time>
      </trkpt>
      <trkpt lat="45.39661" lon="5.80999">
        <ele>1433</ele>
        <time>2011-06-03T09:16:14Z</time>
      </trkpt>
      <trkpt lat="45.39645" lon="5.80997">
        <ele>1438</ele>
        <time>2011-06-03T09:16:35Z</time>
      </trkpt>
      <trkpt lat="45.39643" lon="5.80996">
        <ele>1439</ele>
        <time>2011-06-03T09:16:36Z</time>
      </trkpt>
      <trkpt lat="45.39637" lon="5.80997">
        <ele>1440</ele>
        <time>2011-06-03T09:16:40Z</time>
      </trkpt>
      <trkpt lat="45.39633" lon="5.81002">
        <ele>1439</ele>
        <time>2011-06-03T09:16:42Z</time>
      </trkpt>
      <trkpt lat="45.39624" lon="5.81008">
        <ele>1441</ele>
        <time>2011-06-03T09:16:47Z</time>
      </trkpt>
      <trkpt lat="45.39611" lon="5.81014">
        <ele>1443</ele>
        <time>2011-06-03T09:16:57Z</time>
      </trkpt>
      <trkpt lat="45.39606" lon="5.81018">
        <ele>1443</ele>
        <time>2011-06-03T09:17:01Z</time>
      </trkpt>
      <trkpt lat="45.39604" lon="5.81019">
        <ele>1443</ele>
        <time>2011-06-03T09:17:02Z</time>
      </trkpt>
      <trkpt lat="45.39591" lon="5.81018">
        <ele>1445</ele>
        <time>2011-06-03T09:17:11Z</time>
      </trkpt>
      <trkpt lat="45.39588" lon="5.81015">
        <ele>1445</ele>
        <time>2011-06-03T09:17:15Z</time>
      </trkpt>
      <trkpt lat="45.39574" lon="5.80999">
        <ele>1450</ele>
        <time>2011-06-03T09:17:32Z</time>
      </trkpt>
      <trkpt lat="45.39573" lon="5.80997">
        <ele>1450</ele>
        <time>2011-06-03T09:17:33Z</time>
      </trkpt>
      <trkpt lat="45.39571" lon="5.80994">
        <ele>1451</ele>
        <time>2011-06-03T09:17:35Z</time>
      </trkpt>
      <trkpt lat="45.39564" lon="5.80976">
        <ele>1454</ele>
        <time>2011-06-03T09:17:44Z</time>
      </trkpt>
      <trkpt lat="45.39551" lon="5.80956">
        <ele>1455</ele>
        <time>2011-06-03T09:17:53Z</time>
      </trkpt>
      <trkpt lat="45.39542" lon="5.8095">
        <ele>1456</ele>
        <time>2011-06-03T09:17:59Z</time>
      </trkpt>
      <trkpt lat="45.39541" lon="5.80945">
        <ele>1456</ele>
        <time>2011-06-03T09:18:03Z</time>
      </trkpt>
      <trkpt lat="45.39539" lon="5.80938">
        <ele>1456</ele>
        <time>2011-06-03T09:18:10Z</time>
      </trkpt>
      <trkpt lat="45.39538" lon="5.80936">
        <ele>1456</ele>
        <time>2011-06-03T09:18:12Z</time>
      </trkpt>
      <trkpt lat="45.39531" lon="5.80923">
        <ele>1457</ele>
        <time>2011-06-03T09:18:23Z</time>
      </trkpt>
      <trkpt lat="45.39529" lon="5.80918">
        <ele>1457</ele>
        <time>2011-06-03T09:18:27Z</time>
      </trkpt>
      <trkpt lat="45.39526" lon="5.80911">
        <ele>1460</ele>
        <time>2011-06-03T09:18:32Z</time>
      </trkpt>
      <trkpt lat="45.39521" lon="5.80909">
        <ele>1460</ele>
        <time>2011-06-03T09:18:36Z</time>
      </trkpt>
      <trkpt lat="45.39515" lon="5.80904">
        <ele>1460</ele>
        <time>2011-06-03T09:18:40Z</time>
      </trkpt>
      <trkpt lat="45.39505" lon="5.80897">
        <ele>1461</ele>
        <time>2011-06-03T09:18:47Z</time>
      </trkpt>
      <trkpt lat="45.39505" lon="5.8089">
        <ele>1461</ele>
        <time>2011-06-03T09:18:51Z</time>
      </trkpt>
      <trkpt lat="45.39505" lon="5.80887">
        <ele>1461</ele>
        <time>2011-06-03T09:18:52Z</time>
      </trkpt>
      <trkpt lat="45.39502" lon="5.80871">
        <ele>1461</ele>
        <time>2011-06-03T09:19:07Z</time>
      </trkpt>
      <trkpt lat="45.39503" lon="5.80867">
        <ele>1462</ele>
        <time>2011-06-03T09:19:09Z</time>
      </trkpt>
      <trkpt lat="45.395" lon="5.80859">
        <ele>1462</ele>
        <time>2011-06-03T09:19:15Z</time>
      </trkpt>
      <trkpt lat="45.395" lon="5.80858">
        <ele>1465</ele>
        <time>2011-06-03T09:19:16Z</time>
      </trkpt>
      <trkpt lat="45.39497" lon="5.80841">
        <ele>1464</ele>
        <time>2011-06-03T09:19:31Z</time>
      </trkpt>
      <trkpt lat="45.39493" lon="5.80835">
        <ele>1464</ele>
        <time>2011-06-03T09:19:39Z</time>
      </trkpt>
      <trkpt lat="45.39474" lon="5.80831">
        <ele>1467</ele>
        <time>2011-06-03T09:19:47Z</time>
      </trkpt>
      <trkpt lat="45.39465" lon="5.80832">
        <ele>1468</ele>
        <time>2011-06-03T09:19:53Z</time>
      </trkpt>
      <trkpt lat="45.39461" lon="5.80836">
        <ele>1467</ele>
        <time>2011-06-03T09:19:57Z</time>
      </trkpt>
      <trkpt lat="45.3946" lon="5.80838">
        <ele>1467</ele>
        <time>2011-06-03T09:19:58Z</time>
      </trkpt>
      <trkpt lat="45.39459" lon="5.80844">
        <ele>1467</ele>
        <time>2011-06-03T09:20:02Z</time>
      </trkpt>
      <trkpt lat="45.39456" lon="5.80849">
        <ele>1467</ele>
        <time>2011-06-03T09:20:08Z</time>
      </trkpt>
      <trkpt lat="45.39451" lon="5.80852">
        <ele>1468</ele>
        <time>2011-06-03T09:20:12Z</time>
      </trkpt>
      <trkpt lat="45.39442" lon="5.80857">
        <ele>1468</ele>
        <time>2011-06-03T09:20:17Z</time>
      </trkpt>
      <trkpt lat="45.3944" lon="5.8086">
        <ele>1468</ele>
        <time>2011-06-03T09:20:20Z</time>
      </trkpt>
      <trkpt lat="45.39428" lon="5.80868">
        <ele>1469</ele>
        <time>2011-06-03T09:20:27Z</time>
      </trkpt>
      <trkpt lat="45.39425" lon="5.80869">
        <ele>1469</ele>
        <time>2011-06-03T09:20:31Z</time>
      </trkpt>
      <trkpt lat="45.39413" lon="5.80889">
        <ele>1478</ele>
        <time>2011-06-03T09:20:53Z</time>
      </trkpt>
      <trkpt lat="45.394" lon="5.80898">
        <ele>1478</ele>
        <time>2011-06-03T09:20:59Z</time>
      </trkpt>
      <trkpt lat="45.39396" lon="5.80902">
        <ele>1478</ele>
        <time>2011-06-03T09:21:01Z</time>
      </trkpt>
      <trkpt lat="45.39393" lon="5.80903">
        <ele>1478</ele>
        <time>2011-06-03T09:21:04Z</time>
      </trkpt>
      <trkpt lat="45.39382" lon="5.80911">
        <ele>1480</ele>
        <time>2011-06-03T09:21:12Z</time>
      </trkpt>
      <trkpt lat="45.39378" lon="5.80913">
        <ele>1481</ele>
        <time>2011-06-03T09:21:15Z</time>
      </trkpt>
      <trkpt lat="45.39373" lon="5.80916">
        <ele>1482</ele>
        <time>2011-06-03T09:21:19Z</time>
      </trkpt>
      <trkpt lat="45.39362" lon="5.80917">
        <ele>1484</ele>
        <time>2011-06-03T09:21:29Z</time>
      </trkpt>
      <trkpt lat="45.3936" lon="5.80917">
        <ele>1484</ele>
        <time>2011-06-03T09:21:31Z</time>
      </trkpt>
      <trkpt lat="45.39341" lon="5.80911">
        <ele>1487</ele>
        <time>2011-06-03T09:21:49Z</time>
      </trkpt>
      <trkpt lat="45.39337" lon="5.80902">
        <ele>1486</ele>
        <time>2011-06-03T09:21:58Z</time>
      </trkpt>
      <trkpt lat="45.39331" lon="5.80898">
        <ele>1497</ele>
        <time>2011-06-03T09:22:13Z</time>
      </trkpt>
      <trkpt lat="45.39329" lon="5.80895">
        <ele>1497</ele>
        <time>2011-06-03T09:22:16Z</time>
      </trkpt>
      <trkpt lat="45.39327" lon="5.80892">
        <ele>1498</ele>
        <time>2011-06-03T09:22:21Z</time>
      </trkpt>
      <trkpt lat="45.39317" lon="5.80888">
        <ele>1500</ele>
        <time>2011-06-03T09:22:33Z</time>
      </trkpt>
      <trkpt lat="45.39312" lon="5.8089">
        <ele>1500</ele>
        <time>2011-06-03T09:22:37Z</time>
      </trkpt>
      <trkpt lat="45.39308" lon="5.80896">
        <ele>1501</ele>
        <time>2011-06-03T09:22:42Z</time>
      </trkpt>
      <trkpt lat="45.39298" lon="5.80901">
        <ele>1502</ele>
        <time>2011-06-03T09:22:54Z</time>
      </trkpt>
      <trkpt lat="45.39292" lon="5.80901">
        <ele>1504</ele>
        <time>2011-06-03T09:23:03Z</time>
      </trkpt>
      <trkpt lat="45.39288" lon="5.809">
        <ele>1504</ele>
        <time>2011-06-03T09:23:07Z</time>
      </trkpt>
      <trkpt lat="45.39288" lon="5.80899">
        <ele>1504</ele>
        <time>2011-06-03T09:23:08Z</time>
      </trkpt>
      <trkpt lat="45.39282" lon="5.80897">
        <ele>1506</ele>
        <time>2011-06-03T09:23:22Z</time>
      </trkpt>
      <trkpt lat="45.39278" lon="5.80888">
        <ele>1506</ele>
        <time>2011-06-03T09:23:46Z</time>
      </trkpt>
      <trkpt lat="45.39271" lon="5.80884">
        <ele>1507</ele>
        <time>2011-06-03T09:23:52Z</time>
      </trkpt>
      <trkpt lat="45.39269" lon="5.80889">
        <ele>1508</ele>
        <time>2011-06-03T09:23:55Z</time>
      </trkpt>
      <trkpt lat="45.39267" lon="5.80895">
        <ele>1508</ele>
        <time>2011-06-03T09:23:58Z</time>
      </trkpt>
      <trkpt lat="45.39265" lon="5.809">
        <ele>1509</ele>
        <time>2011-06-03T09:24:02Z</time>
      </trkpt>
      <trkpt lat="45.39258" lon="5.80905">
        <ele>1511</ele>
        <time>2011-06-03T09:24:09Z</time>
      </trkpt>
      <trkpt lat="45.39255" lon="5.8091">
        <ele>1513</ele>
        <time>2011-06-03T09:24:13Z</time>
      </trkpt>
      <trkpt lat="45.39252" lon="5.80913">
        <ele>1514</ele>
        <time>2011-06-03T09:24:16Z</time>
      </trkpt>
      <trkpt lat="45.39248" lon="5.80921">
        <ele>1520</ele>
        <time>2011-06-03T09:24:24Z</time>
      </trkpt>
      <trkpt lat="45.39235" lon="5.80941">
        <ele>1529</ele>
        <time>2011-06-03T09:24:51Z</time>
      </trkpt>
      <trkpt lat="45.3924" lon="5.80935">
        <ele>1527</ele>
        <time>2011-06-03T09:24:59Z</time>
      </trkpt>
      <trkpt lat="45.39241" lon="5.80931">
        <ele>1525</ele>
        <time>2011-06-03T09:25:03Z</time>
      </trkpt>
      <trkpt lat="45.3924" lon="5.80927">
        <ele>1525</ele>
        <time>2011-06-03T09:25:06Z</time>
      </trkpt>
      <trkpt lat="45.39241" lon="5.80924">
        <ele>1523</ele>
        <time>2011-06-03T09:25:10Z</time>
      </trkpt>
      <trkpt lat="45.3924" lon="5.80912">
        <ele>1522</ele>
        <time>2011-06-03T09:25:21Z</time>
      </trkpt>
      <trkpt lat="45.39241" lon="5.80907">
        <ele>1523</ele>
        <time>2011-06-03T09:25:25Z</time>
      </trkpt>
      <trkpt lat="45.3924" lon="5.80904">
        <ele>1524</ele>
        <time>2011-06-03T09:25:26Z</time>
      </trkpt>
      <trkpt lat="45.39238" lon="5.80895">
        <ele>1526</ele>
        <time>2011-06-03T09:25:29Z</time>
      </trkpt>
      <trkpt lat="45.39239" lon="5.80884">
        <ele>1528</ele>
        <time>2011-06-03T09:25:35Z</time>
      </trkpt>
      <trkpt lat="45.39239" lon="5.80883">
        <ele>1528</ele>
        <time>2011-06-03T09:25:36Z</time>
      </trkpt>
      <trkpt lat="45.39241" lon="5.80879">
        <ele>1528</ele>
        <time>2011-06-03T09:25:39Z</time>
      </trkpt>
      <trkpt lat="45.39244" lon="5.80864">
        <ele>1527</ele>
        <time>2011-06-03T09:25:48Z</time>
      </trkpt>
      <trkpt lat="45.39244" lon="5.80854">
        <ele>1526</ele>
        <time>2011-06-03T09:25:56Z</time>
      </trkpt>
      <trkpt lat="45.39244" lon="5.80852">
        <ele>1525</ele>
        <time>2011-06-03T09:25:57Z</time>
      </trkpt>
      <trkpt lat="45.39243" lon="5.80845">
        <ele>1524</ele>
        <time>2011-06-03T09:26:02Z</time>
      </trkpt>
      <trkpt lat="45.39237" lon="5.80851">
        <ele>1526</ele>
        <time>2011-06-03T09:26:22Z</time>
      </trkpt>
      <trkpt lat="45.39228" lon="5.80864">
        <ele>1529</ele>
        <time>2011-06-03T09:26:36Z</time>
      </trkpt>
      <trkpt lat="45.39226" lon="5.80869">
        <ele>1530</ele>
        <time>2011-06-03T09:26:39Z</time>
      </trkpt>
      <trkpt lat="45.39224" lon="5.80871">
        <ele>1530</ele>
        <time>2011-06-03T09:26:40Z</time>
      </trkpt>
      <trkpt lat="45.39222" lon="5.80877">
        <ele>1531</ele>
        <time>2011-06-03T09:26:46Z</time>
      </trkpt>
      <trkpt lat="45.39217" lon="5.80885">
        <ele>1531</ele>
        <time>2011-06-03T09:26:50Z</time>
      </trkpt>
      <trkpt lat="45.39214" lon="5.80889">
        <ele>1532</ele>
        <time>2011-06-03T09:26:53Z</time>
      </trkpt>
      <trkpt lat="45.39213" lon="5.80891">
        <ele>1532</ele>
        <time>2011-06-03T09:26:54Z</time>
      </trkpt>
      <trkpt lat="45.3921" lon="5.80904">
        <ele>1533</ele>
        <time>2011-06-03T09:27:03Z</time>
      </trkpt>
      <trkpt lat="45.39207" lon="5.80912">
        <ele>1534</ele>
        <time>2011-06-03T09:27:08Z</time>
      </trkpt>
      <trkpt lat="45.39206" lon="5.80914">
        <ele>1534</ele>
        <time>2011-06-03T09:27:09Z</time>
      </trkpt>
      <trkpt lat="45.39199" lon="5.80929">
        <ele>1537</ele>
        <time>2011-06-03T09:27:20Z</time>
      </trkpt>
      <trkpt lat="45.39194" lon="5.80935">
        <ele>1538</ele>
        <time>2011-06-03T09:27:29Z</time>
      </trkpt>
      <trkpt lat="45.39182" lon="5.80927">
        <ele>1542</ele>
        <time>2011-06-03T09:27:47Z</time>
      </trkpt>
      <trkpt lat="45.39185" lon="5.80924">
        <ele>1541</ele>
        <time>2011-06-03T09:27:50Z</time>
      </trkpt>
      <trkpt lat="45.39185" lon="5.80922">
        <ele>1541</ele>
        <time>2011-06-03T09:27:51Z</time>
      </trkpt>
      <trkpt lat="45.39184" lon="5.80913">
        <ele>1541</ele>
        <time>2011-06-03T09:27:55Z</time>
      </trkpt>
      <trkpt lat="45.39186" lon="5.80904">
        <ele>1540</ele>
        <time>2011-06-03T09:28:00Z</time>
      </trkpt>
      <trkpt lat="45.39185" lon="5.809">
        <ele>1539</ele>
        <time>2011-06-03T09:28:02Z</time>
      </trkpt>
      <trkpt lat="45.39184" lon="5.80891">
        <ele>1538</ele>
        <time>2011-06-03T09:28:08Z</time>
      </trkpt>
      <trkpt lat="45.39183" lon="5.80888">
        <ele>1538</ele>
        <time>2011-06-03T09:28:11Z</time>
      </trkpt>
      <trkpt lat="45.39182" lon="5.80885">
        <ele>1538</ele>
        <time>2011-06-03T09:28:12Z</time>
      </trkpt>
      <trkpt lat="45.39181" lon="5.80885">
        <ele>1538</ele>
        <time>2011-06-03T09:28:13Z</time>
      </trkpt>
      <trkpt lat="45.39176" lon="5.80884">
        <ele>1539</ele>
        <time>2011-06-03T09:28:17Z</time>
      </trkpt>
      <trkpt lat="45.39169" lon="5.80883">
        <ele>1540</ele>
        <time>2011-06-03T09:28:23Z</time>
      </trkpt>
      <trkpt lat="45.39168" lon="5.8088">
        <ele>1540</ele>
        <time>2011-06-03T09:28:25Z</time>
      </trkpt>
      <trkpt lat="45.39164" lon="5.80877">
        <ele>1556</ele>
        <time>2011-06-03T09:28:27Z</time>
      </trkpt>
      <trkpt lat="45.39162" lon="5.80867">
        <ele>1556</ele>
        <time>2011-06-03T09:28:35Z</time>
      </trkpt>
      <trkpt lat="45.39157" lon="5.80866">
        <ele>1556</ele>
        <time>2011-06-03T09:28:41Z</time>
      </trkpt>
      <trkpt lat="45.39154" lon="5.80867">
        <ele>1557</ele>
        <time>2011-06-03T09:28:46Z</time>
      </trkpt>
      <trkpt lat="45.3915" lon="5.80866">
        <ele>1557</ele>
        <time>2011-06-03T09:28:53Z</time>
      </trkpt>
      <trkpt lat="45.39146" lon="5.80864">
        <ele>1557</ele>
        <time>2011-06-03T09:28:56Z</time>
      </trkpt>
      <trkpt lat="45.39139" lon="5.80846">
        <ele>1557</ele>
        <time>2011-06-03T09:29:03Z</time>
      </trkpt>
      <trkpt lat="45.39124" lon="5.80834">
        <ele>1560</ele>
        <time>2011-06-03T09:29:22Z</time>
      </trkpt>
      <trkpt lat="45.39121" lon="5.80828">
        <ele>1566</ele>
        <time>2011-06-03T09:29:26Z</time>
      </trkpt>
      <trkpt lat="45.39119" lon="5.80821">
        <ele>1567</ele>
        <time>2011-06-03T09:29:31Z</time>
      </trkpt>
      <trkpt lat="45.39115" lon="5.80815">
        <ele>1568</ele>
        <time>2011-06-03T09:29:39Z</time>
      </trkpt>
      <trkpt lat="45.39112" lon="5.80817">
        <ele>1568</ele>
        <time>2011-06-03T09:29:42Z</time>
      </trkpt>
      <trkpt lat="45.39102" lon="5.8083">
        <ele>1568</ele>
        <time>2011-06-03T09:29:53Z</time>
      </trkpt>
      <trkpt lat="45.39099" lon="5.80839">
        <ele>1564</ele>
        <time>2011-06-03T09:30:01Z</time>
      </trkpt>
      <trkpt lat="45.39099" lon="5.80841">
        <ele>1564</ele>
        <time>2011-06-03T09:30:02Z</time>
      </trkpt>
      <trkpt lat="45.3909" lon="5.80868">
        <ele>1563</ele>
        <time>2011-06-03T09:30:20Z</time>
      </trkpt>
      <trkpt lat="45.39088" lon="5.80871">
        <ele>1563</ele>
        <time>2011-06-03T09:30:22Z</time>
      </trkpt>
      <trkpt lat="45.39074" lon="5.80879">
        <ele>1577</ele>
        <time>2011-06-03T09:30:34Z</time>
      </trkpt>
      <trkpt lat="45.39073" lon="5.80879">
        <ele>1577</ele>
        <time>2011-06-03T09:30:35Z</time>
      </trkpt>
      <trkpt lat="45.3907" lon="5.80881">
        <ele>1577</ele>
        <time>2011-06-03T09:30:38Z</time>
      </trkpt>
      <trkpt lat="45.39062" lon="5.80886">
        <ele>1578</ele>
        <time>2011-06-03T09:30:44Z</time>
      </trkpt>
      <trkpt lat="45.39058" lon="5.80886">
        <ele>1578</ele>
        <time>2011-06-03T09:30:47Z</time>
      </trkpt>
      <trkpt lat="45.39055" lon="5.80889">
        <ele>1579</ele>
        <time>2011-06-03T09:30:50Z</time>
      </trkpt>
      <trkpt lat="45.3905" lon="5.80897">
        <ele>1580</ele>
        <time>2011-06-03T09:30:58Z</time>
      </trkpt>
      <trkpt lat="45.39048" lon="5.80903">
        <ele>1580</ele>
        <time>2011-06-03T09:31:04Z</time>
      </trkpt>
      <trkpt lat="45.39051" lon="5.80917">
        <ele>1581</ele>
        <time>2011-06-03T09:31:13Z</time>
      </trkpt>
      <trkpt lat="45.39052" lon="5.80919">
        <ele>1581</ele>
        <time>2011-06-03T09:31:14Z</time>
      </trkpt>
      <trkpt lat="45.39052" lon="5.80922">
        <ele>1581</ele>
        <time>2011-06-03T09:31:16Z</time>
      </trkpt>
      <trkpt lat="45.39051" lon="5.80934">
        <ele>1582</ele>
        <time>2011-06-03T09:31:23Z</time>
      </trkpt>
      <trkpt lat="45.39052" lon="5.80943">
        <ele>1583</ele>
        <time>2011-06-03T09:31:29Z</time>
      </trkpt>
      <trkpt lat="45.39052" lon="5.80945">
        <ele>1583</ele>
        <time>2011-06-03T09:31:30Z</time>
      </trkpt>
      <trkpt lat="45.39048" lon="5.80951">
        <ele>1584</ele>
        <time>2011-06-03T09:31:35Z</time>
      </trkpt>
      <trkpt lat="45.39048" lon="5.80962">
        <ele>1584</ele>
        <time>2011-06-03T09:31:41Z</time>
      </trkpt>
      <trkpt lat="45.39049" lon="5.80967">
        <ele>1584</ele>
        <time>2011-06-03T09:31:44Z</time>
      </trkpt>
      <trkpt lat="45.39049" lon="5.80971">
        <ele>1584</ele>
        <time>2011-06-03T09:31:46Z</time>
      </trkpt>
      <trkpt lat="45.3905" lon="5.80977">
        <ele>1584</ele>
        <time>2011-06-03T09:31:50Z</time>
      </trkpt>
      <trkpt lat="45.39054" lon="5.80995">
        <ele>1583</ele>
        <time>2011-06-03T09:32:04Z</time>
      </trkpt>
      <trkpt lat="45.39057" lon="5.80997">
        <ele>1583</ele>
        <time>2011-06-03T09:32:06Z</time>
      </trkpt>
      <trkpt lat="45.39063" lon="5.81002">
        <ele>1589</ele>
        <time>2011-06-03T09:32:10Z</time>
      </trkpt>
      <trkpt lat="45.39063" lon="5.81004">
        <ele>1590</ele>
        <time>2011-06-03T09:32:11Z</time>
      </trkpt>
      <trkpt lat="45.39064" lon="5.8101">
        <ele>1590</ele>
        <time>2011-06-03T09:32:16Z</time>
      </trkpt>
      <trkpt lat="45.39064" lon="5.81018">
        <ele>1592</ele>
        <time>2011-06-03T09:32:20Z</time>
      </trkpt>
      <trkpt lat="45.39073" lon="5.8103">
        <ele>1593</ele>
        <time>2011-06-03T09:32:32Z</time>
      </trkpt>
      <trkpt lat="45.39076" lon="5.81041">
        <ele>1594</ele>
        <time>2011-06-03T09:32:41Z</time>
      </trkpt>
      <trkpt lat="45.39076" lon="5.81048">
        <ele>1595</ele>
        <time>2011-06-03T09:32:46Z</time>
      </trkpt>
      <trkpt lat="45.39078" lon="5.81064">
        <ele>1594</ele>
        <time>2011-06-03T09:32:57Z</time>
      </trkpt>
      <trkpt lat="45.39079" lon="5.81073">
        <ele>1592</ele>
        <time>2011-06-03T09:33:02Z</time>
      </trkpt>
      <trkpt lat="45.39079" lon="5.81075">
        <ele>1592</ele>
        <time>2011-06-03T09:33:03Z</time>
      </trkpt>
      <trkpt lat="45.39079" lon="5.81078">
        <ele>1591</ele>
        <time>2011-06-03T09:33:05Z</time>
      </trkpt>
      <trkpt lat="45.39072" lon="5.81096">
        <ele>1615</ele>
        <time>2011-06-03T09:33:17Z</time>
      </trkpt>
      <trkpt lat="45.39072" lon="5.81098">
        <ele>1617</ele>
        <time>2011-06-03T09:33:19Z</time>
      </trkpt>
      <trkpt lat="45.39068" lon="5.81089">
        <ele>1614</ele>
        <time>2011-06-03T09:34:01Z</time>
      </trkpt>
      <trkpt lat="45.39069" lon="5.81081">
        <ele>1595</ele>
        <time>2011-06-03T09:34:07Z</time>
      </trkpt>
      <trkpt lat="45.39068" lon="5.81077">
        <ele>1595</ele>
        <time>2011-06-03T09:34:10Z</time>
      </trkpt>
      <trkpt lat="45.39068" lon="5.81073">
        <ele>1595</ele>
        <time>2011-06-03T09:34:14Z</time>
      </trkpt>
      <trkpt lat="45.39066" lon="5.81068">
        <ele>1596</ele>
        <time>2011-06-03T09:34:17Z</time>
      </trkpt>
      <trkpt lat="45.39065" lon="5.81066">
        <ele>1597</ele>
        <time>2011-06-03T09:34:20Z</time>
      </trkpt>
      <trkpt lat="45.39061" lon="5.81058">
        <ele>1598</ele>
        <time>2011-06-03T09:34:28Z</time>
      </trkpt>
      <trkpt lat="45.39043" lon="5.81056">
        <ele>1603</ele>
        <time>2011-06-03T09:34:49Z</time>
      </trkpt>
      <trkpt lat="45.39038" lon="5.81066">
        <ele>1606</ele>
        <time>2011-06-03T09:34:56Z</time>
      </trkpt>
      <trkpt lat="45.39029" lon="5.81065">
        <ele>1609</ele>
        <time>2011-06-03T09:35:03Z</time>
      </trkpt>
      <trkpt lat="45.39028" lon="5.81065">
        <ele>1610</ele>
        <time>2011-06-03T09:35:04Z</time>
      </trkpt>
      <trkpt lat="45.39023" lon="5.81064">
        <ele>1612</ele>
        <time>2011-06-03T09:35:10Z</time>
      </trkpt>
      <trkpt lat="45.39012" lon="5.81063">
        <ele>1616</ele>
        <time>2011-06-03T09:35:19Z</time>
      </trkpt>
      <trkpt lat="45.39011" lon="5.81062">
        <ele>1615</ele>
        <time>2011-06-03T09:35:20Z</time>
      </trkpt>
      <trkpt lat="45.39005" lon="5.81058">
        <ele>1615</ele>
        <time>2011-06-03T09:35:26Z</time>
      </trkpt>
      <trkpt lat="45.38989" lon="5.81046">
        <ele>1640</ele>
        <time>2011-06-03T09:35:42Z</time>
      </trkpt>
      <trkpt lat="45.38975" lon="5.81029">
        <ele>1638</ele>
        <time>2011-06-03T09:35:57Z</time>
      </trkpt>
      <trkpt lat="45.38974" lon="5.81027">
        <ele>1637</ele>
        <time>2011-06-03T09:35:59Z</time>
      </trkpt>
      <trkpt lat="45.38971" lon="5.81022">
        <ele>1636</ele>
        <time>2011-06-03T09:36:03Z</time>
      </trkpt>
      <trkpt lat="45.38968" lon="5.81017">
        <ele>1636</ele>
        <time>2011-06-03T09:36:08Z</time>
      </trkpt>
      <trkpt lat="45.38965" lon="5.81008">
        <ele>1635</ele>
        <time>2011-06-03T09:36:16Z</time>
      </trkpt>
      <trkpt lat="45.38969" lon="5.80985">
        <ele>1614</ele>
        <time>2011-06-03T09:36:32Z</time>
      </trkpt>
      <trkpt lat="45.38968" lon="5.8098">
        <ele>1615</ele>
        <time>2011-06-03T09:36:35Z</time>
      </trkpt>
      <trkpt lat="45.38958" lon="5.80958">
        <ele>1616</ele>
        <time>2011-06-03T09:36:51Z</time>
      </trkpt>
      <trkpt lat="45.3895" lon="5.80941">
        <ele>1617</ele>
        <time>2011-06-03T09:37:05Z</time>
      </trkpt>
      <trkpt lat="45.38949" lon="5.80938">
        <ele>1617</ele>
        <time>2011-06-03T09:37:08Z</time>
      </trkpt>
      <trkpt lat="45.38948" lon="5.80936">
        <ele>1618</ele>
        <time>2011-06-03T09:37:09Z</time>
      </trkpt>
      <trkpt lat="45.38946" lon="5.80928">
        <ele>1618</ele>
        <time>2011-06-03T09:37:14Z</time>
      </trkpt>
      <trkpt lat="45.38942" lon="5.80922">
        <ele>1619</ele>
        <time>2011-06-03T09:37:18Z</time>
      </trkpt>
      <trkpt lat="45.38939" lon="5.80919">
        <ele>1621</ele>
        <time>2011-06-03T09:37:21Z</time>
      </trkpt>
      <trkpt lat="45.38935" lon="5.80915">
        <ele>1619</ele>
        <time>2011-06-03T09:37:23Z</time>
      </trkpt>
      <trkpt lat="45.38927" lon="5.80914">
        <ele>1623</ele>
        <time>2011-06-03T09:37:30Z</time>
      </trkpt>
      <trkpt lat="45.38925" lon="5.80918">
        <ele>1626</ele>
        <time>2011-06-03T09:37:34Z</time>
      </trkpt>
      <trkpt lat="45.38924" lon="5.8092">
        <ele>1626</ele>
        <time>2011-06-03T09:37:36Z</time>
      </trkpt>
      <trkpt lat="45.38922" lon="5.80928">
        <ele>1625</ele>
        <time>2011-06-03T09:37:41Z</time>
      </trkpt>
      <trkpt lat="45.38919" lon="5.80934">
        <ele>1624</ele>
        <time>2011-06-03T09:37:45Z</time>
      </trkpt>
      <trkpt lat="45.38918" lon="5.80935">
        <ele>1624</ele>
        <time>2011-06-03T09:37:47Z</time>
      </trkpt>
      <trkpt lat="45.38912" lon="5.80932">
        <ele>1642</ele>
        <time>2011-06-03T09:37:55Z</time>
      </trkpt>
      <trkpt lat="45.38912" lon="5.80928">
        <ele>1641</ele>
        <time>2011-06-03T09:37:57Z</time>
      </trkpt>
      <trkpt lat="45.38912" lon="5.80918">
        <ele>1634</ele>
        <time>2011-06-03T09:38:03Z</time>
      </trkpt>
      <trkpt lat="45.38906" lon="5.80906">
        <ele>1637</ele>
        <time>2011-06-03T09:38:11Z</time>
      </trkpt>
      <trkpt lat="45.38895" lon="5.80894">
        <ele>1641</ele>
        <time>2011-06-03T09:38:26Z</time>
      </trkpt>
      <trkpt lat="45.38891" lon="5.80892">
        <ele>1642</ele>
        <time>2011-06-03T09:38:30Z</time>
      </trkpt>
      <trkpt lat="45.38877" lon="5.80878">
        <ele>1645</ele>
        <time>2011-06-03T09:38:44Z</time>
      </trkpt>
      <trkpt lat="45.38876" lon="5.80871">
        <ele>1645</ele>
        <time>2011-06-03T09:38:47Z</time>
      </trkpt>
      <trkpt lat="45.3888" lon="5.80853">
        <ele>1644</ele>
        <time>2011-06-03T09:38:58Z</time>
      </trkpt>
      <trkpt lat="45.38884" lon="5.80846">
        <ele>1643</ele>
        <time>2011-06-03T09:39:04Z</time>
      </trkpt>
      <trkpt lat="45.38884" lon="5.80841">
        <ele>1643</ele>
        <time>2011-06-03T09:39:08Z</time>
      </trkpt>
      <trkpt lat="45.38883" lon="5.80838">
        <ele>1643</ele>
        <time>2011-06-03T09:39:11Z</time>
      </trkpt>
      <trkpt lat="45.3888" lon="5.80829">
        <ele>1650</ele>
        <time>2011-06-03T09:39:19Z</time>
      </trkpt>
      <trkpt lat="45.3888" lon="5.80827">
        <ele>1650</ele>
        <time>2011-06-03T09:39:21Z</time>
      </trkpt>
      <trkpt lat="45.38882" lon="5.80813">
        <ele>1651</ele>
        <time>2011-06-03T09:39:33Z</time>
      </trkpt>
      <trkpt lat="45.38882" lon="5.80809">
        <ele>1652</ele>
        <time>2011-06-03T09:39:36Z</time>
      </trkpt>
      <trkpt lat="45.38884" lon="5.80803">
        <ele>1652</ele>
        <time>2011-06-03T09:39:40Z</time>
      </trkpt>
      <trkpt lat="45.38889" lon="5.80793">
        <ele>1653</ele>
        <time>2011-06-03T09:39:47Z</time>
      </trkpt>
      <trkpt lat="45.38889" lon="5.80791">
        <ele>1653</ele>
        <time>2011-06-03T09:39:48Z</time>
      </trkpt>
      <trkpt lat="45.3889" lon="5.80789">
        <ele>1653</ele>
        <time>2011-06-03T09:39:51Z</time>
      </trkpt>
      <trkpt lat="45.38892" lon="5.80781">
        <ele>1654</ele>
        <time>2011-06-03T09:39:57Z</time>
      </trkpt>
      <trkpt lat="45.38893" lon="5.80778">
        <ele>1654</ele>
        <time>2011-06-03T09:39:59Z</time>
      </trkpt>
      <trkpt lat="45.38904" lon="5.80763">
        <ele>1654</ele>
        <time>2011-06-03T09:40:12Z</time>
      </trkpt>
      <trkpt lat="45.38906" lon="5.80757">
        <ele>1653</ele>
        <time>2011-06-03T09:40:16Z</time>
      </trkpt>
      <trkpt lat="45.3892" lon="5.8074">
        <ele>1654</ele>
        <time>2011-06-03T09:40:29Z</time>
      </trkpt>
      <trkpt lat="45.38922" lon="5.80738">
        <ele>1655</ele>
        <time>2011-06-03T09:40:31Z</time>
      </trkpt>
      <trkpt lat="45.38919" lon="5.80729">
        <ele>1657</ele>
        <time>2011-06-03T09:40:49Z</time>
      </trkpt>
      <trkpt lat="45.38917" lon="5.80732">
        <ele>1656</ele>
        <time>2011-06-03T09:40:50Z</time>
      </trkpt>
      <trkpt lat="45.3891" lon="5.80737">
        <ele>1667</ele>
        <time>2011-06-03T09:40:57Z</time>
      </trkpt>
      <trkpt lat="45.38901" lon="5.80742">
        <ele>1669</ele>
        <time>2011-06-03T09:41:05Z</time>
      </trkpt>
      <trkpt lat="45.38893" lon="5.80739">
        <ele>1673</ele>
        <time>2011-06-03T09:41:12Z</time>
      </trkpt>
      <trkpt lat="45.38891" lon="5.80742">
        <ele>1674</ele>
        <time>2011-06-03T09:41:15Z</time>
      </trkpt>
      <trkpt lat="45.38885" lon="5.80749">
        <ele>1675</ele>
        <time>2011-06-03T09:41:25Z</time>
      </trkpt>
      <trkpt lat="45.38884" lon="5.8075">
        <ele>1675</ele>
        <time>2011-06-03T09:41:26Z</time>
      </trkpt>
      <trkpt lat="45.3888" lon="5.80753">
        <ele>1658</ele>
        <time>2011-06-03T09:41:33Z</time>
      </trkpt>
      <trkpt lat="45.38874" lon="5.80757">
        <ele>1659</ele>
        <time>2011-06-03T09:41:40Z</time>
      </trkpt>
      <trkpt lat="45.3887" lon="5.80764">
        <ele>1660</ele>
        <time>2011-06-03T09:41:46Z</time>
      </trkpt>
      <trkpt lat="45.38869" lon="5.80765">
        <ele>1660</ele>
        <time>2011-06-03T09:41:47Z</time>
      </trkpt>
      <trkpt lat="45.38858" lon="5.80785">
        <ele>1659</ele>
        <time>2011-06-03T09:42:04Z</time>
      </trkpt>
      <trkpt lat="45.38848" lon="5.808">
        <ele>1659</ele>
        <time>2011-06-03T09:42:24Z</time>
      </trkpt>
      <trkpt lat="45.38845" lon="5.80801">
        <ele>1659</ele>
        <time>2011-06-03T09:42:27Z</time>
      </trkpt>
      <trkpt lat="45.38834" lon="5.80806">
        <ele>1659</ele>
        <time>2011-06-03T09:42:38Z</time>
      </trkpt>
      <trkpt lat="45.38827" lon="5.8081">
        <ele>1678</ele>
        <time>2011-06-03T09:42:44Z</time>
      </trkpt>
      <trkpt lat="45.38821" lon="5.80813">
        <ele>1678</ele>
        <time>2011-06-03T09:42:49Z</time>
      </trkpt>
      <trkpt lat="45.38811" lon="5.80819">
        <ele>1681</ele>
        <time>2011-06-03T09:42:58Z</time>
      </trkpt>
      <trkpt lat="45.38809" lon="5.80821">
        <ele>1681</ele>
        <time>2011-06-03T09:43:00Z</time>
      </trkpt>
      <trkpt lat="45.38806" lon="5.80836">
        <ele>1676</ele>
        <time>2011-06-03T09:43:09Z</time>
      </trkpt>
      <trkpt lat="45.38805" lon="5.80837">
        <ele>1677</ele>
        <time>2011-06-03T09:43:12Z</time>
      </trkpt>
      <trkpt lat="45.388" lon="5.80836">
        <ele>1678</ele>
        <time>2011-06-03T09:43:25Z</time>
      </trkpt>
      <trkpt lat="45.38792" lon="5.80854">
        <ele>1681</ele>
        <time>2011-06-03T09:43:50Z</time>
      </trkpt>
      <trkpt lat="45.38791" lon="5.80856">
        <ele>1681</ele>
        <time>2011-06-03T09:43:52Z</time>
      </trkpt>
      <trkpt lat="45.38781" lon="5.80853">
        <ele>1685</ele>
        <time>2011-06-03T09:44:17Z</time>
      </trkpt>
      <trkpt lat="45.38767" lon="5.80855">
        <ele>1689</ele>
        <time>2011-06-03T09:44:46Z</time>
      </trkpt>
      <trkpt lat="45.38751" lon="5.80865">
        <ele>1690</ele>
        <time>2011-06-03T09:45:08Z</time>
      </trkpt>
      <trkpt lat="45.38733" lon="5.80867">
        <ele>1700</ele>
        <time>2011-06-03T09:45:29Z</time>
      </trkpt>
      <trkpt lat="45.38719" lon="5.80876">
        <ele>1699</ele>
        <time>2011-06-03T09:46:12Z</time>
      </trkpt>
      <trkpt lat="45.38713" lon="5.80899">
        <ele>1698</ele>
        <time>2011-06-03T09:46:58Z</time>
      </trkpt>
      <trkpt lat="45.38712" lon="5.80904">
        <ele>1698</ele>
        <time>2011-06-03T09:47:02Z</time>
      </trkpt>
      <trkpt lat="45.3871" lon="5.8091">
        <ele>1698</ele>
        <time>2011-06-03T09:47:07Z</time>
      </trkpt>
      <trkpt lat="45.38704" lon="5.80921">
        <ele>1706</ele>
        <time>2011-06-03T09:47:16Z</time>
      </trkpt>
      <trkpt lat="45.38697" lon="5.80945">
        <ele>1709</ele>
        <time>2011-06-03T09:47:38Z</time>
      </trkpt>
      <trkpt lat="45.38695" lon="5.8095">
        <ele>1710</ele>
        <time>2011-06-03T09:47:42Z</time>
      </trkpt>
      <trkpt lat="45.38693" lon="5.80952">
        <ele>1710</ele>
        <time>2011-06-03T09:47:45Z</time>
      </trkpt>
      <trkpt lat="45.38692" lon="5.80956">
        <ele>1711</ele>
        <time>2011-06-03T09:47:49Z</time>
      </trkpt>
      <trkpt lat="45.38689" lon="5.80963">
        <ele>1712</ele>
        <time>2011-06-03T09:47:56Z</time>
      </trkpt>
      <trkpt lat="45.38686" lon="5.80966">
        <ele>1712</ele>
        <time>2011-06-03T09:48:00Z</time>
      </trkpt>
      <trkpt lat="45.38675" lon="5.80985">
        <ele>1716</ele>
        <time>2011-06-03T09:48:22Z</time>
      </trkpt>
      <trkpt lat="45.38669" lon="5.80999">
        <ele>1719</ele>
        <time>2011-06-03T09:48:35Z</time>
      </trkpt>
      <trkpt lat="45.38668" lon="5.81002">
        <ele>1721</ele>
        <time>2011-06-03T09:48:37Z</time>
      </trkpt>
      <trkpt lat="45.38665" lon="5.81008">
        <ele>1723</ele>
        <time>2011-06-03T09:48:44Z</time>
      </trkpt>
      <trkpt lat="45.38655" lon="5.81024">
        <ele>1727</ele>
        <time>2011-06-03T09:49:04Z</time>
      </trkpt>
      <trkpt lat="45.38652" lon="5.81026">
        <ele>1727</ele>
        <time>2011-06-03T09:49:07Z</time>
      </trkpt>
      <trkpt lat="45.38652" lon="5.81026">
        <ele>1728</ele>
        <time>2011-06-03T09:49:08Z</time>
      </trkpt>
      <trkpt lat="45.38651" lon="5.81027">
        <ele>1728</ele>
        <time>2011-06-03T09:49:09Z</time>
      </trkpt>
      <trkpt lat="45.3864" lon="5.81044">
        <ele>1730</ele>
        <time>2011-06-03T09:49:36Z</time>
      </trkpt>
      <trkpt lat="45.38635" lon="5.81053">
        <ele>1731</ele>
        <time>2011-06-03T09:49:47Z</time>
      </trkpt>
      <trkpt lat="45.38629" lon="5.81063">
        <ele>1731</ele>
        <time>2011-06-03T09:50:00Z</time>
      </trkpt>
      <trkpt lat="45.38626" lon="5.81069">
        <ele>1731</ele>
        <time>2011-06-03T09:50:05Z</time>
      </trkpt>
      <trkpt lat="45.38618" lon="5.81082">
        <ele>1731</ele>
        <time>2011-06-03T09:50:15Z</time>
      </trkpt>
      <trkpt lat="45.38616" lon="5.81083">
        <ele>1731</ele>
        <time>2011-06-03T09:50:16Z</time>
      </trkpt>
      <trkpt lat="45.38611" lon="5.81092">
        <ele>1728</ele>
        <time>2011-06-03T09:50:23Z</time>
      </trkpt>
      <trkpt lat="45.38607" lon="5.81102">
        <ele>1727</ele>
        <time>2011-06-03T09:50:30Z</time>
      </trkpt>
      <trkpt lat="45.38601" lon="5.8111">
        <ele>1727</ele>
        <time>2011-06-03T09:50:45Z</time>
      </trkpt>
      <trkpt lat="45.38594" lon="5.81118">
        <ele>1725</ele>
        <time>2011-06-03T09:50:57Z</time>
      </trkpt>
      <trkpt lat="45.38585" lon="5.81133">
        <ele>1723</ele>
        <time>2011-06-03T09:51:15Z</time>
      </trkpt>
      <trkpt lat="45.38584" lon="5.81136">
        <ele>1722</ele>
        <time>2011-06-03T09:51:18Z</time>
      </trkpt>
      <trkpt lat="45.38583" lon="5.81137">
        <ele>1721</ele>
        <time>2011-06-03T09:51:19Z</time>
      </trkpt>
      <trkpt lat="45.38579" lon="5.81142">
        <ele>1720</ele>
        <time>2011-06-03T09:51:25Z</time>
      </trkpt>
      <trkpt lat="45.38577" lon="5.81146">
        <ele>1719</ele>
        <time>2011-06-03T09:51:29Z</time>
      </trkpt>
      <trkpt lat="45.38572" lon="5.81152">
        <ele>1718</ele>
        <time>2011-06-03T09:51:35Z</time>
      </trkpt>
      <trkpt lat="45.38571" lon="5.81155">
        <ele>1717</ele>
        <time>2011-06-03T09:51:38Z</time>
      </trkpt>
      <trkpt lat="45.3857" lon="5.81159">
        <ele>1717</ele>
        <time>2011-06-03T09:51:41Z</time>
      </trkpt>
      <trkpt lat="45.38565" lon="5.81177">
        <ele>1707</ele>
        <time>2011-06-03T09:51:57Z</time>
      </trkpt>
      <trkpt lat="45.38558" lon="5.81183">
        <ele>1706</ele>
        <time>2011-06-03T09:52:06Z</time>
      </trkpt>
      <trkpt lat="45.38554" lon="5.8119">
        <ele>1705</ele>
        <time>2011-06-03T09:52:10Z</time>
      </trkpt>
      <trkpt lat="45.38552" lon="5.81191">
        <ele>1705</ele>
        <time>2011-06-03T09:52:12Z</time>
      </trkpt>
      <trkpt lat="45.38549" lon="5.81193">
        <ele>1704</ele>
        <time>2011-06-03T09:52:15Z</time>
      </trkpt>
      <trkpt lat="45.38534" lon="5.81199">
        <ele>1704</ele>
        <time>2011-06-03T09:52:25Z</time>
      </trkpt>
      <trkpt lat="45.38527" lon="5.81202">
        <ele>1703</ele>
        <time>2011-06-03T09:52:30Z</time>
      </trkpt>
      <trkpt lat="45.38524" lon="5.81209">
        <ele>1702</ele>
        <time>2011-06-03T09:52:34Z</time>
      </trkpt>
      <trkpt lat="45.38522" lon="5.81212">
        <ele>1702</ele>
        <time>2011-06-03T09:52:36Z</time>
      </trkpt>
      <trkpt lat="45.3852" lon="5.81213">
        <ele>1702</ele>
        <time>2011-06-03T09:52:37Z</time>
      </trkpt>
      <trkpt lat="45.38512" lon="5.81217">
        <ele>1701</ele>
        <time>2011-06-03T09:52:44Z</time>
      </trkpt>
      <trkpt lat="45.38502" lon="5.81217">
        <ele>1701</ele>
        <time>2011-06-03T09:52:51Z</time>
      </trkpt>
      <trkpt lat="45.38494" lon="5.81217">
        <ele>1695</ele>
        <time>2011-06-03T09:52:59Z</time>
      </trkpt>
      <trkpt lat="45.38491" lon="5.81224">
        <ele>1694</ele>
        <time>2011-06-03T09:53:03Z</time>
      </trkpt>
      <trkpt lat="45.38487" lon="5.81226">
        <ele>1694</ele>
        <time>2011-06-03T09:53:06Z</time>
      </trkpt>
      <trkpt lat="45.38484" lon="5.81225">
        <ele>1694</ele>
        <time>2011-06-03T09:53:08Z</time>
      </trkpt>
      <trkpt lat="45.38483" lon="5.81223">
        <ele>1694</ele>
        <time>2011-06-03T09:53:09Z</time>
      </trkpt>
      <trkpt lat="45.38473" lon="5.81232">
        <ele>1693</ele>
        <time>2011-06-03T09:53:21Z</time>
      </trkpt>
      <trkpt lat="45.38471" lon="5.81234">
        <ele>1693</ele>
        <time>2011-06-03T09:53:23Z</time>
      </trkpt>
      <trkpt lat="45.38471" lon="5.81235">
        <ele>1693</ele>
        <time>2011-06-03T09:53:24Z</time>
      </trkpt>
      <trkpt lat="45.38471" lon="5.81242">
        <ele>1692</ele>
        <time>2011-06-03T09:53:28Z</time>
      </trkpt>
      <trkpt lat="45.3847" lon="5.8125">
        <ele>1692</ele>
        <time>2011-06-03T09:53:33Z</time>
      </trkpt>
      <trkpt lat="45.38466" lon="5.81246">
        <ele>1692</ele>
        <time>2011-06-03T09:53:37Z</time>
      </trkpt>
      <trkpt lat="45.38464" lon="5.81245">
        <ele>1692</ele>
        <time>2011-06-03T09:53:39Z</time>
      </trkpt>
      <trkpt lat="45.3845" lon="5.81249">
        <ele>1689</ele>
        <time>2011-06-03T09:53:55Z</time>
      </trkpt>
      <trkpt lat="45.38446" lon="5.81253">
        <ele>1678</ele>
        <time>2011-06-03T09:53:59Z</time>
      </trkpt>
      <trkpt lat="45.38442" lon="5.81272">
        <ele>1676</ele>
        <time>2011-06-03T09:54:11Z</time>
      </trkpt>
      <trkpt lat="45.38441" lon="5.81299">
        <ele>1673</ele>
        <time>2011-06-03T09:54:24Z</time>
      </trkpt>
      <trkpt lat="45.38439" lon="5.81326">
        <ele>1669</ele>
        <time>2011-06-03T09:54:37Z</time>
      </trkpt>
      <trkpt lat="45.3844" lon="5.81332">
        <ele>1668</ele>
        <time>2011-06-03T09:54:40Z</time>
      </trkpt>
      <trkpt lat="45.3844" lon="5.81345">
        <ele>1659</ele>
        <time>2011-06-03T09:54:47Z</time>
      </trkpt>
      <trkpt lat="45.38441" lon="5.81351">
        <ele>1659</ele>
        <time>2011-06-03T09:54:50Z</time>
      </trkpt>
      <trkpt lat="45.38446" lon="5.81377">
        <ele>1658</ele>
        <time>2011-06-03T09:55:02Z</time>
      </trkpt>
      <trkpt lat="45.38448" lon="5.81385">
        <ele>1658</ele>
        <time>2011-06-03T09:55:06Z</time>
      </trkpt>
      <trkpt lat="45.38454" lon="5.81401">
        <ele>1657</ele>
        <time>2011-06-03T09:55:14Z</time>
      </trkpt>
      <trkpt lat="45.38451" lon="5.81426">
        <ele>1655</ele>
        <time>2011-06-03T09:55:27Z</time>
      </trkpt>
      <trkpt lat="45.38439" lon="5.81442">
        <ele>1656</ele>
        <time>2011-06-03T09:56:47Z</time>
      </trkpt>
      <trkpt lat="45.38429" lon="5.8146">
        <ele>1659</ele>
        <time>2011-06-03T09:57:23Z</time>
      </trkpt>
      <trkpt lat="45.38413" lon="5.81473">
        <ele>1674</ele>
        <time>2011-06-03T09:57:46Z</time>
      </trkpt>
      <trkpt lat="45.38396" lon="5.8148">
        <ele>1676</ele>
        <time>2011-06-03T09:58:12Z</time>
      </trkpt>
      <trkpt lat="45.38381" lon="5.81472">
        <ele>1677</ele>
        <time>2011-06-03T09:58:32Z</time>
      </trkpt>
      <trkpt lat="45.3838" lon="5.8147">
        <ele>1677</ele>
        <time>2011-06-03T09:58:34Z</time>
      </trkpt>
      <trkpt lat="45.38364" lon="5.81456">
        <ele>1676</ele>
        <time>2011-06-03T09:58:54Z</time>
      </trkpt>
      <trkpt lat="45.38351" lon="5.81451">
        <ele>1676</ele>
        <time>2011-06-03T09:59:07Z</time>
      </trkpt>
      <trkpt lat="45.38347" lon="5.81451">
        <ele>1676</ele>
        <time>2011-06-03T09:59:10Z</time>
      </trkpt>
      <trkpt lat="45.38346" lon="5.8145">
        <ele>1676</ele>
        <time>2011-06-03T09:59:11Z</time>
      </trkpt>
      <trkpt lat="45.38331" lon="5.81441">
        <ele>1687</ele>
        <time>2011-06-03T09:59:23Z</time>
      </trkpt>
      <trkpt lat="45.38313" lon="5.81435">
        <ele>1688</ele>
        <time>2011-06-03T09:59:39Z</time>
      </trkpt>
      <trkpt lat="45.38307" lon="5.81435">
        <ele>1690</ele>
        <time>2011-06-03T09:59:45Z</time>
      </trkpt>
      <trkpt lat="45.38295" lon="5.81434">
        <ele>1692</ele>
        <time>2011-06-03T09:59:56Z</time>
      </trkpt>
      <trkpt lat="45.38281" lon="5.81416">
        <ele>1673</ele>
        <time>2011-06-03T10:00:08Z</time>
      </trkpt>
      <trkpt lat="45.38265" lon="5.81404">
        <ele>1676</ele>
        <time>2011-06-03T10:00:26Z</time>
      </trkpt>
      <trkpt lat="45.38249" lon="5.81391">
        <ele>1683</ele>
        <time>2011-06-03T10:00:45Z</time>
      </trkpt>
      <trkpt lat="45.38232" lon="5.8139">
        <ele>1683</ele>
        <time>2011-06-03T10:01:01Z</time>
      </trkpt>
      <trkpt lat="45.38226" lon="5.81395">
        <ele>1684</ele>
        <time>2011-06-03T10:01:09Z</time>
      </trkpt>
      <trkpt lat="45.38224" lon="5.81396">
        <ele>1684</ele>
        <time>2011-06-03T10:01:12Z</time>
      </trkpt>
      <trkpt lat="45.38216" lon="5.814">
        <ele>1684</ele>
        <time>2011-06-03T10:01:28Z</time>
      </trkpt>
      <trkpt lat="45.38199" lon="5.81395">
        <ele>1685</ele>
        <time>2011-06-03T10:01:59Z</time>
      </trkpt>
      <trkpt lat="45.38184" lon="5.81397">
        <ele>1687</ele>
        <time>2011-06-03T10:02:36Z</time>
      </trkpt>
      <trkpt lat="45.38176" lon="5.81411">
        <ele>1690</ele>
        <time>2011-06-03T10:03:03Z</time>
      </trkpt>
      <trkpt lat="45.3817" lon="5.81426">
        <ele>1698</ele>
        <time>2011-06-03T10:03:36Z</time>
      </trkpt>
      <trkpt lat="45.38169" lon="5.8144">
        <ele>1703</ele>
        <time>2011-06-03T10:04:23Z</time>
      </trkpt>
      <trkpt lat="45.38169" lon="5.8146">
        <ele>1709</ele>
        <time>2011-06-03T10:05:20Z</time>
      </trkpt>
      <trkpt lat="45.38167" lon="5.81462">
        <ele>1709</ele>
        <time>2011-06-03T10:05:22Z</time>
      </trkpt>
      <trkpt lat="45.38158" lon="5.81456">
        <ele>1701</ele>
        <time>2011-06-03T10:05:33Z</time>
      </trkpt>
      <trkpt lat="45.38152" lon="5.81454">
        <ele>1701</ele>
        <time>2011-06-03T10:05:39Z</time>
      </trkpt>
      <trkpt lat="45.38151" lon="5.81455">
        <ele>1701</ele>
        <time>2011-06-03T10:05:40Z</time>
      </trkpt>
      <trkpt lat="45.3815" lon="5.81455">
        <ele>1701</ele>
        <time>2011-06-03T10:05:41Z</time>
      </trkpt>
      <trkpt lat="45.38142" lon="5.81456">
        <ele>1700</ele>
        <time>2011-06-03T10:05:47Z</time>
      </trkpt>
      <trkpt lat="45.38134" lon="5.81454">
        <ele>1700</ele>
        <time>2011-06-03T10:05:58Z</time>
      </trkpt>
      <trkpt lat="45.3813" lon="5.81449">
        <ele>1699</ele>
        <time>2011-06-03T10:06:02Z</time>
      </trkpt>
      <trkpt lat="45.38123" lon="5.81449">
        <ele>1698</ele>
        <time>2011-06-03T10:06:16Z</time>
      </trkpt>
      <trkpt lat="45.38119" lon="5.81446">
        <ele>1698</ele>
        <time>2011-06-03T10:06:20Z</time>
      </trkpt>
      <trkpt lat="45.38117" lon="5.81444">
        <ele>1698</ele>
        <time>2011-06-03T10:06:22Z</time>
      </trkpt>
      <trkpt lat="45.381" lon="5.81442">
        <ele>1696</ele>
        <time>2011-06-03T10:06:52Z</time>
      </trkpt>
      <trkpt lat="45.38092" lon="5.81449">
        <ele>1696</ele>
        <time>2011-06-03T10:07:15Z</time>
      </trkpt>
      <trkpt lat="45.38085" lon="5.81448">
        <ele>1696</ele>
        <time>2011-06-03T10:07:25Z</time>
      </trkpt>
      <trkpt lat="45.38069" lon="5.81445">
        <ele>1717</ele>
        <time>2011-06-03T10:07:56Z</time>
      </trkpt>
      <trkpt lat="45.38052" lon="5.81445">
        <ele>1724</ele>
        <time>2011-06-03T10:08:26Z</time>
      </trkpt>
      <trkpt lat="45.38048" lon="5.81447">
        <ele>1726</ele>
        <time>2011-06-03T10:08:31Z</time>
      </trkpt>
      <trkpt lat="45.38044" lon="5.81449">
        <ele>1728</ele>
        <time>2011-06-03T10:08:35Z</time>
      </trkpt>
      <trkpt lat="45.38039" lon="5.81447">
        <ele>1730</ele>
        <time>2011-06-03T10:08:39Z</time>
      </trkpt>
      <trkpt lat="45.38035" lon="5.81446">
        <ele>1731</ele>
        <time>2011-06-03T10:08:42Z</time>
      </trkpt>
      <trkpt lat="45.38021" lon="5.81446">
        <ele>1736</ele>
        <time>2011-06-03T10:08:51Z</time>
      </trkpt>
      <trkpt lat="45.38016" lon="5.81444">
        <ele>1737</ele>
        <time>2011-06-03T10:08:54Z</time>
      </trkpt>
      <trkpt lat="45.38002" lon="5.81434">
        <ele>1737</ele>
        <time>2011-06-03T10:09:13Z</time>
      </trkpt>
      <trkpt lat="45.37993" lon="5.81441">
        <ele>1770</ele>
        <time>2011-06-03T10:09:24Z</time>
      </trkpt>
      <trkpt lat="45.37984" lon="5.81437">
        <ele>1770</ele>
        <time>2011-06-03T10:09:30Z</time>
      </trkpt>
      <trkpt lat="45.37983" lon="5.81435">
        <ele>1771</ele>
        <time>2011-06-03T10:09:32Z</time>
      </trkpt>
      <trkpt lat="45.37982" lon="5.81435">
        <ele>1771</ele>
        <time>2011-06-03T10:09:33Z</time>
      </trkpt>
      <trkpt lat="45.37976" lon="5.81434">
        <ele>1773</ele>
        <time>2011-06-03T10:09:39Z</time>
      </trkpt>
      <trkpt lat="45.37969" lon="5.81434">
        <ele>1777</ele>
        <time>2011-06-03T10:09:51Z</time>
      </trkpt>
      <trkpt lat="45.37968" lon="5.81436">
        <ele>1778</ele>
        <time>2011-06-03T10:09:56Z</time>
      </trkpt>
      <trkpt lat="45.37967" lon="5.81443">
        <ele>1781</ele>
        <time>2011-06-03T10:10:04Z</time>
      </trkpt>
      <trkpt lat="45.3796" lon="5.81451">
        <ele>1785</ele>
        <time>2011-06-03T10:10:16Z</time>
      </trkpt>
      <trkpt lat="45.37962" lon="5.8145">
        <ele>1784</ele>
        <time>2011-06-03T10:10:20Z</time>
      </trkpt>
      <trkpt lat="45.37954" lon="5.81439">
        <ele>1785</ele>
        <time>2011-06-03T10:10:36Z</time>
      </trkpt>
      <trkpt lat="45.37948" lon="5.81431">
        <ele>1786</ele>
        <time>2011-06-03T10:10:48Z</time>
      </trkpt>
      <trkpt lat="45.37947" lon="5.81431">
        <ele>1787</ele>
        <time>2011-06-03T10:10:50Z</time>
      </trkpt>
      <trkpt lat="45.37947" lon="5.81425">
        <ele>1787</ele>
        <time>2011-06-03T10:11:05Z</time>
      </trkpt>
      <trkpt lat="45.3793" lon="5.81422">
        <ele>1794</ele>
        <time>2011-06-03T10:11:22Z</time>
      </trkpt>
      <trkpt lat="45.37922" lon="5.81422">
        <ele>1798</ele>
        <time>2011-06-03T10:11:40Z</time>
      </trkpt>
      <trkpt lat="45.37924" lon="5.81423">
        <ele>1797</ele>
        <time>2011-06-03T10:11:43Z</time>
      </trkpt>
      <trkpt lat="45.37924" lon="5.81419">
        <ele>1798</ele>
        <time>2011-06-03T10:11:50Z</time>
      </trkpt>
      <trkpt lat="45.37923" lon="5.81418">
        <ele>1798</ele>
        <time>2011-06-03T10:11:51Z</time>
      </trkpt>
      <trkpt lat="45.37908" lon="5.81414">
        <ele>1778</ele>
        <time>2011-06-03T10:12:24Z</time>
      </trkpt>
      <trkpt lat="45.37892" lon="5.81415">
        <ele>1757</ele>
        <time>2011-06-03T10:12:53Z</time>
      </trkpt>
      <trkpt lat="45.37876" lon="5.81413">
        <ele>1750</ele>
        <time>2011-06-03T10:13:07Z</time>
      </trkpt>
      <trkpt lat="45.37874" lon="5.81412">
        <ele>1750</ele>
        <time>2011-06-03T10:13:09Z</time>
      </trkpt>
      <trkpt lat="45.37873" lon="5.81412">
        <ele>1750</ele>
        <time>2011-06-03T10:13:11Z</time>
      </trkpt>
      <trkpt lat="45.37867" lon="5.81409">
        <ele>1749</ele>
        <time>2011-06-03T10:13:19Z</time>
      </trkpt>
      <trkpt lat="45.37861" lon="5.81407">
        <ele>1751</ele>
        <time>2011-06-03T10:13:28Z</time>
      </trkpt>
      <trkpt lat="45.37857" lon="5.81406">
        <ele>1753</ele>
        <time>2011-06-03T10:13:34Z</time>
      </trkpt>
      <trkpt lat="45.3784" lon="5.81405">
        <ele>1768</ele>
        <time>2011-06-03T10:14:05Z</time>
      </trkpt>
      <trkpt lat="45.37835" lon="5.81405">
        <ele>1771</ele>
        <time>2011-06-03T10:14:10Z</time>
      </trkpt>
      <trkpt lat="45.37834" lon="5.81405">
        <ele>1771</ele>
        <time>2011-06-03T10:14:12Z</time>
      </trkpt>
      <trkpt lat="45.37821" lon="5.81402">
        <ele>1766</ele>
        <time>2011-06-03T10:14:24Z</time>
      </trkpt>
      <trkpt lat="45.37816" lon="5.814">
        <ele>1761</ele>
        <time>2011-06-03T10:14:32Z</time>
      </trkpt>
      <trkpt lat="45.37807" lon="5.81392">
        <ele>1752</ele>
        <time>2011-06-03T10:14:54Z</time>
      </trkpt>
      <trkpt lat="45.37799" lon="5.81389">
        <ele>1749</ele>
        <time>2011-06-03T10:15:44Z</time>
      </trkpt>
      <trkpt lat="45.37777" lon="5.81381">
        <ele>1748</ele>
        <time>2011-06-03T10:16:04Z</time>
      </trkpt>
      <trkpt lat="45.37771" lon="5.81381">
        <ele>1749</ele>
        <time>2011-06-03T10:16:08Z</time>
      </trkpt>
      <trkpt lat="45.37758" lon="5.81379">
        <ele>1750</ele>
        <time>2011-06-03T10:16:25Z</time>
      </trkpt>
      <trkpt lat="45.37756" lon="5.8138">
        <ele>1751</ele>
        <time>2011-06-03T10:16:27Z</time>
      </trkpt>
      <trkpt lat="45.3775" lon="5.81381">
        <ele>1752</ele>
        <time>2011-06-03T10:16:35Z</time>
      </trkpt>
      <trkpt lat="45.37744" lon="5.81377">
        <ele>1767</ele>
        <time>2011-06-03T10:16:43Z</time>
      </trkpt>
      <trkpt lat="45.3774" lon="5.81375">
        <ele>1766</ele>
        <time>2011-06-03T10:16:49Z</time>
      </trkpt>
      <trkpt lat="45.37731" lon="5.81375">
        <ele>1766</ele>
        <time>2011-06-03T10:17:04Z</time>
      </trkpt>
      <trkpt lat="45.37723" lon="5.81372">
        <ele>1765</ele>
        <time>2011-06-03T10:17:22Z</time>
      </trkpt>
      <trkpt lat="45.37721" lon="5.81368">
        <ele>1764</ele>
        <time>2011-06-03T10:17:33Z</time>
      </trkpt>
      <trkpt lat="45.3773" lon="5.81358">
        <ele>1756</ele>
        <time>2011-06-03T10:18:23Z</time>
      </trkpt>
      <trkpt lat="45.37713" lon="5.81353">
        <ele>1759</ele>
        <time>2011-06-03T10:18:56Z</time>
      </trkpt>
      <trkpt lat="45.37697" lon="5.81342">
        <ele>1760</ele>
        <time>2011-06-03T10:19:30Z</time>
      </trkpt>
      <trkpt lat="45.3768" lon="5.81339">
        <ele>1760</ele>
        <time>2011-06-03T10:20:09Z</time>
      </trkpt>
      <trkpt lat="45.37662" lon="5.81345">
        <ele>1770</ele>
        <time>2011-06-03T10:20:36Z</time>
      </trkpt>
      <trkpt lat="45.37644" lon="5.81345">
        <ele>1780</ele>
        <time>2011-06-03T10:20:54Z</time>
      </trkpt>
      <trkpt lat="45.37634" lon="5.81344">
        <ele>1784</ele>
        <time>2011-06-03T10:21:04Z</time>
      </trkpt>
      <trkpt lat="45.37627" lon="5.81343">
        <ele>1787</ele>
        <time>2011-06-03T10:21:12Z</time>
      </trkpt>
      <trkpt lat="45.37625" lon="5.81342">
        <ele>1787</ele>
        <time>2011-06-03T10:21:14Z</time>
      </trkpt>
      <trkpt lat="45.37614" lon="5.81336">
        <ele>1791</ele>
        <time>2011-06-03T10:21:26Z</time>
      </trkpt>
      <trkpt lat="45.37608" lon="5.81334">
        <ele>1793</ele>
        <time>2011-06-03T10:21:33Z</time>
      </trkpt>
      <trkpt lat="45.37603" lon="5.8133">
        <ele>1769</ele>
        <time>2011-06-03T10:21:41Z</time>
      </trkpt>
      <trkpt lat="45.37598" lon="5.81328">
        <ele>1774</ele>
        <time>2011-06-03T10:21:52Z</time>
      </trkpt>
      <trkpt lat="45.37595" lon="5.81327">
        <ele>1776</ele>
        <time>2011-06-03T10:21:54Z</time>
      </trkpt>
      <trkpt lat="45.37594" lon="5.81329">
        <ele>1780</ele>
        <time>2011-06-03T10:22:06Z</time>
      </trkpt>
      <trkpt lat="45.37594" lon="5.8133">
        <ele>1780</ele>
        <time>2011-06-03T10:22:15Z</time>
      </trkpt>
      <trkpt lat="45.3759" lon="5.81334">
        <ele>1799</ele>
        <time>2011-06-03T10:22:21Z</time>
      </trkpt>
      <trkpt lat="45.37588" lon="5.81336">
        <ele>1800</ele>
        <time>2011-06-03T10:22:26Z</time>
      </trkpt>
      <trkpt lat="45.37579" lon="5.81336">
        <ele>1803</ele>
        <time>2011-06-03T10:22:45Z</time>
      </trkpt>
      <trkpt lat="45.37561" lon="5.81337">
        <ele>1804</ele>
        <time>2011-06-03T10:23:24Z</time>
      </trkpt>
      <trkpt lat="45.37544" lon="5.81331">
        <ele>1789</ele>
        <time>2011-06-03T10:23:41Z</time>
      </trkpt>
      <trkpt lat="45.37528" lon="5.81325">
        <ele>1789</ele>
        <time>2011-06-03T10:23:54Z</time>
      </trkpt>
      <trkpt lat="45.37527" lon="5.81325">
        <ele>1789</ele>
        <time>2011-06-03T10:23:55Z</time>
      </trkpt>
      <trkpt lat="45.37522" lon="5.81325">
        <ele>1790</ele>
        <time>2011-06-03T10:24:00Z</time>
      </trkpt>
      <trkpt lat="45.37509" lon="5.81324">
        <ele>1793</ele>
        <time>2011-06-03T10:24:12Z</time>
      </trkpt>
      <trkpt lat="45.37491" lon="5.81323">
        <ele>1804</ele>
        <time>2011-06-03T10:24:27Z</time>
      </trkpt>
      <trkpt lat="45.37474" lon="5.81321">
        <ele>1808</ele>
        <time>2011-06-03T10:24:41Z</time>
      </trkpt>
      <trkpt lat="45.37455" lon="5.81321">
        <ele>1812</ele>
        <time>2011-06-03T10:24:56Z</time>
      </trkpt>
      <trkpt lat="45.37437" lon="5.81324">
        <ele>1815</ele>
        <time>2011-06-03T10:25:11Z</time>
      </trkpt>
      <trkpt lat="45.37422" lon="5.81324">
        <ele>1818</ele>
        <time>2011-06-03T10:25:24Z</time>
      </trkpt>
      <trkpt lat="45.37419" lon="5.81325">
        <ele>1818</ele>
        <time>2011-06-03T10:25:27Z</time>
      </trkpt>
      <trkpt lat="45.37409" lon="5.81326">
        <ele>1825</ele>
        <time>2011-06-03T10:25:35Z</time>
      </trkpt>
      <trkpt lat="45.374" lon="5.81327">
        <ele>1827</ele>
        <time>2011-06-03T10:25:42Z</time>
      </trkpt>
      <trkpt lat="45.37394" lon="5.81328">
        <ele>1828</ele>
        <time>2011-06-03T10:25:48Z</time>
      </trkpt>
      <trkpt lat="45.37382" lon="5.81327">
        <ele>1830</ele>
        <time>2011-06-03T10:25:58Z</time>
      </trkpt>
      <trkpt lat="45.37363" lon="5.8133">
        <ele>1833</ele>
        <time>2011-06-03T10:26:13Z</time>
      </trkpt>
      <trkpt lat="45.37345" lon="5.81329">
        <ele>1836</ele>
        <time>2011-06-03T10:26:26Z</time>
      </trkpt>
      <trkpt lat="45.37327" lon="5.81333">
        <ele>1841</ele>
        <time>2011-06-03T10:26:40Z</time>
      </trkpt>
      <trkpt lat="45.37309" lon="5.81341">
        <ele>1843</ele>
        <time>2011-06-03T10:26:57Z</time>
      </trkpt>
      <trkpt lat="45.37291" lon="5.81338">
        <ele>1847</ele>
        <time>2011-06-03T10:27:14Z</time>
      </trkpt>
      <trkpt lat="45.37282" lon="5.81337">
        <ele>1850</ele>
        <time>2011-06-03T10:27:23Z</time>
      </trkpt>
      <trkpt lat="45.37277" lon="5.81335">
        <ele>1851</ele>
        <time>2011-06-03T10:27:30Z</time>
      </trkpt>
      <trkpt lat="45.37273" lon="5.81337">
        <ele>1852</ele>
        <time>2011-06-03T10:27:34Z</time>
      </trkpt>
      <trkpt lat="45.37257" lon="5.81327">
        <ele>1859</ele>
        <time>2011-06-03T10:28:02Z</time>
      </trkpt>
      <trkpt lat="45.37247" lon="5.8131">
        <ele>1862</ele>
        <time>2011-06-03T10:28:29Z</time>
      </trkpt>
      <trkpt lat="45.37233" lon="5.81296">
        <ele>1860</ele>
        <time>2011-06-03T10:28:57Z</time>
      </trkpt>
      <trkpt lat="45.37216" lon="5.81289">
        <ele>1860</ele>
        <time>2011-06-03T10:29:22Z</time>
      </trkpt>
      <trkpt lat="45.37199" lon="5.81281">
        <ele>1862</ele>
        <time>2011-06-03T10:29:45Z</time>
      </trkpt>
      <trkpt lat="45.37181" lon="5.81276">
        <ele>1863</ele>
        <time>2011-06-03T10:30:03Z</time>
      </trkpt>
      <trkpt lat="45.37179" lon="5.81273">
        <ele>1863</ele>
        <time>2011-06-03T10:30:06Z</time>
      </trkpt>
      <trkpt lat="45.37177" lon="5.81271">
        <ele>1864</ele>
        <time>2011-06-03T10:30:10Z</time>
      </trkpt>
      <trkpt lat="45.3718" lon="5.81257">
        <ele>1864</ele>
        <time>2011-06-03T10:30:24Z</time>
      </trkpt>
      <trkpt lat="45.37179" lon="5.81255">
        <ele>1865</ele>
        <time>2011-06-03T10:30:25Z</time>
      </trkpt>
      <trkpt lat="45.37176" lon="5.81251">
        <ele>1866</ele>
        <time>2011-06-03T10:30:30Z</time>
      </trkpt>
      <trkpt lat="45.37164" lon="5.81242">
        <ele>1858</ele>
        <time>2011-06-03T10:30:42Z</time>
      </trkpt>
      <trkpt lat="45.37146" lon="5.81237">
        <ele>1847</ele>
        <time>2011-06-03T10:30:59Z</time>
      </trkpt>
      <trkpt lat="45.3713" lon="5.81228">
        <ele>1841</ele>
        <time>2011-06-03T10:31:15Z</time>
      </trkpt>
      <trkpt lat="45.37129" lon="5.81225">
        <ele>1840</ele>
        <time>2011-06-03T10:31:17Z</time>
      </trkpt>
      <trkpt lat="45.37127" lon="5.81217">
        <ele>1838</ele>
        <time>2011-06-03T10:31:22Z</time>
      </trkpt>
      <trkpt lat="45.37125" lon="5.81209">
        <ele>1835</ele>
        <time>2011-06-03T10:31:28Z</time>
      </trkpt>
      <trkpt lat="45.37122" lon="5.81207">
        <ele>1834</ele>
        <time>2011-06-03T10:31:31Z</time>
      </trkpt>
      <trkpt lat="45.37121" lon="5.81206">
        <ele>1834</ele>
        <time>2011-06-03T10:31:32Z</time>
      </trkpt>
      <trkpt lat="45.3711" lon="5.81205">
        <ele>1833</ele>
        <time>2011-06-03T10:31:43Z</time>
      </trkpt>
      <trkpt lat="45.37104" lon="5.81205">
        <ele>1833</ele>
        <time>2011-06-03T10:31:48Z</time>
      </trkpt>
      <trkpt lat="45.37103" lon="5.81205">
        <ele>1833</ele>
        <time>2011-06-03T10:31:49Z</time>
      </trkpt>
      <trkpt lat="45.37093" lon="5.81205">
        <ele>1832</ele>
        <time>2011-06-03T10:31:58Z</time>
      </trkpt>
      <trkpt lat="45.37086" lon="5.81205">
        <ele>1832</ele>
        <time>2011-06-03T10:32:05Z</time>
      </trkpt>
      <trkpt lat="45.37085" lon="5.81205">
        <ele>1832</ele>
        <time>2011-06-03T10:32:06Z</time>
      </trkpt>
      <trkpt lat="45.37071" lon="5.81207">
        <ele>1830</ele>
        <time>2011-06-03T10:32:22Z</time>
      </trkpt>
      <trkpt lat="45.37068" lon="5.81209">
        <ele>1830</ele>
        <time>2011-06-03T10:32:50Z</time>
      </trkpt>
      <trkpt lat="45.37051" lon="5.81205">
        <ele>1829</ele>
        <time>2011-06-03T10:33:24Z</time>
      </trkpt>
      <trkpt lat="45.37037" lon="5.81209">
        <ele>1830</ele>
        <time>2011-06-03T10:35:00Z</time>
      </trkpt>
      <trkpt lat="45.37028" lon="5.81203">
        <ele>1830</ele>
        <time>2011-06-03T10:36:12Z</time>
      </trkpt>
      <trkpt lat="45.37027" lon="5.81201">
        <ele>1829</ele>
        <time>2011-06-03T10:39:53Z</time>
      </trkpt>
      <trkpt lat="45.37025" lon="5.812">
        <ele>1829</ele>
        <time>2011-06-03T10:47:17Z</time>
      </trkpt>
      <trkpt lat="45.37026" lon="5.81203">
        <ele>1830</ele>
        <time>2011-06-03T10:54:31Z</time>
      </trkpt>
      <trkpt lat="45.37027" lon="5.81211">
        <ele>1830</ele>
        <time>2011-06-03T10:56:58Z</time>
      </trkpt>
      <trkpt lat="45.37043" lon="5.81211">
        <ele>1830</ele>
        <time>2011-06-03T10:57:38Z</time>
      </trkpt>
      <trkpt lat="45.37058" lon="5.81209">
        <ele>1830</ele>
        <time>2011-06-03T10:57:58Z</time>
      </trkpt>
      <trkpt lat="45.3706" lon="5.81209">
        <ele>1830</ele>
        <time>2011-06-03T10:58:00Z</time>
      </trkpt>
      <trkpt lat="45.37064" lon="5.81208">
        <ele>1830</ele>
        <time>2011-06-03T10:58:03Z</time>
      </trkpt>
      <trkpt lat="45.37068" lon="5.81209">
        <ele>1830</ele>
        <time>2011-06-03T10:58:06Z</time>
      </trkpt>
      <trkpt lat="45.37073" lon="5.81209">
        <ele>1830</ele>
        <time>2011-06-03T10:58:11Z</time>
      </trkpt>
      <trkpt lat="45.37079" lon="5.81209">
        <ele>1830</ele>
        <time>2011-06-03T10:58:15Z</time>
      </trkpt>
      <trkpt lat="45.37097" lon="5.81206">
        <ele>1833</ele>
        <time>2011-06-03T10:58:27Z</time>
      </trkpt>
      <trkpt lat="45.37106" lon="5.81204">
        <ele>1833</ele>
        <time>2011-06-03T10:58:33Z</time>
      </trkpt>
      <trkpt lat="45.37116" lon="5.81206">
        <ele>1834</ele>
        <time>2011-06-03T10:58:40Z</time>
      </trkpt>
      <trkpt lat="45.37118" lon="5.81206">
        <ele>1834</ele>
        <time>2011-06-03T10:58:41Z</time>
      </trkpt>
      <trkpt lat="45.37124" lon="5.81211">
        <ele>1835</ele>
        <time>2011-06-03T10:58:45Z</time>
      </trkpt>
      <trkpt lat="45.37127" lon="5.81221">
        <ele>1838</ele>
        <time>2011-06-03T10:58:50Z</time>
      </trkpt>
      <trkpt lat="45.37128" lon="5.81223">
        <ele>1839</ele>
        <time>2011-06-03T10:58:51Z</time>
      </trkpt>
      <trkpt lat="45.37129" lon="5.81232">
        <ele>1842</ele>
        <time>2011-06-03T10:58:56Z</time>
      </trkpt>
      <trkpt lat="45.37139" lon="5.81237">
        <ele>1845</ele>
        <time>2011-06-03T10:59:02Z</time>
      </trkpt>
      <trkpt lat="45.37141" lon="5.81237">
        <ele>1845</ele>
        <time>2011-06-03T10:59:03Z</time>
      </trkpt>
      <trkpt lat="45.37159" lon="5.81241">
        <ele>1856</ele>
        <time>2011-06-03T10:59:14Z</time>
      </trkpt>
      <trkpt lat="45.37176" lon="5.81254">
        <ele>1865</ele>
        <time>2011-06-03T10:59:26Z</time>
      </trkpt>
      <trkpt lat="45.3718" lon="5.8126">
        <ele>1864</ele>
        <time>2011-06-03T10:59:31Z</time>
      </trkpt>
      <trkpt lat="45.37186" lon="5.81263">
        <ele>1863</ele>
        <time>2011-06-03T10:59:35Z</time>
      </trkpt>
      <trkpt lat="45.37191" lon="5.81269">
        <ele>1862</ele>
        <time>2011-06-03T10:59:39Z</time>
      </trkpt>
      <trkpt lat="45.37198" lon="5.8128">
        <ele>1862</ele>
        <time>2011-06-03T10:59:48Z</time>
      </trkpt>
      <trkpt lat="45.37199" lon="5.8128">
        <ele>1861</ele>
        <time>2011-06-03T10:59:49Z</time>
      </trkpt>
      <trkpt lat="45.37205" lon="5.81282">
        <ele>1861</ele>
        <time>2011-06-03T10:59:52Z</time>
      </trkpt>
      <trkpt lat="45.37221" lon="5.81291">
        <ele>1860</ele>
        <time>2011-06-03T11:00:03Z</time>
      </trkpt>
      <trkpt lat="45.37231" lon="5.81298">
        <ele>1860</ele>
        <time>2011-06-03T11:00:10Z</time>
      </trkpt>
      <trkpt lat="45.37237" lon="5.81303">
        <ele>1861</ele>
        <time>2011-06-03T11:00:15Z</time>
      </trkpt>
      <trkpt lat="45.37242" lon="5.81309">
        <ele>1862</ele>
        <time>2011-06-03T11:00:19Z</time>
      </trkpt>
      <trkpt lat="45.37247" lon="5.81313">
        <ele>1862</ele>
        <time>2011-06-03T11:00:23Z</time>
      </trkpt>
      <trkpt lat="45.37253" lon="5.81318">
        <ele>1857</ele>
        <time>2011-06-03T11:00:28Z</time>
      </trkpt>
      <trkpt lat="45.3726" lon="5.81322">
        <ele>1857</ele>
        <time>2011-06-03T11:00:33Z</time>
      </trkpt>
      <trkpt lat="45.37269" lon="5.8133">
        <ele>1855</ele>
        <time>2011-06-03T11:00:42Z</time>
      </trkpt>
      <trkpt lat="45.37272" lon="5.81334">
        <ele>1853</ele>
        <time>2011-06-03T11:00:46Z</time>
      </trkpt>
      <trkpt lat="45.37285" lon="5.81338">
        <ele>1849</ele>
        <time>2011-06-03T11:00:58Z</time>
      </trkpt>
      <trkpt lat="45.37297" lon="5.81338">
        <ele>1846</ele>
        <time>2011-06-03T11:01:05Z</time>
      </trkpt>
      <trkpt lat="45.37304" lon="5.81339">
        <ele>1844</ele>
        <time>2011-06-03T11:01:10Z</time>
      </trkpt>
      <trkpt lat="45.37321" lon="5.81331">
        <ele>1842</ele>
        <time>2011-06-03T11:01:23Z</time>
      </trkpt>
      <trkpt lat="45.37322" lon="5.81331">
        <ele>1842</ele>
        <time>2011-06-03T11:01:24Z</time>
      </trkpt>
      <trkpt lat="45.3734" lon="5.81329">
        <ele>1837</ele>
        <time>2011-06-03T11:01:37Z</time>
      </trkpt>
      <trkpt lat="45.37351" lon="5.81332">
        <ele>1835</ele>
        <time>2011-06-03T11:01:45Z</time>
      </trkpt>
      <trkpt lat="45.37359" lon="5.81331">
        <ele>1834</ele>
        <time>2011-06-03T11:01:51Z</time>
      </trkpt>
      <trkpt lat="45.37377" lon="5.8133">
        <ele>1831</ele>
        <time>2011-06-03T11:02:04Z</time>
      </trkpt>
      <trkpt lat="45.37395" lon="5.8133">
        <ele>1828</ele>
        <time>2011-06-03T11:02:16Z</time>
      </trkpt>
      <trkpt lat="45.37415" lon="5.81329">
        <ele>1822</ele>
        <time>2011-06-03T11:02:29Z</time>
      </trkpt>
      <trkpt lat="45.37433" lon="5.81326">
        <ele>1816</ele>
        <time>2011-06-03T11:02:43Z</time>
      </trkpt>
      <trkpt lat="45.37443" lon="5.81322">
        <ele>1814</ele>
        <time>2011-06-03T11:02:51Z</time>
      </trkpt>
      <trkpt lat="45.37452" lon="5.81323">
        <ele>1812</ele>
        <time>2011-06-03T11:02:58Z</time>
      </trkpt>
      <trkpt lat="45.37471" lon="5.81325">
        <ele>1809</ele>
        <time>2011-06-03T11:03:12Z</time>
      </trkpt>
      <trkpt lat="45.3749" lon="5.81325">
        <ele>1804</ele>
        <time>2011-06-03T11:03:26Z</time>
      </trkpt>
      <trkpt lat="45.37508" lon="5.81326">
        <ele>1794</ele>
        <time>2011-06-03T11:03:39Z</time>
      </trkpt>
      <trkpt lat="45.37523" lon="5.81326">
        <ele>1790</ele>
        <time>2011-06-03T11:03:48Z</time>
      </trkpt>
      <trkpt lat="45.37526" lon="5.81327">
        <ele>1790</ele>
        <time>2011-06-03T11:03:50Z</time>
      </trkpt>
      <trkpt lat="45.37544" lon="5.81334">
        <ele>1804</ele>
        <time>2011-06-03T11:04:01Z</time>
      </trkpt>
      <trkpt lat="45.37546" lon="5.81335">
        <ele>1804</ele>
        <time>2011-06-03T11:04:02Z</time>
      </trkpt>
      <trkpt lat="45.37554" lon="5.81336">
        <ele>1804</ele>
        <time>2011-06-03T11:04:09Z</time>
      </trkpt>
      <trkpt lat="45.3756" lon="5.81342">
        <ele>1804</ele>
        <time>2011-06-03T11:04:15Z</time>
      </trkpt>
      <trkpt lat="45.37561" lon="5.81343">
        <ele>1804</ele>
        <time>2011-06-03T11:04:16Z</time>
      </trkpt>
      <trkpt lat="45.3757" lon="5.8135">
        <ele>1804</ele>
        <time>2011-06-03T11:04:28Z</time>
      </trkpt>
      <trkpt lat="45.37576" lon="5.81348">
        <ele>1804</ele>
        <time>2011-06-03T11:04:44Z</time>
      </trkpt>
      <trkpt lat="45.37576" lon="5.81349">
        <ele>1804</ele>
        <time>2011-06-03T11:04:45Z</time>
      </trkpt>
      <trkpt lat="45.37582" lon="5.81349">
        <ele>1804</ele>
        <time>2011-06-03T11:04:53Z</time>
      </trkpt>
      <trkpt lat="45.37586" lon="5.81348">
        <ele>1797</ele>
        <time>2011-06-03T11:04:57Z</time>
      </trkpt>
      <trkpt lat="45.37589" lon="5.81347">
        <ele>1797</ele>
        <time>2011-06-03T11:05:01Z</time>
      </trkpt>
      <trkpt lat="45.37593" lon="5.81347">
        <ele>1796</ele>
        <time>2011-06-03T11:05:06Z</time>
      </trkpt>
      <trkpt lat="45.376" lon="5.81348">
        <ele>1795</ele>
        <time>2011-06-03T11:05:14Z</time>
      </trkpt>
      <trkpt lat="45.376" lon="5.81348">
        <ele>1795</ele>
        <time>2011-06-03T11:05:15Z</time>
      </trkpt>
      <trkpt lat="45.37604" lon="5.81349">
        <ele>1794</ele>
        <time>2011-06-03T11:05:19Z</time>
      </trkpt>
      <trkpt lat="45.37608" lon="5.8135">
        <ele>1793</ele>
        <time>2011-06-03T11:05:23Z</time>
      </trkpt>
      <trkpt lat="45.37609" lon="5.81351">
        <ele>1793</ele>
        <time>2011-06-03T11:05:26Z</time>
      </trkpt>
      <trkpt lat="45.3761" lon="5.81352">
        <ele>1792</ele>
        <time>2011-06-03T11:05:34Z</time>
      </trkpt>
      <trkpt lat="45.37614" lon="5.81356">
        <ele>1792</ele>
        <time>2011-06-03T11:05:40Z</time>
      </trkpt>
      <trkpt lat="45.37617" lon="5.81357">
        <ele>1791</ele>
        <time>2011-06-03T11:05:44Z</time>
      </trkpt>
      <trkpt lat="45.37627" lon="5.81358">
        <ele>1789</ele>
        <time>2011-06-03T11:05:55Z</time>
      </trkpt>
      <trkpt lat="45.37628" lon="5.81358">
        <ele>1788</ele>
        <time>2011-06-03T11:05:57Z</time>
      </trkpt>
      <trkpt lat="45.37629" lon="5.81359">
        <ele>1788</ele>
        <time>2011-06-03T11:05:59Z</time>
      </trkpt>
      <trkpt lat="45.37636" lon="5.81373">
        <ele>1790</ele>
        <time>2011-06-03T11:06:30Z</time>
      </trkpt>
      <trkpt lat="45.37648" lon="5.8139">
        <ele>1792</ele>
        <time>2011-06-03T11:06:59Z</time>
      </trkpt>
      <trkpt lat="45.37657" lon="5.81409">
        <ele>1797</ele>
        <time>2011-06-03T11:07:34Z</time>
      </trkpt>
      <trkpt lat="45.37657" lon="5.8141">
        <ele>1798</ele>
        <time>2011-06-03T11:07:35Z</time>
      </trkpt>
      <trkpt lat="45.37665" lon="5.81422">
        <ele>1803</ele>
        <time>2011-06-03T11:07:50Z</time>
      </trkpt>
      <trkpt lat="45.37671" lon="5.81425">
        <ele>1802</ele>
        <time>2011-06-03T11:07:56Z</time>
      </trkpt>
      <trkpt lat="45.37675" lon="5.81428">
        <ele>1802</ele>
        <time>2011-06-03T11:08:01Z</time>
      </trkpt>
      <trkpt lat="45.37682" lon="5.8144">
        <ele>1802</ele>
        <time>2011-06-03T11:08:18Z</time>
      </trkpt>
      <trkpt lat="45.37683" lon="5.81442">
        <ele>1802</ele>
        <time>2011-06-03T11:08:19Z</time>
      </trkpt>
      <trkpt lat="45.37685" lon="5.81444">
        <ele>1802</ele>
        <time>2011-06-03T11:08:22Z</time>
      </trkpt>
      <trkpt lat="45.37691" lon="5.81448">
        <ele>1802</ele>
        <time>2011-06-03T11:08:28Z</time>
      </trkpt>
      <trkpt lat="45.37695" lon="5.81455">
        <ele>1802</ele>
        <time>2011-06-03T11:08:34Z</time>
      </trkpt>
      <trkpt lat="45.37696" lon="5.81456">
        <ele>1802</ele>
        <time>2011-06-03T11:08:35Z</time>
      </trkpt>
      <trkpt lat="45.37701" lon="5.81461">
        <ele>1802</ele>
        <time>2011-06-03T11:08:40Z</time>
      </trkpt>
      <trkpt lat="45.37706" lon="5.81462">
        <ele>1802</ele>
        <time>2011-06-03T11:08:47Z</time>
      </trkpt>
      <trkpt lat="45.37711" lon="5.8147">
        <ele>1802</ele>
        <time>2011-06-03T11:09:01Z</time>
      </trkpt>
      <trkpt lat="45.37712" lon="5.8147">
        <ele>1802</ele>
        <time>2011-06-03T11:09:02Z</time>
      </trkpt>
      <trkpt lat="45.37728" lon="5.81474">
        <ele>1802</ele>
        <time>2011-06-03T11:09:31Z</time>
      </trkpt>
      <trkpt lat="45.37737" lon="5.81481">
        <ele>1802</ele>
        <time>2011-06-03T11:09:58Z</time>
      </trkpt>
      <trkpt lat="45.37738" lon="5.8148">
        <ele>1802</ele>
        <time>2011-06-03T11:09:59Z</time>
      </trkpt>
      <trkpt lat="45.37741" lon="5.8148">
        <ele>1802</ele>
        <time>2011-06-03T11:10:02Z</time>
      </trkpt>
      <trkpt lat="45.37756" lon="5.81479">
        <ele>1802</ele>
        <time>2011-06-03T11:10:14Z</time>
      </trkpt>
      <trkpt lat="45.37757" lon="5.81478">
        <ele>1802</ele>
        <time>2011-06-03T11:10:16Z</time>
      </trkpt>
      <trkpt lat="45.37772" lon="5.81485">
        <ele>1802</ele>
        <time>2011-06-03T11:10:41Z</time>
      </trkpt>
      <trkpt lat="45.37785" lon="5.81487">
        <ele>1802</ele>
        <time>2011-06-03T11:11:00Z</time>
      </trkpt>
      <trkpt lat="45.37789" lon="5.81486">
        <ele>1802</ele>
        <time>2011-06-03T11:11:05Z</time>
      </trkpt>
      <trkpt lat="45.37791" lon="5.81486">
        <ele>1802</ele>
        <time>2011-06-03T11:11:06Z</time>
      </trkpt>
      <trkpt lat="45.37792" lon="5.81486">
        <ele>1802</ele>
        <time>2011-06-03T11:11:07Z</time>
      </trkpt>
      <trkpt lat="45.37807" lon="5.81482">
        <ele>1802</ele>
        <time>2011-06-03T11:11:25Z</time>
      </trkpt>
      <trkpt lat="45.37823" lon="5.81479">
        <ele>1802</ele>
        <time>2011-06-03T11:11:47Z</time>
      </trkpt>
      <trkpt lat="45.37825" lon="5.81479">
        <ele>1802</ele>
        <time>2011-06-03T11:11:49Z</time>
      </trkpt>
      <trkpt lat="45.37839" lon="5.81477">
        <ele>1802</ele>
        <time>2011-06-03T11:12:06Z</time>
      </trkpt>
      <trkpt lat="45.3784" lon="5.81478">
        <ele>1802</ele>
        <time>2011-06-03T11:12:10Z</time>
      </trkpt>
      <trkpt lat="45.37848" lon="5.81482">
        <ele>1802</ele>
        <time>2011-06-03T11:12:22Z</time>
      </trkpt>
      <trkpt lat="45.37855" lon="5.81481">
        <ele>1802</ele>
        <time>2011-06-03T11:12:26Z</time>
      </trkpt>
      <trkpt lat="45.37865" lon="5.81485">
        <ele>1802</ele>
        <time>2011-06-03T11:12:37Z</time>
      </trkpt>
      <trkpt lat="45.37872" lon="5.81486">
        <ele>1802</ele>
        <time>2011-06-03T11:12:43Z</time>
      </trkpt>
      <trkpt lat="45.37876" lon="5.81486">
        <ele>1803</ele>
        <time>2011-06-03T11:12:46Z</time>
      </trkpt>
      <trkpt lat="45.3788" lon="5.81486">
        <ele>1803</ele>
        <time>2011-06-03T11:12:49Z</time>
      </trkpt>
      <trkpt lat="45.3789" lon="5.81491">
        <ele>1803</ele>
        <time>2011-06-03T11:13:00Z</time>
      </trkpt>
      <trkpt lat="45.3789" lon="5.81492">
        <ele>1803</ele>
        <time>2011-06-03T11:13:01Z</time>
      </trkpt>
      <trkpt lat="45.37891" lon="5.81493">
        <ele>1803</ele>
        <time>2011-06-03T11:13:02Z</time>
      </trkpt>
      <trkpt lat="45.37904" lon="5.81491">
        <ele>1803</ele>
        <time>2011-06-03T11:13:14Z</time>
      </trkpt>
      <trkpt lat="45.37905" lon="5.81491">
        <ele>1803</ele>
        <time>2011-06-03T11:13:15Z</time>
      </trkpt>
      <trkpt lat="45.37906" lon="5.81493">
        <ele>1803</ele>
        <time>2011-06-03T11:13:17Z</time>
      </trkpt>
      <trkpt lat="45.37908" lon="5.81495">
        <ele>1803</ele>
        <time>2011-06-03T11:13:20Z</time>
      </trkpt>
      <trkpt lat="45.37916" lon="5.81501">
        <ele>1803</ele>
        <time>2011-06-03T11:13:31Z</time>
      </trkpt>
      <trkpt lat="45.37922" lon="5.81504">
        <ele>1802</ele>
        <time>2011-06-03T11:13:40Z</time>
      </trkpt>
      <trkpt lat="45.37933" lon="5.81507">
        <ele>1801</ele>
        <time>2011-06-03T11:13:53Z</time>
      </trkpt>
      <trkpt lat="45.37936" lon="5.81509">
        <ele>1801</ele>
        <time>2011-06-03T11:13:57Z</time>
      </trkpt>
      <trkpt lat="45.37939" lon="5.81509">
        <ele>1801</ele>
        <time>2011-06-03T11:14:01Z</time>
      </trkpt>
      <trkpt lat="45.37943" lon="5.81509">
        <ele>1800</ele>
        <time>2011-06-03T11:14:06Z</time>
      </trkpt>
      <trkpt lat="45.37954" lon="5.81512">
        <ele>1800</ele>
        <time>2011-06-03T11:14:17Z</time>
      </trkpt>
      <trkpt lat="45.37957" lon="5.81512">
        <ele>1800</ele>
        <time>2011-06-03T11:14:20Z</time>
      </trkpt>
      <trkpt lat="45.37961" lon="5.81514">
        <ele>1800</ele>
        <time>2011-06-03T11:14:25Z</time>
      </trkpt>
      <trkpt lat="45.37962" lon="5.81515">
        <ele>1800</ele>
        <time>2011-06-03T11:14:26Z</time>
      </trkpt>
      <trkpt lat="45.37962" lon="5.81516">
        <ele>1799</ele>
        <time>2011-06-03T11:14:28Z</time>
      </trkpt>
      <trkpt lat="45.37968" lon="5.81515">
        <ele>1800</ele>
        <time>2011-06-03T11:14:36Z</time>
      </trkpt>
      <trkpt lat="45.3797" lon="5.81514">
        <ele>1800</ele>
        <time>2011-06-03T11:14:39Z</time>
      </trkpt>
      <trkpt lat="45.37973" lon="5.81512">
        <ele>1800</ele>
        <time>2011-06-03T11:14:48Z</time>
      </trkpt>
      <trkpt lat="45.37986" lon="5.815">
        <ele>1796</ele>
        <time>2011-06-03T11:15:07Z</time>
      </trkpt>
      <trkpt lat="45.37995" lon="5.81503">
        <ele>1803</ele>
        <time>2011-06-03T11:15:14Z</time>
      </trkpt>
      <trkpt lat="45.38001" lon="5.81505">
        <ele>1796</ele>
        <time>2011-06-03T11:15:19Z</time>
      </trkpt>
      <trkpt lat="45.38004" lon="5.81505">
        <ele>1793</ele>
        <time>2011-06-03T11:15:21Z</time>
      </trkpt>
      <trkpt lat="45.38009" lon="5.81502">
        <ele>1790</ele>
        <time>2011-06-03T11:15:32Z</time>
      </trkpt>
      <trkpt lat="45.38017" lon="5.81501">
        <ele>1781</ele>
        <time>2011-06-03T11:15:41Z</time>
      </trkpt>
      <trkpt lat="45.38019" lon="5.815">
        <ele>1764</ele>
        <time>2011-06-03T11:15:43Z</time>
      </trkpt>
      <trkpt lat="45.38021" lon="5.81496">
        <ele>1761</ele>
        <time>2011-06-03T11:15:46Z</time>
      </trkpt>
      <trkpt lat="45.38022" lon="5.81493">
        <ele>1757</ele>
        <time>2011-06-03T11:15:48Z</time>
      </trkpt>
      <trkpt lat="45.38033" lon="5.81495">
        <ele>1746</ele>
        <time>2011-06-03T11:15:59Z</time>
      </trkpt>
      <trkpt lat="45.38036" lon="5.81497">
        <ele>1743</ele>
        <time>2011-06-03T11:16:01Z</time>
      </trkpt>
      <trkpt lat="45.38049" lon="5.81508">
        <ele>1751</ele>
        <time>2011-06-03T11:16:13Z</time>
      </trkpt>
      <trkpt lat="45.38066" lon="5.81512">
        <ele>1735</ele>
        <time>2011-06-03T11:16:26Z</time>
      </trkpt>
      <trkpt lat="45.38068" lon="5.81511">
        <ele>1733</ele>
        <time>2011-06-03T11:16:28Z</time>
      </trkpt>
      <trkpt lat="45.38065" lon="5.81508">
        <ele>1733</ele>
        <time>2011-06-03T11:16:34Z</time>
      </trkpt>
      <trkpt lat="45.38066" lon="5.81507">
        <ele>1733</ele>
        <time>2011-06-03T11:16:35Z</time>
      </trkpt>
      <trkpt lat="45.38066" lon="5.81495">
        <ele>1715</ele>
        <time>2011-06-03T11:16:53Z</time>
      </trkpt>
      <trkpt lat="45.38061" lon="5.81474">
        <ele>1723</ele>
        <time>2011-06-03T11:17:22Z</time>
      </trkpt>
      <trkpt lat="45.38056" lon="5.81467">
        <ele>1726</ele>
        <time>2011-06-03T11:17:47Z</time>
      </trkpt>
      <trkpt lat="45.38057" lon="5.81455">
        <ele>1724</ele>
        <time>2011-06-03T11:18:10Z</time>
      </trkpt>
      <trkpt lat="45.38052" lon="5.81441">
        <ele>1723</ele>
        <time>2011-06-03T11:18:24Z</time>
      </trkpt>
      <trkpt lat="45.38053" lon="5.81438">
        <ele>1722</ele>
        <time>2011-06-03T11:18:29Z</time>
      </trkpt>
      <trkpt lat="45.38055" lon="5.81439">
        <ele>1721</ele>
        <time>2011-06-03T11:18:31Z</time>
      </trkpt>
      <trkpt lat="45.38064" lon="5.81441">
        <ele>1718</ele>
        <time>2011-06-03T11:18:45Z</time>
      </trkpt>
      <trkpt lat="45.38073" lon="5.8144">
        <ele>1714</ele>
        <time>2011-06-03T11:18:58Z</time>
      </trkpt>
      <trkpt lat="45.3809" lon="5.81437">
        <ele>1695</ele>
        <time>2011-06-03T11:19:25Z</time>
      </trkpt>
      <trkpt lat="45.38093" lon="5.81438">
        <ele>1695</ele>
        <time>2011-06-03T11:19:29Z</time>
      </trkpt>
      <trkpt lat="45.38095" lon="5.81438">
        <ele>1696</ele>
        <time>2011-06-03T11:19:31Z</time>
      </trkpt>
      <trkpt lat="45.381" lon="5.81437">
        <ele>1696</ele>
        <time>2011-06-03T11:19:38Z</time>
      </trkpt>
      <trkpt lat="45.38104" lon="5.8144">
        <ele>1696</ele>
        <time>2011-06-03T11:19:44Z</time>
      </trkpt>
      <trkpt lat="45.38106" lon="5.81441">
        <ele>1697</ele>
        <time>2011-06-03T11:19:47Z</time>
      </trkpt>
      <trkpt lat="45.38113" lon="5.81441">
        <ele>1697</ele>
        <time>2011-06-03T11:19:55Z</time>
      </trkpt>
      <trkpt lat="45.38118" lon="5.8144">
        <ele>1697</ele>
        <time>2011-06-03T11:20:00Z</time>
      </trkpt>
      <trkpt lat="45.38123" lon="5.8144">
        <ele>1698</ele>
        <time>2011-06-03T11:20:05Z</time>
      </trkpt>
      <trkpt lat="45.38124" lon="5.81441">
        <ele>1698</ele>
        <time>2011-06-03T11:20:06Z</time>
      </trkpt>
      <trkpt lat="45.38138" lon="5.81448">
        <ele>1699</ele>
        <time>2011-06-03T11:20:18Z</time>
      </trkpt>
      <trkpt lat="45.3814" lon="5.81449">
        <ele>1699</ele>
        <time>2011-06-03T11:20:20Z</time>
      </trkpt>
      <trkpt lat="45.38144" lon="5.8145">
        <ele>1700</ele>
        <time>2011-06-03T11:20:24Z</time>
      </trkpt>
      <trkpt lat="45.38148" lon="5.81448">
        <ele>1699</ele>
        <time>2011-06-03T11:20:28Z</time>
      </trkpt>
      <trkpt lat="45.38157" lon="5.81452">
        <ele>1700</ele>
        <time>2011-06-03T11:20:35Z</time>
      </trkpt>
      <trkpt lat="45.38166" lon="5.81454">
        <ele>1701</ele>
        <time>2011-06-03T11:20:42Z</time>
      </trkpt>
      <trkpt lat="45.38169" lon="5.81447">
        <ele>1705</ele>
        <time>2011-06-03T11:21:01Z</time>
      </trkpt>
      <trkpt lat="45.38172" lon="5.81441">
        <ele>1703</ele>
        <time>2011-06-03T11:21:11Z</time>
      </trkpt>
      <trkpt lat="45.38164" lon="5.81436">
        <ele>1697</ele>
        <time>2011-06-03T11:21:33Z</time>
      </trkpt>
      <trkpt lat="45.38165" lon="5.8143">
        <ele>1696</ele>
        <time>2011-06-03T11:21:41Z</time>
      </trkpt>
      <trkpt lat="45.3817" lon="5.81421">
        <ele>1696</ele>
        <time>2011-06-03T11:22:08Z</time>
      </trkpt>
      <trkpt lat="45.38175" lon="5.81412">
        <ele>1690</ele>
        <time>2011-06-03T11:22:24Z</time>
      </trkpt>
      <trkpt lat="45.38175" lon="5.81408">
        <ele>1690</ele>
        <time>2011-06-03T11:22:27Z</time>
      </trkpt>
      <trkpt lat="45.38172" lon="5.81405">
        <ele>1689</ele>
        <time>2011-06-03T11:22:30Z</time>
      </trkpt>
      <trkpt lat="45.38174" lon="5.81402">
        <ele>1689</ele>
        <time>2011-06-03T11:22:33Z</time>
      </trkpt>
      <trkpt lat="45.38176" lon="5.81401">
        <ele>1688</ele>
        <time>2011-06-03T11:22:35Z</time>
      </trkpt>
      <trkpt lat="45.38174" lon="5.81393">
        <ele>1687</ele>
        <time>2011-06-03T11:22:41Z</time>
      </trkpt>
      <trkpt lat="45.38179" lon="5.81391">
        <ele>1687</ele>
        <time>2011-06-03T11:22:46Z</time>
      </trkpt>
      <trkpt lat="45.3818" lon="5.81392">
        <ele>1687</ele>
        <time>2011-06-03T11:22:47Z</time>
      </trkpt>
      <trkpt lat="45.38181" lon="5.81391">
        <ele>1687</ele>
        <time>2011-06-03T11:22:51Z</time>
      </trkpt>
      <trkpt lat="45.38182" lon="5.81388">
        <ele>1686</ele>
        <time>2011-06-03T11:22:54Z</time>
      </trkpt>
      <trkpt lat="45.38193" lon="5.8139">
        <ele>1686</ele>
        <time>2011-06-03T11:23:05Z</time>
      </trkpt>
      <trkpt lat="45.38194" lon="5.81389">
        <ele>1686</ele>
        <time>2011-06-03T11:23:07Z</time>
      </trkpt>
      <trkpt lat="45.38197" lon="5.8139">
        <ele>1685</ele>
        <time>2011-06-03T11:23:12Z</time>
      </trkpt>
      <trkpt lat="45.38199" lon="5.81394">
        <ele>1685</ele>
        <time>2011-06-03T11:23:15Z</time>
      </trkpt>
      <trkpt lat="45.38203" lon="5.81395">
        <ele>1685</ele>
        <time>2011-06-03T11:23:19Z</time>
      </trkpt>
      <trkpt lat="45.38205" lon="5.81395">
        <ele>1685</ele>
        <time>2011-06-03T11:23:22Z</time>
      </trkpt>
      <trkpt lat="45.38213" lon="5.81395">
        <ele>1684</ele>
        <time>2011-06-03T11:23:29Z</time>
      </trkpt>
      <trkpt lat="45.38216" lon="5.81392">
        <ele>1684</ele>
        <time>2011-06-03T11:23:34Z</time>
      </trkpt>
      <trkpt lat="45.38218" lon="5.8139">
        <ele>1684</ele>
        <time>2011-06-03T11:23:37Z</time>
      </trkpt>
      <trkpt lat="45.38222" lon="5.81388">
        <ele>1683</ele>
        <time>2011-06-03T11:23:41Z</time>
      </trkpt>
      <trkpt lat="45.38226" lon="5.81384">
        <ele>1683</ele>
        <time>2011-06-03T11:23:45Z</time>
      </trkpt>
      <trkpt lat="45.38231" lon="5.81383">
        <ele>1682</ele>
        <time>2011-06-03T11:23:49Z</time>
      </trkpt>
      <trkpt lat="45.38232" lon="5.81383">
        <ele>1682</ele>
        <time>2011-06-03T11:23:50Z</time>
      </trkpt>
      <trkpt lat="45.38239" lon="5.81385">
        <ele>1682</ele>
        <time>2011-06-03T11:23:54Z</time>
      </trkpt>
      <trkpt lat="45.38251" lon="5.81391">
        <ele>1674</ele>
        <time>2011-06-03T11:24:04Z</time>
      </trkpt>
      <trkpt lat="45.38256" lon="5.81396">
        <ele>1675</ele>
        <time>2011-06-03T11:24:09Z</time>
      </trkpt>
      <trkpt lat="45.38265" lon="5.81402">
        <ele>1676</ele>
        <time>2011-06-03T11:24:15Z</time>
      </trkpt>
      <trkpt lat="45.38283" lon="5.81416">
        <ele>1673</ele>
        <time>2011-06-03T11:24:26Z</time>
      </trkpt>
      <trkpt lat="45.38299" lon="5.81431">
        <ele>1691</ele>
        <time>2011-06-03T11:24:36Z</time>
      </trkpt>
      <trkpt lat="45.38317" lon="5.81435">
        <ele>1687</ele>
        <time>2011-06-03T11:24:45Z</time>
      </trkpt>
      <trkpt lat="45.38337" lon="5.81444">
        <ele>1675</ele>
        <time>2011-06-03T11:24:54Z</time>
      </trkpt>
      <trkpt lat="45.38353" lon="5.81448">
        <ele>1675</ele>
        <time>2011-06-03T11:25:03Z</time>
      </trkpt>
      <trkpt lat="45.38371" lon="5.81462">
        <ele>1676</ele>
        <time>2011-06-03T11:25:13Z</time>
      </trkpt>
      <trkpt lat="45.38378" lon="5.81467">
        <ele>1676</ele>
        <time>2011-06-03T11:25:19Z</time>
      </trkpt>
      <trkpt lat="45.38387" lon="5.81464">
        <ele>1675</ele>
        <time>2011-06-03T11:25:25Z</time>
      </trkpt>
      <trkpt lat="45.38389" lon="5.81463">
        <ele>1674</ele>
        <time>2011-06-03T11:25:27Z</time>
      </trkpt>
      <trkpt lat="45.38394" lon="5.81465">
        <ele>1674</ele>
        <time>2011-06-03T11:25:33Z</time>
      </trkpt>
      <trkpt lat="45.38397" lon="5.81464">
        <ele>1673</ele>
        <time>2011-06-03T11:25:35Z</time>
      </trkpt>
      <trkpt lat="45.38405" lon="5.81466">
        <ele>1673</ele>
        <time>2011-06-03T11:25:40Z</time>
      </trkpt>
      <trkpt lat="45.38413" lon="5.81466">
        <ele>1673</ele>
        <time>2011-06-03T11:25:45Z</time>
      </trkpt>
      <trkpt lat="45.38421" lon="5.81462">
        <ele>1660</ele>
        <time>2011-06-03T11:25:50Z</time>
      </trkpt>
      <trkpt lat="45.38422" lon="5.8146">
        <ele>1660</ele>
        <time>2011-06-03T11:25:52Z</time>
      </trkpt>
      <trkpt lat="45.38431" lon="5.81444">
        <ele>1657</ele>
        <time>2011-06-03T11:26:19Z</time>
      </trkpt>
      <trkpt lat="45.38436" lon="5.81435">
        <ele>1656</ele>
        <time>2011-06-03T11:26:25Z</time>
      </trkpt>
      <trkpt lat="45.38446" lon="5.81429">
        <ele>1655</ele>
        <time>2011-06-03T11:26:34Z</time>
      </trkpt>
      <trkpt lat="45.3845" lon="5.81429">
        <ele>1655</ele>
        <time>2011-06-03T11:26:39Z</time>
      </trkpt>
      <trkpt lat="45.38448" lon="5.81419">
        <ele>1655</ele>
        <time>2011-06-03T11:27:11Z</time>
      </trkpt>
      <trkpt lat="45.38452" lon="5.81422">
        <ele>1655</ele>
        <time>2011-06-03T11:28:05Z</time>
      </trkpt>
      <trkpt lat="45.38461" lon="5.81432">
        <ele>1655</ele>
        <time>2011-06-03T11:28:34Z</time>
      </trkpt>
      <trkpt lat="45.38462" lon="5.81439">
        <ele>1656</ele>
        <time>2011-06-03T11:28:39Z</time>
      </trkpt>
      <trkpt lat="45.38474" lon="5.81461">
        <ele>1655</ele>
        <time>2011-06-03T11:28:53Z</time>
      </trkpt>
      <trkpt lat="45.38486" lon="5.8148">
        <ele>1653</ele>
        <time>2011-06-03T11:29:06Z</time>
      </trkpt>
      <trkpt lat="45.38484" lon="5.8149">
        <ele>1652</ele>
        <time>2011-06-03T11:29:10Z</time>
      </trkpt>
      <trkpt lat="45.38489" lon="5.81506">
        <ele>1654</ele>
        <time>2011-06-03T11:29:19Z</time>
      </trkpt>
      <trkpt lat="45.38488" lon="5.81511">
        <ele>1656</ele>
        <time>2011-06-03T11:29:22Z</time>
      </trkpt>
      <trkpt lat="45.38483" lon="5.81528">
        <ele>1662</ele>
        <time>2011-06-03T11:29:36Z</time>
      </trkpt>
      <trkpt lat="45.38483" lon="5.8153">
        <ele>1662</ele>
        <time>2011-06-03T11:29:37Z</time>
      </trkpt>
      <trkpt lat="45.38481" lon="5.81537">
        <ele>1663</ele>
        <time>2011-06-03T11:29:42Z</time>
      </trkpt>
      <trkpt lat="45.3848" lon="5.8154">
        <ele>1664</ele>
        <time>2011-06-03T11:29:46Z</time>
      </trkpt>
      <trkpt lat="45.38479" lon="5.81542">
        <ele>1664</ele>
        <time>2011-06-03T11:29:47Z</time>
      </trkpt>
      <trkpt lat="45.38476" lon="5.81553">
        <ele>1666</ele>
        <time>2011-06-03T11:30:00Z</time>
      </trkpt>
      <trkpt lat="45.38477" lon="5.81559">
        <ele>1665</ele>
        <time>2011-06-03T11:30:05Z</time>
      </trkpt>
      <trkpt lat="45.38477" lon="5.81562">
        <ele>1665</ele>
        <time>2011-06-03T11:30:07Z</time>
      </trkpt>
      <trkpt lat="45.38482" lon="5.81576">
        <ele>1663</ele>
        <time>2011-06-03T11:30:24Z</time>
      </trkpt>
      <trkpt lat="45.38485" lon="5.81589">
        <ele>1670</ele>
        <time>2011-06-03T11:30:35Z</time>
      </trkpt>
      <trkpt lat="45.38484" lon="5.81602">
        <ele>1675</ele>
        <time>2011-06-03T11:30:49Z</time>
      </trkpt>
      <trkpt lat="45.38488" lon="5.81628">
        <ele>1680</ele>
        <time>2011-06-03T11:31:12Z</time>
      </trkpt>
      <trkpt lat="45.38489" lon="5.81636">
        <ele>1681</ele>
        <time>2011-06-03T11:31:17Z</time>
      </trkpt>
      <trkpt lat="45.3849" lon="5.81643">
        <ele>1681</ele>
        <time>2011-06-03T11:31:22Z</time>
      </trkpt>
      <trkpt lat="45.38491" lon="5.81654">
        <ele>1679</ele>
        <time>2011-06-03T11:31:46Z</time>
      </trkpt>
      <trkpt lat="45.38496" lon="5.81668">
        <ele>1680</ele>
        <time>2011-06-03T11:31:56Z</time>
      </trkpt>
      <trkpt lat="45.38496" lon="5.81678">
        <ele>1689</ele>
        <time>2011-06-03T11:32:02Z</time>
      </trkpt>
      <trkpt lat="45.38501" lon="5.8169">
        <ele>1673</ele>
        <time>2011-06-03T11:32:14Z</time>
      </trkpt>
      <trkpt lat="45.38503" lon="5.81693">
        <ele>1673</ele>
        <time>2011-06-03T11:32:18Z</time>
      </trkpt>
      <trkpt lat="45.38504" lon="5.81695">
        <ele>1673</ele>
        <time>2011-06-03T11:32:20Z</time>
      </trkpt>
      <trkpt lat="45.38507" lon="5.81699">
        <ele>1674</ele>
        <time>2011-06-03T11:32:25Z</time>
      </trkpt>
      <trkpt lat="45.38508" lon="5.817">
        <ele>1674</ele>
        <time>2011-06-03T11:32:26Z</time>
      </trkpt>
      <trkpt lat="45.38516" lon="5.81722">
        <ele>1679</ele>
        <time>2011-06-03T11:32:59Z</time>
      </trkpt>
      <trkpt lat="45.38522" lon="5.81746">
        <ele>1684</ele>
        <time>2011-06-03T11:33:30Z</time>
      </trkpt>
      <trkpt lat="45.38531" lon="5.81765">
        <ele>1709</ele>
        <time>2011-06-03T11:33:59Z</time>
      </trkpt>
      <trkpt lat="45.38539" lon="5.81781">
        <ele>1711</ele>
        <time>2011-06-03T11:34:21Z</time>
      </trkpt>
      <trkpt lat="45.38542" lon="5.81785">
        <ele>1711</ele>
        <time>2011-06-03T11:34:24Z</time>
      </trkpt>
      <trkpt lat="45.38543" lon="5.81787">
        <ele>1712</ele>
        <time>2011-06-03T11:34:26Z</time>
      </trkpt>
      <trkpt lat="45.38547" lon="5.81791">
        <ele>1712</ele>
        <time>2011-06-03T11:34:32Z</time>
      </trkpt>
      <trkpt lat="45.38558" lon="5.81798">
        <ele>1712</ele>
        <time>2011-06-03T11:34:45Z</time>
      </trkpt>
      <trkpt lat="45.38558" lon="5.81799">
        <ele>1712</ele>
        <time>2011-06-03T11:34:46Z</time>
      </trkpt>
      <trkpt lat="45.38564" lon="5.81802">
        <ele>1712</ele>
        <time>2011-06-03T11:34:52Z</time>
      </trkpt>
      <trkpt lat="45.38575" lon="5.81808">
        <ele>1713</ele>
        <time>2011-06-03T11:35:04Z</time>
      </trkpt>
      <trkpt lat="45.38588" lon="5.8182">
        <ele>1702</ele>
        <time>2011-06-03T11:35:19Z</time>
      </trkpt>
      <trkpt lat="45.38591" lon="5.81822">
        <ele>1703</ele>
        <time>2011-06-03T11:35:22Z</time>
      </trkpt>
      <trkpt lat="45.38593" lon="5.81824">
        <ele>1703</ele>
        <time>2011-06-03T11:35:24Z</time>
      </trkpt>
      <trkpt lat="45.38594" lon="5.81826">
        <ele>1704</ele>
        <time>2011-06-03T11:35:27Z</time>
      </trkpt>
      <trkpt lat="45.38594" lon="5.81827">
        <ele>1704</ele>
        <time>2011-06-03T11:35:29Z</time>
      </trkpt>
      <trkpt lat="45.38605" lon="5.81835">
        <ele>1721</ele>
        <time>2011-06-03T11:35:53Z</time>
      </trkpt>
      <trkpt lat="45.38612" lon="5.81854">
        <ele>1722</ele>
        <time>2011-06-03T11:36:28Z</time>
      </trkpt>
      <trkpt lat="45.38613" lon="5.81855">
        <ele>1722</ele>
        <time>2011-06-03T11:36:29Z</time>
      </trkpt>
      <trkpt lat="45.38618" lon="5.81857">
        <ele>1722</ele>
        <time>2011-06-03T11:36:34Z</time>
      </trkpt>
      <trkpt lat="45.38619" lon="5.81858">
        <ele>1722</ele>
        <time>2011-06-03T11:36:35Z</time>
      </trkpt>
      <trkpt lat="45.38629" lon="5.81861">
        <ele>1721</ele>
        <time>2011-06-03T11:36:47Z</time>
      </trkpt>
      <trkpt lat="45.38637" lon="5.81866">
        <ele>1721</ele>
        <time>2011-06-03T11:36:57Z</time>
      </trkpt>
      <trkpt lat="45.38641" lon="5.81871">
        <ele>1722</ele>
        <time>2011-06-03T11:37:04Z</time>
      </trkpt>
      <trkpt lat="45.38644" lon="5.81875">
        <ele>1723</ele>
        <time>2011-06-03T11:37:18Z</time>
      </trkpt>
      <trkpt lat="45.38647" lon="5.81881">
        <ele>1725</ele>
        <time>2011-06-03T11:37:33Z</time>
      </trkpt>
      <trkpt lat="45.38647" lon="5.81883">
        <ele>1726</ele>
        <time>2011-06-03T11:37:35Z</time>
      </trkpt>
      <trkpt lat="45.38649" lon="5.81892">
        <ele>1729</ele>
        <time>2011-06-03T11:37:55Z</time>
      </trkpt>
      <trkpt lat="45.38655" lon="5.81906">
        <ele>1733</ele>
        <time>2011-06-03T11:38:52Z</time>
      </trkpt>
      <trkpt lat="45.38656" lon="5.81909">
        <ele>1734</ele>
        <time>2011-06-03T11:38:56Z</time>
      </trkpt>
      <trkpt lat="45.38659" lon="5.81921">
        <ele>1739</ele>
        <time>2011-06-03T11:40:51Z</time>
      </trkpt>
      <trkpt lat="45.38659" lon="5.81935">
        <ele>1737</ele>
        <time>2011-06-03T11:41:25Z</time>
      </trkpt>
      <trkpt lat="45.38661" lon="5.81941">
        <ele>1736</ele>
        <time>2011-06-03T11:41:40Z</time>
      </trkpt>
      <trkpt lat="45.38662" lon="5.81942">
        <ele>1736</ele>
        <time>2011-06-03T11:41:41Z</time>
      </trkpt>
      <trkpt lat="45.38662" lon="5.81957">
        <ele>1734</ele>
        <time>2011-06-03T11:42:19Z</time>
      </trkpt>
      <trkpt lat="45.3866" lon="5.81961">
        <ele>1734</ele>
        <time>2011-06-03T11:42:25Z</time>
      </trkpt>
      <trkpt lat="45.38658" lon="5.81961">
        <ele>1734</ele>
        <time>2011-06-03T11:42:26Z</time>
      </trkpt>
      <trkpt lat="45.38659" lon="5.81968">
        <ele>1733</ele>
        <time>2011-06-03T11:42:35Z</time>
      </trkpt>
      <trkpt lat="45.3866" lon="5.8197">
        <ele>1733</ele>
        <time>2011-06-03T11:42:40Z</time>
      </trkpt>
      <trkpt lat="45.38657" lon="5.81974">
        <ele>1732</ele>
        <time>2011-06-03T11:42:44Z</time>
      </trkpt>
      <trkpt lat="45.38658" lon="5.81979">
        <ele>1732</ele>
        <time>2011-06-03T11:42:55Z</time>
      </trkpt>
      <trkpt lat="45.38657" lon="5.81981">
        <ele>1731</ele>
        <time>2011-06-03T11:42:57Z</time>
      </trkpt>
      <trkpt lat="45.38658" lon="5.81987">
        <ele>1731</ele>
        <time>2011-06-03T11:43:03Z</time>
      </trkpt>
      <trkpt lat="45.38659" lon="5.82002">
        <ele>1722</ele>
        <time>2011-06-03T11:43:29Z</time>
      </trkpt>
      <trkpt lat="45.3866" lon="5.82003">
        <ele>1722</ele>
        <time>2011-06-03T11:43:32Z</time>
      </trkpt>
      <trkpt lat="45.3866" lon="5.82007">
        <ele>1721</ele>
        <time>2011-06-03T11:43:34Z</time>
      </trkpt>
      <trkpt lat="45.3866" lon="5.82014">
        <ele>1717</ele>
        <time>2011-06-03T11:43:39Z</time>
      </trkpt>
      <trkpt lat="45.38663" lon="5.82021">
        <ele>1713</ele>
        <time>2011-06-03T11:43:47Z</time>
      </trkpt>
      <trkpt lat="45.38664" lon="5.82023">
        <ele>1713</ele>
        <time>2011-06-03T11:43:49Z</time>
      </trkpt>
      <trkpt lat="45.38662" lon="5.82027">
        <ele>1711</ele>
        <time>2011-06-03T11:43:55Z</time>
      </trkpt>
      <trkpt lat="45.38664" lon="5.82028">
        <ele>1710</ele>
        <time>2011-06-03T11:44:01Z</time>
      </trkpt>
      <trkpt lat="45.38664" lon="5.82037">
        <ele>1707</ele>
        <time>2011-06-03T11:44:19Z</time>
      </trkpt>
      <trkpt lat="45.38663" lon="5.8204">
        <ele>1706</ele>
        <time>2011-06-03T11:44:34Z</time>
      </trkpt>
      <trkpt lat="45.38664" lon="5.82041">
        <ele>1706</ele>
        <time>2011-06-03T11:44:40Z</time>
      </trkpt>
      <trkpt lat="45.38663" lon="5.82046">
        <ele>1704</ele>
        <time>2011-06-03T11:44:45Z</time>
      </trkpt>
      <trkpt lat="45.38659" lon="5.82057">
        <ele>1701</ele>
        <time>2011-06-03T11:44:52Z</time>
      </trkpt>
      <trkpt lat="45.38658" lon="5.82068">
        <ele>1698</ele>
        <time>2011-06-03T11:44:57Z</time>
      </trkpt>
      <trkpt lat="45.38654" lon="5.82067">
        <ele>1698</ele>
        <time>2011-06-03T11:44:59Z</time>
      </trkpt>
      <trkpt lat="45.38645" lon="5.82069">
        <ele>1698</ele>
        <time>2011-06-03T11:45:06Z</time>
      </trkpt>
      <trkpt lat="45.38638" lon="5.82075">
        <ele>1697</ele>
        <time>2011-06-03T11:45:27Z</time>
      </trkpt>
      <trkpt lat="45.38634" lon="5.82076">
        <ele>1696</ele>
        <time>2011-06-03T11:45:44Z</time>
      </trkpt>
      <trkpt lat="45.38633" lon="5.82084">
        <ele>1659</ele>
        <time>2011-06-03T11:45:54Z</time>
      </trkpt>
      <trkpt lat="45.38632" lon="5.8209">
        <ele>1657</ele>
        <time>2011-06-03T11:46:13Z</time>
      </trkpt>
      <trkpt lat="45.38632" lon="5.82099">
        <ele>1654</ele>
        <time>2011-06-03T11:46:31Z</time>
      </trkpt>
      <trkpt lat="45.38637" lon="5.82102">
        <ele>1654</ele>
        <time>2011-06-03T11:46:33Z</time>
      </trkpt>
      <trkpt lat="45.38642" lon="5.82107">
        <ele>1653</ele>
        <time>2011-06-03T11:46:37Z</time>
      </trkpt>
      <trkpt lat="45.38648" lon="5.82115">
        <ele>1650</ele>
        <time>2011-06-03T11:46:46Z</time>
      </trkpt>
      <trkpt lat="45.38649" lon="5.82115">
        <ele>1650</ele>
        <time>2011-06-03T11:46:49Z</time>
      </trkpt>
      <trkpt lat="45.38652" lon="5.82116">
        <ele>1650</ele>
        <time>2011-06-03T11:46:53Z</time>
      </trkpt>
      <trkpt lat="45.38637" lon="5.82123">
        <ele>1643</ele>
        <time>2011-06-03T11:47:02Z</time>
      </trkpt>
      <trkpt lat="45.38633" lon="5.82124">
        <ele>1642</ele>
        <time>2011-06-03T11:47:04Z</time>
      </trkpt>
      <trkpt lat="45.38619" lon="5.82136">
        <ele>1634</ele>
        <time>2011-06-03T11:47:10Z</time>
      </trkpt>
      <trkpt lat="45.38616" lon="5.82137">
        <ele>1633</ele>
        <time>2011-06-03T11:47:12Z</time>
      </trkpt>
      <trkpt lat="45.38617" lon="5.82135">
        <ele>1634</ele>
        <time>2011-06-03T11:47:16Z</time>
      </trkpt>
      <trkpt lat="45.38624" lon="5.8213">
        <ele>1638</ele>
        <time>2011-06-03T11:47:21Z</time>
      </trkpt>
      <trkpt lat="45.38624" lon="5.82131">
        <ele>1638</ele>
        <time>2011-06-03T11:47:22Z</time>
      </trkpt>
      <trkpt lat="45.38629" lon="5.8213">
        <ele>1638</ele>
        <time>2011-06-03T11:47:30Z</time>
      </trkpt>
      <trkpt lat="45.38634" lon="5.82137">
        <ele>1636</ele>
        <time>2011-06-03T11:47:41Z</time>
      </trkpt>
      <trkpt lat="45.38628" lon="5.82141">
        <ele>1633</ele>
        <time>2011-06-03T11:47:46Z</time>
      </trkpt>
      <trkpt lat="45.38629" lon="5.82141">
        <ele>1633</ele>
        <time>2011-06-03T11:47:47Z</time>
      </trkpt>
      <trkpt lat="45.38637" lon="5.8214">
        <ele>1635</ele>
        <time>2011-06-03T11:47:52Z</time>
      </trkpt>
      <trkpt lat="45.3864" lon="5.82141">
        <ele>1634</ele>
        <time>2011-06-03T11:47:54Z</time>
      </trkpt>
      <trkpt lat="45.38643" lon="5.82145">
        <ele>1632</ele>
        <time>2011-06-03T11:47:57Z</time>
      </trkpt>
      <trkpt lat="45.38643" lon="5.82146">
        <ele>1632</ele>
        <time>2011-06-03T11:47:58Z</time>
      </trkpt>
      <trkpt lat="45.38633" lon="5.82154">
        <ele>1629</ele>
        <time>2011-06-03T11:48:07Z</time>
      </trkpt>
      <trkpt lat="45.38635" lon="5.82153">
        <ele>1629</ele>
        <time>2011-06-03T11:48:08Z</time>
      </trkpt>
      <trkpt lat="45.38637" lon="5.82163">
        <ele>1627</ele>
        <time>2011-06-03T11:48:18Z</time>
      </trkpt>
      <trkpt lat="45.38636" lon="5.82164">
        <ele>1626</ele>
        <time>2011-06-03T11:48:19Z</time>
      </trkpt>
      <trkpt lat="45.38639" lon="5.82163">
        <ele>1626</ele>
        <time>2011-06-03T11:48:21Z</time>
      </trkpt>
      <trkpt lat="45.38644" lon="5.82164">
        <ele>1626</ele>
        <time>2011-06-03T11:48:24Z</time>
      </trkpt>
      <trkpt lat="45.38641" lon="5.82167">
        <ele>1626</ele>
        <time>2011-06-03T11:48:27Z</time>
      </trkpt>
      <trkpt lat="45.38642" lon="5.82173">
        <ele>1587</ele>
        <time>2011-06-03T11:48:35Z</time>
      </trkpt>
      <trkpt lat="45.38639" lon="5.82178">
        <ele>1584</ele>
        <time>2011-06-03T11:48:40Z</time>
      </trkpt>
      <trkpt lat="45.38641" lon="5.82176">
        <ele>1586</ele>
        <time>2011-06-03T11:48:43Z</time>
      </trkpt>
      <trkpt lat="45.38642" lon="5.82183">
        <ele>1584</ele>
        <time>2011-06-03T11:48:48Z</time>
      </trkpt>
      <trkpt lat="45.38641" lon="5.82187">
        <ele>1582</ele>
        <time>2011-06-03T11:48:52Z</time>
      </trkpt>
      <trkpt lat="45.38648" lon="5.8219">
        <ele>1583</ele>
        <time>2011-06-03T11:49:04Z</time>
      </trkpt>
      <trkpt lat="45.38649" lon="5.82191">
        <ele>1583</ele>
        <time>2011-06-03T11:49:06Z</time>
      </trkpt>
      <trkpt lat="45.38652" lon="5.82193">
        <ele>1583</ele>
        <time>2011-06-03T11:49:11Z</time>
      </trkpt>
      <trkpt lat="45.38667" lon="5.8219">
        <ele>1587</ele>
        <time>2011-06-03T11:49:22Z</time>
      </trkpt>
      <trkpt lat="45.38662" lon="5.82204">
        <ele>1579</ele>
        <time>2011-06-03T11:49:35Z</time>
      </trkpt>
      <trkpt lat="45.38667" lon="5.82203">
        <ele>1607</ele>
        <time>2011-06-03T11:49:38Z</time>
      </trkpt>
      <trkpt lat="45.38674" lon="5.82203">
        <ele>1608</ele>
        <time>2011-06-03T11:49:41Z</time>
      </trkpt>
      <trkpt lat="45.38669" lon="5.8221">
        <ele>1604</ele>
        <time>2011-06-03T11:49:48Z</time>
      </trkpt>
      <trkpt lat="45.38671" lon="5.82209">
        <ele>1605</ele>
        <time>2011-06-03T11:49:49Z</time>
      </trkpt>
      <trkpt lat="45.38674" lon="5.8221">
        <ele>1605</ele>
        <time>2011-06-03T11:49:52Z</time>
      </trkpt>
      <trkpt lat="45.38667" lon="5.82213">
        <ele>1602</ele>
        <time>2011-06-03T11:49:56Z</time>
      </trkpt>
      <trkpt lat="45.38659" lon="5.82219">
        <ele>1573</ele>
        <time>2011-06-03T11:50:01Z</time>
      </trkpt>
      <trkpt lat="45.38662" lon="5.82219">
        <ele>1573</ele>
        <time>2011-06-03T11:50:08Z</time>
      </trkpt>
      <trkpt lat="45.38666" lon="5.82221">
        <ele>1572</ele>
        <time>2011-06-03T11:50:13Z</time>
      </trkpt>
      <trkpt lat="45.38668" lon="5.8222">
        <ele>1598</ele>
        <time>2011-06-03T11:50:14Z</time>
      </trkpt>
      <trkpt lat="45.38668" lon="5.82221">
        <ele>1598</ele>
        <time>2011-06-03T11:50:17Z</time>
      </trkpt>
      <trkpt lat="45.38661" lon="5.82226">
        <ele>1570</ele>
        <time>2011-06-03T11:50:25Z</time>
      </trkpt>
      <trkpt lat="45.38661" lon="5.82227">
        <ele>1570</ele>
        <time>2011-06-03T11:50:26Z</time>
      </trkpt>
      <trkpt lat="45.38667" lon="5.82237">
        <ele>1568</ele>
        <time>2011-06-03T11:50:34Z</time>
      </trkpt>
      <trkpt lat="45.38659" lon="5.82245">
        <ele>1566</ele>
        <time>2011-06-03T11:50:40Z</time>
      </trkpt>
      <trkpt lat="45.38658" lon="5.82245">
        <ele>1566</ele>
        <time>2011-06-03T11:50:41Z</time>
      </trkpt>
      <trkpt lat="45.38654" lon="5.82247">
        <ele>1566</ele>
        <time>2011-06-03T11:50:45Z</time>
      </trkpt>
      <trkpt lat="45.38663" lon="5.82252">
        <ele>1558</ele>
        <time>2011-06-03T11:50:54Z</time>
      </trkpt>
      <trkpt lat="45.38663" lon="5.82253">
        <ele>1556</ele>
        <time>2011-06-03T11:50:55Z</time>
      </trkpt>
      <trkpt lat="45.3866" lon="5.82255">
        <ele>1551</ele>
        <time>2011-06-03T11:50:57Z</time>
      </trkpt>
      <trkpt lat="45.38657" lon="5.82257">
        <ele>1548</ele>
        <time>2011-06-03T11:50:59Z</time>
      </trkpt>
      <trkpt lat="45.38652" lon="5.82263">
        <ele>1540</ele>
        <time>2011-06-03T11:51:10Z</time>
      </trkpt>
      <trkpt lat="45.38654" lon="5.82264">
        <ele>1541</ele>
        <time>2011-06-03T11:51:18Z</time>
      </trkpt>
      <trkpt lat="45.38658" lon="5.82263">
        <ele>1543</ele>
        <time>2011-06-03T11:51:21Z</time>
      </trkpt>
      <trkpt lat="45.3866" lon="5.82263">
        <ele>1545</ele>
        <time>2011-06-03T11:51:23Z</time>
      </trkpt>
      <trkpt lat="45.38664" lon="5.82262">
        <ele>1547</ele>
        <time>2011-06-03T11:51:27Z</time>
      </trkpt>
      <trkpt lat="45.38661" lon="5.82267">
        <ele>1542</ele>
        <time>2011-06-03T11:51:32Z</time>
      </trkpt>
      <trkpt lat="45.38662" lon="5.82267">
        <ele>1542</ele>
        <time>2011-06-03T11:51:33Z</time>
      </trkpt>
      <trkpt lat="45.38665" lon="5.82268">
        <ele>1542</ele>
        <time>2011-06-03T11:51:36Z</time>
      </trkpt>
      <trkpt lat="45.38661" lon="5.82276">
        <ele>1535</ele>
        <time>2011-06-03T11:51:51Z</time>
      </trkpt>
      <trkpt lat="45.3866" lon="5.82284">
        <ele>1531</ele>
        <time>2011-06-03T11:52:00Z</time>
      </trkpt>
      <trkpt lat="45.38659" lon="5.82281">
        <ele>1532</ele>
        <time>2011-06-03T11:52:03Z</time>
      </trkpt>
      <trkpt lat="45.38655" lon="5.82286">
        <ele>1529</ele>
        <time>2011-06-03T11:52:35Z</time>
      </trkpt>
      <trkpt lat="45.38656" lon="5.82286">
        <ele>1529</ele>
        <time>2011-06-03T11:52:38Z</time>
      </trkpt>
      <trkpt lat="45.38654" lon="5.82288">
        <ele>1528</ele>
        <time>2011-06-03T11:52:40Z</time>
      </trkpt>
      <trkpt lat="45.38652" lon="5.82288">
        <ele>1527</ele>
        <time>2011-06-03T11:52:42Z</time>
      </trkpt>
      <trkpt lat="45.38652" lon="5.82295">
        <ele>1524</ele>
        <time>2011-06-03T11:52:49Z</time>
      </trkpt>
      <trkpt lat="45.38642" lon="5.82288">
        <ele>1525</ele>
        <time>2011-06-03T11:53:03Z</time>
      </trkpt>
      <trkpt lat="45.38636" lon="5.82286">
        <ele>1525</ele>
        <time>2011-06-03T11:53:19Z</time>
      </trkpt>
      <trkpt lat="45.38637" lon="5.82274">
        <ele>1529</ele>
        <time>2011-06-03T11:53:29Z</time>
      </trkpt>
      <trkpt lat="45.38636" lon="5.82272">
        <ele>1529</ele>
        <time>2011-06-03T11:53:31Z</time>
      </trkpt>
      <trkpt lat="45.38628" lon="5.82273">
        <ele>1526</ele>
        <time>2011-06-03T11:53:35Z</time>
      </trkpt>
      <trkpt lat="45.38629" lon="5.82271">
        <ele>1527</ele>
        <time>2011-06-03T11:53:36Z</time>
      </trkpt>
      <trkpt lat="45.38626" lon="5.82265">
        <ele>1527</ele>
        <time>2011-06-03T11:53:42Z</time>
      </trkpt>
      <trkpt lat="45.38622" lon="5.82261">
        <ele>1526</ele>
        <time>2011-06-03T11:53:48Z</time>
      </trkpt>
      <trkpt lat="45.38616" lon="5.8226">
        <ele>1525</ele>
        <time>2011-06-03T11:53:53Z</time>
      </trkpt>
      <trkpt lat="45.3861" lon="5.82261">
        <ele>1523</ele>
        <time>2011-06-03T11:53:59Z</time>
      </trkpt>
      <trkpt lat="45.38604" lon="5.82263">
        <ele>1522</ele>
        <time>2011-06-03T11:54:04Z</time>
      </trkpt>
      <trkpt lat="45.38604" lon="5.82264">
        <ele>1522</ele>
        <time>2011-06-03T11:54:05Z</time>
      </trkpt>
      <trkpt lat="45.38606" lon="5.82266">
        <ele>1522</ele>
        <time>2011-06-03T11:54:09Z</time>
      </trkpt>
      <trkpt lat="45.38614" lon="5.82278">
        <ele>1521</ele>
        <time>2011-06-03T11:54:19Z</time>
      </trkpt>
      <trkpt lat="45.38609" lon="5.82276">
        <ele>1521</ele>
        <time>2011-06-03T11:54:24Z</time>
      </trkpt>
      <trkpt lat="45.38604" lon="5.82278">
        <ele>1519</ele>
        <time>2011-06-03T11:54:28Z</time>
      </trkpt>
      <trkpt lat="45.38601" lon="5.8228">
        <ele>1519</ele>
        <time>2011-06-03T11:54:31Z</time>
      </trkpt>
      <trkpt lat="45.38602" lon="5.82285">
        <ele>1517</ele>
        <time>2011-06-03T11:54:36Z</time>
      </trkpt>
      <trkpt lat="45.38609" lon="5.82289">
        <ele>1517</ele>
        <time>2011-06-03T11:54:41Z</time>
      </trkpt>
      <trkpt lat="45.38616" lon="5.82288">
        <ele>1519</ele>
        <time>2011-06-03T11:54:45Z</time>
      </trkpt>
      <trkpt lat="45.38617" lon="5.8229">
        <ele>1519</ele>
        <time>2011-06-03T11:54:47Z</time>
      </trkpt>
      <trkpt lat="45.3861" lon="5.82292">
        <ele>1517</ele>
        <time>2011-06-03T11:54:54Z</time>
      </trkpt>
      <trkpt lat="45.38608" lon="5.82289">
        <ele>1517</ele>
        <time>2011-06-03T11:54:58Z</time>
      </trkpt>
      <trkpt lat="45.386" lon="5.82295">
        <ele>1514</ele>
        <time>2011-06-03T11:55:08Z</time>
      </trkpt>
      <trkpt lat="45.38608" lon="5.82298">
        <ele>1515</ele>
        <time>2011-06-03T11:55:12Z</time>
      </trkpt>
      <trkpt lat="45.38623" lon="5.82313">
        <ele>1514</ele>
        <time>2011-06-03T11:55:24Z</time>
      </trkpt>
      <trkpt lat="45.38625" lon="5.82322">
        <ele>1513</ele>
        <time>2011-06-03T11:55:30Z</time>
      </trkpt>
      <trkpt lat="45.38616" lon="5.82317">
        <ele>1511</ele>
        <time>2011-06-03T11:55:38Z</time>
      </trkpt>
      <trkpt lat="45.38611" lon="5.82318">
        <ele>1509</ele>
        <time>2011-06-03T11:55:40Z</time>
      </trkpt>
      <trkpt lat="45.38608" lon="5.82318">
        <ele>1507</ele>
        <time>2011-06-03T11:55:45Z</time>
      </trkpt>
      <trkpt lat="45.38617" lon="5.82322">
        <ele>1510</ele>
        <time>2011-06-03T11:55:52Z</time>
      </trkpt>
      <trkpt lat="45.38623" lon="5.8233">
        <ele>1511</ele>
        <time>2011-06-03T11:56:00Z</time>
      </trkpt>
      <trkpt lat="45.38616" lon="5.82332">
        <ele>1508</ele>
        <time>2011-06-03T11:56:05Z</time>
      </trkpt>
      <trkpt lat="45.38613" lon="5.82332">
        <ele>1507</ele>
        <time>2011-06-03T11:56:07Z</time>
      </trkpt>
      <trkpt lat="45.38606" lon="5.82336">
        <ele>1476</ele>
        <time>2011-06-03T11:56:13Z</time>
      </trkpt>
      <trkpt lat="45.38612" lon="5.82339">
        <ele>1476</ele>
        <time>2011-06-03T11:56:17Z</time>
      </trkpt>
      <trkpt lat="45.38616" lon="5.82341">
        <ele>1476</ele>
        <time>2011-06-03T11:56:20Z</time>
      </trkpt>
      <trkpt lat="45.38626" lon="5.8235">
        <ele>1477</ele>
        <time>2011-06-03T11:56:28Z</time>
      </trkpt>
      <trkpt lat="45.38622" lon="5.82351">
        <ele>1475</ele>
        <time>2011-06-03T11:56:32Z</time>
      </trkpt>
      <trkpt lat="45.38619" lon="5.82351">
        <ele>1475</ele>
        <time>2011-06-03T11:56:34Z</time>
      </trkpt>
      <trkpt lat="45.38615" lon="5.82352">
        <ele>1474</ele>
        <time>2011-06-03T11:58:27Z</time>
      </trkpt>
      <trkpt lat="45.38606" lon="5.8236">
        <ele>1471</ele>
        <time>2011-06-03T11:59:59Z</time>
      </trkpt>
      <trkpt lat="45.3859" lon="5.82349">
        <ele>1474</ele>
        <time>2011-06-03T12:00:18Z</time>
      </trkpt>
      <trkpt lat="45.38588" lon="5.8235">
        <ele>1474</ele>
        <time>2011-06-03T12:00:20Z</time>
      </trkpt>
      <trkpt lat="45.38597" lon="5.8236">
        <ele>1470</ele>
        <time>2011-06-03T12:00:42Z</time>
      </trkpt>
      <trkpt lat="45.38613" lon="5.82374">
        <ele>1467</ele>
        <time>2011-06-03T12:00:54Z</time>
      </trkpt>
      <trkpt lat="45.38617" lon="5.82379">
        <ele>1466</ele>
        <time>2011-06-03T12:00:58Z</time>
      </trkpt>
      <trkpt lat="45.3863" lon="5.82381">
        <ele>1467</ele>
        <time>2011-06-03T12:01:08Z</time>
      </trkpt>
      <trkpt lat="45.38634" lon="5.82385">
        <ele>1466</ele>
        <time>2011-06-03T12:01:13Z</time>
      </trkpt>
      <trkpt lat="45.38629" lon="5.82388">
        <ele>1464</ele>
        <time>2011-06-03T12:01:17Z</time>
      </trkpt>
      <trkpt lat="45.38621" lon="5.8239">
        <ele>1463</ele>
        <time>2011-06-03T12:01:22Z</time>
      </trkpt>
      <trkpt lat="45.38608" lon="5.82393">
        <ele>1459</ele>
        <time>2011-06-03T12:01:34Z</time>
      </trkpt>
      <trkpt lat="45.38603" lon="5.82394">
        <ele>1457</ele>
        <time>2011-06-03T12:01:38Z</time>
      </trkpt>
      <trkpt lat="45.38585" lon="5.82393">
        <ele>1454</ele>
        <time>2011-06-03T12:01:51Z</time>
      </trkpt>
      <trkpt lat="45.38567" lon="5.82387">
        <ele>1444</ele>
        <time>2011-06-03T12:02:02Z</time>
      </trkpt>
      <trkpt lat="45.38564" lon="5.82386">
        <ele>1444</ele>
        <time>2011-06-03T12:02:04Z</time>
      </trkpt>
      <trkpt lat="45.38561" lon="5.8238">
        <ele>1446</ele>
        <time>2011-06-03T12:02:08Z</time>
      </trkpt>
      <trkpt lat="45.38556" lon="5.8238">
        <ele>1445</ele>
        <time>2011-06-03T12:02:13Z</time>
      </trkpt>
      <trkpt lat="45.38549" lon="5.82378">
        <ele>1445</ele>
        <time>2011-06-03T12:02:17Z</time>
      </trkpt>
      <trkpt lat="45.38543" lon="5.82379">
        <ele>1444</ele>
        <time>2011-06-03T12:02:21Z</time>
      </trkpt>
      <trkpt lat="45.38536" lon="5.82379">
        <ele>1443</ele>
        <time>2011-06-03T12:02:26Z</time>
      </trkpt>
      <trkpt lat="45.38533" lon="5.8238">
        <ele>1443</ele>
        <time>2011-06-03T12:02:28Z</time>
      </trkpt>
      <trkpt lat="45.3853" lon="5.82381">
        <ele>1442</ele>
        <time>2011-06-03T12:02:29Z</time>
      </trkpt>
      <trkpt lat="45.38524" lon="5.82379">
        <ele>1442</ele>
        <time>2011-06-03T12:02:42Z</time>
      </trkpt>
      <trkpt lat="45.3852" lon="5.82376">
        <ele>1442</ele>
        <time>2011-06-03T12:02:46Z</time>
      </trkpt>
      <trkpt lat="45.38515" lon="5.82374">
        <ele>1442</ele>
        <time>2011-06-03T12:02:49Z</time>
      </trkpt>
      <trkpt lat="45.38499" lon="5.82373">
        <ele>1428</ele>
        <time>2011-06-03T12:02:58Z</time>
      </trkpt>
      <trkpt lat="45.38497" lon="5.82372">
        <ele>1428</ele>
        <time>2011-06-03T12:02:59Z</time>
      </trkpt>
      <trkpt lat="45.38479" lon="5.8237">
        <ele>1427</ele>
        <time>2011-06-03T12:03:10Z</time>
      </trkpt>
      <trkpt lat="45.38462" lon="5.82373">
        <ele>1424</ele>
        <time>2011-06-03T12:03:21Z</time>
      </trkpt>
      <trkpt lat="45.38459" lon="5.82372">
        <ele>1424</ele>
        <time>2011-06-03T12:03:24Z</time>
      </trkpt>
      <trkpt lat="45.38454" lon="5.82368">
        <ele>1424</ele>
        <time>2011-06-03T12:03:30Z</time>
      </trkpt>
      <trkpt lat="45.38452" lon="5.82367">
        <ele>1424</ele>
        <time>2011-06-03T12:03:32Z</time>
      </trkpt>
      <trkpt lat="45.38447" lon="5.82366">
        <ele>1423</ele>
        <time>2011-06-03T12:03:36Z</time>
      </trkpt>
      <trkpt lat="45.38444" lon="5.82365">
        <ele>1423</ele>
        <time>2011-06-03T12:03:38Z</time>
      </trkpt>
      <trkpt lat="45.38441" lon="5.82366">
        <ele>1422</ele>
        <time>2011-06-03T12:03:39Z</time>
      </trkpt>
      <trkpt lat="45.38425" lon="5.82363">
        <ele>1422</ele>
        <time>2011-06-03T12:03:48Z</time>
      </trkpt>
      <trkpt lat="45.38414" lon="5.82358">
        <ele>1411</ele>
        <time>2011-06-03T12:03:57Z</time>
      </trkpt>
      <trkpt lat="45.38411" lon="5.82357">
        <ele>1411</ele>
        <time>2011-06-03T12:04:01Z</time>
      </trkpt>
      <trkpt lat="45.38408" lon="5.82357">
        <ele>1410</ele>
        <time>2011-06-03T12:04:04Z</time>
      </trkpt>
      <trkpt lat="45.3839" lon="5.82356">
        <ele>1407</ele>
        <time>2011-06-03T12:04:18Z</time>
      </trkpt>
      <trkpt lat="45.38379" lon="5.82354">
        <ele>1405</ele>
        <time>2011-06-03T12:04:26Z</time>
      </trkpt>
      <trkpt lat="45.38375" lon="5.82354">
        <ele>1405</ele>
        <time>2011-06-03T12:04:30Z</time>
      </trkpt>
      <trkpt lat="45.38374" lon="5.82354">
        <ele>1405</ele>
        <time>2011-06-03T12:04:32Z</time>
      </trkpt>
      <trkpt lat="45.38372" lon="5.82356">
        <ele>1404</ele>
        <time>2011-06-03T12:04:35Z</time>
      </trkpt>
      <trkpt lat="45.38371" lon="5.82357">
        <ele>1404</ele>
        <time>2011-06-03T12:04:36Z</time>
      </trkpt>
      <trkpt lat="45.38368" lon="5.82358">
        <ele>1403</ele>
        <time>2011-06-03T12:04:39Z</time>
      </trkpt>
      <trkpt lat="45.38353" lon="5.82354">
        <ele>1402</ele>
        <time>2011-06-03T12:04:52Z</time>
      </trkpt>
      <trkpt lat="45.38351" lon="5.82354">
        <ele>1402</ele>
        <time>2011-06-03T12:04:54Z</time>
      </trkpt>
      <trkpt lat="45.38339" lon="5.82355">
        <ele>1401</ele>
        <time>2011-06-03T12:05:02Z</time>
      </trkpt>
      <trkpt lat="45.38333" lon="5.82357">
        <ele>1394</ele>
        <time>2011-06-03T12:05:05Z</time>
      </trkpt>
      <trkpt lat="45.38327" lon="5.82358">
        <ele>1394</ele>
        <time>2011-06-03T12:05:08Z</time>
      </trkpt>
      <trkpt lat="45.38314" lon="5.82351">
        <ele>1394</ele>
        <time>2011-06-03T12:05:18Z</time>
      </trkpt>
      <trkpt lat="45.38304" lon="5.82346">
        <ele>1393</ele>
        <time>2011-06-03T12:05:28Z</time>
      </trkpt>
      <trkpt lat="45.38302" lon="5.82347">
        <ele>1393</ele>
        <time>2011-06-03T12:05:32Z</time>
      </trkpt>
      <trkpt lat="45.38303" lon="5.82351">
        <ele>1393</ele>
        <time>2011-06-03T12:05:34Z</time>
      </trkpt>
      <trkpt lat="45.38305" lon="5.82363">
        <ele>1392</ele>
        <time>2011-06-03T12:05:40Z</time>
      </trkpt>
      <trkpt lat="45.38311" lon="5.8237">
        <ele>1391</ele>
        <time>2011-06-03T12:05:45Z</time>
      </trkpt>
      <trkpt lat="45.38315" lon="5.82376">
        <ele>1391</ele>
        <time>2011-06-03T12:05:49Z</time>
      </trkpt>
      <trkpt lat="45.38324" lon="5.8238">
        <ele>1391</ele>
        <time>2011-06-03T12:05:56Z</time>
      </trkpt>
      <trkpt lat="45.38325" lon="5.82383">
        <ele>1390</ele>
        <time>2011-06-03T12:05:59Z</time>
      </trkpt>
      <trkpt lat="45.3833" lon="5.8239">
        <ele>1389</ele>
        <time>2011-06-03T12:06:03Z</time>
      </trkpt>
      <trkpt lat="45.38333" lon="5.82391">
        <ele>1389</ele>
        <time>2011-06-03T12:06:04Z</time>
      </trkpt>
      <trkpt lat="45.38352" lon="5.82405">
        <ele>1395</ele>
        <time>2011-06-03T12:06:13Z</time>
      </trkpt>
      <trkpt lat="45.38352" lon="5.82407">
        <ele>1395</ele>
        <time>2011-06-03T12:06:14Z</time>
      </trkpt>
      <trkpt lat="45.38353" lon="5.8241">
        <ele>1395</ele>
        <time>2011-06-03T12:06:15Z</time>
      </trkpt>
      <trkpt lat="45.38364" lon="5.82426">
        <ele>1391</ele>
        <time>2011-06-03T12:06:22Z</time>
      </trkpt>
      <trkpt lat="45.38365" lon="5.82429">
        <ele>1391</ele>
        <time>2011-06-03T12:06:24Z</time>
      </trkpt>
      <trkpt lat="45.38365" lon="5.82431">
        <ele>1391</ele>
        <time>2011-06-03T12:06:26Z</time>
      </trkpt>
      <trkpt lat="45.38366" lon="5.82437">
        <ele>1392</ele>
        <time>2011-06-03T12:06:29Z</time>
      </trkpt>
      <trkpt lat="45.38369" lon="5.82444">
        <ele>1392</ele>
        <time>2011-06-03T12:06:37Z</time>
      </trkpt>
      <trkpt lat="45.38367" lon="5.82444">
        <ele>1392</ele>
        <time>2011-06-03T12:06:38Z</time>
      </trkpt>
      <trkpt lat="45.38366" lon="5.82449">
        <ele>1392</ele>
        <time>2011-06-03T12:06:45Z</time>
      </trkpt>
      <trkpt lat="45.38363" lon="5.82452">
        <ele>1392</ele>
        <time>2011-06-03T12:06:48Z</time>
      </trkpt>
      <trkpt lat="45.38365" lon="5.82455">
        <ele>1392</ele>
        <time>2011-06-03T12:08:00Z</time>
      </trkpt>
      <trkpt lat="45.38361" lon="5.82451">
        <ele>1392</ele>
        <time>2011-06-03T12:08:11Z</time>
      </trkpt>
      <trkpt lat="45.38369" lon="5.82455">
        <ele>1392</ele>
        <time>2011-06-03T12:09:16Z</time>
      </trkpt>
      <trkpt lat="45.38371" lon="5.82461">
        <ele>1392</ele>
        <time>2011-06-03T12:09:20Z</time>
      </trkpt>
      <trkpt lat="45.38372" lon="5.82462">
        <ele>1392</ele>
        <time>2011-06-03T12:09:21Z</time>
      </trkpt>
      <trkpt lat="45.38375" lon="5.82466">
        <ele>1393</ele>
        <time>2011-06-03T12:09:24Z</time>
      </trkpt>
      <trkpt lat="45.38376" lon="5.82473">
        <ele>1393</ele>
        <time>2011-06-03T12:09:28Z</time>
      </trkpt>
      <trkpt lat="45.38376" lon="5.82476">
        <ele>1393</ele>
        <time>2011-06-03T12:09:30Z</time>
      </trkpt>
      <trkpt lat="45.38388" lon="5.82471">
        <ele>1393</ele>
        <time>2011-06-03T12:09:47Z</time>
      </trkpt>
      <trkpt lat="45.38389" lon="5.82472">
        <ele>1393</ele>
        <time>2011-06-03T12:09:48Z</time>
      </trkpt>
      <trkpt lat="45.38393" lon="5.82472">
        <ele>1393</ele>
        <time>2011-06-03T12:09:51Z</time>
      </trkpt>
      <trkpt lat="45.38401" lon="5.82476">
        <ele>1393</ele>
        <time>2011-06-03T12:09:57Z</time>
      </trkpt>
      <trkpt lat="45.38402" lon="5.82479">
        <ele>1393</ele>
        <time>2011-06-03T12:10:01Z</time>
      </trkpt>
      <trkpt lat="45.38404" lon="5.8248">
        <ele>1393</ele>
        <time>2011-06-03T12:10:02Z</time>
      </trkpt>
      <trkpt lat="45.3841" lon="5.82487">
        <ele>1393</ele>
        <time>2011-06-03T12:10:06Z</time>
      </trkpt>
      <trkpt lat="45.38418" lon="5.82498">
        <ele>1393</ele>
        <time>2011-06-03T12:10:13Z</time>
      </trkpt>
      <trkpt lat="45.38429" lon="5.82511">
        <ele>1392</ele>
        <time>2011-06-03T12:10:22Z</time>
      </trkpt>
      <trkpt lat="45.38429" lon="5.82512">
        <ele>1392</ele>
        <time>2011-06-03T12:10:27Z</time>
      </trkpt>
      <trkpt lat="45.38432" lon="5.82512">
        <ele>1392</ele>
        <time>2011-06-03T12:10:28Z</time>
      </trkpt>
      <trkpt lat="45.38445" lon="5.8253">
        <ele>1392</ele>
        <time>2011-06-03T12:10:38Z</time>
      </trkpt>
      <trkpt lat="45.38452" lon="5.8254">
        <ele>1392</ele>
        <time>2011-06-03T12:10:44Z</time>
      </trkpt>
      <trkpt lat="45.38453" lon="5.82542">
        <ele>1392</ele>
        <time>2011-06-03T12:10:50Z</time>
      </trkpt>
      <trkpt lat="45.38455" lon="5.82551">
        <ele>1392</ele>
        <time>2011-06-03T12:10:55Z</time>
      </trkpt>
      <trkpt lat="45.38455" lon="5.82553">
        <ele>1392</ele>
        <time>2011-06-03T12:10:56Z</time>
      </trkpt>
      <trkpt lat="45.38456" lon="5.82557">
        <ele>1391</ele>
        <time>2011-06-03T12:10:58Z</time>
      </trkpt>
      <trkpt lat="45.38461" lon="5.82561">
        <ele>1391</ele>
        <time>2011-06-03T12:11:02Z</time>
      </trkpt>
      <trkpt lat="45.3847" lon="5.82563">
        <ele>1391</ele>
        <time>2011-06-03T12:11:09Z</time>
      </trkpt>
      <trkpt lat="45.38485" lon="5.8257">
        <ele>1391</ele>
        <time>2011-06-03T12:11:20Z</time>
      </trkpt>
      <trkpt lat="45.38487" lon="5.82572">
        <ele>1390</ele>
        <time>2011-06-03T12:11:22Z</time>
      </trkpt>
      <trkpt lat="45.38489" lon="5.82572">
        <ele>1390</ele>
        <time>2011-06-03T12:11:23Z</time>
      </trkpt>
      <trkpt lat="45.38504" lon="5.82583">
        <ele>1389</ele>
        <time>2011-06-03T12:11:30Z</time>
      </trkpt>
      <trkpt lat="45.38504" lon="5.82585">
        <ele>1386</ele>
        <time>2011-06-03T12:11:31Z</time>
      </trkpt>
      <trkpt lat="45.38512" lon="5.82605">
        <ele>1381</ele>
        <time>2011-06-03T12:11:41Z</time>
      </trkpt>
      <trkpt lat="45.38519" lon="5.82609">
        <ele>1380</ele>
        <time>2011-06-03T12:11:46Z</time>
      </trkpt>
      <trkpt lat="45.38523" lon="5.82604">
        <ele>1380</ele>
        <time>2011-06-03T12:11:50Z</time>
      </trkpt>
      <trkpt lat="45.38526" lon="5.82602">
        <ele>1380</ele>
        <time>2011-06-03T12:11:53Z</time>
      </trkpt>
      <trkpt lat="45.38527" lon="5.82603">
        <ele>1380</ele>
        <time>2011-06-03T12:11:54Z</time>
      </trkpt>
      <trkpt lat="45.38532" lon="5.82608">
        <ele>1379</ele>
        <time>2011-06-03T12:11:59Z</time>
      </trkpt>
      <trkpt lat="45.38536" lon="5.82611">
        <ele>1379</ele>
        <time>2011-06-03T12:12:04Z</time>
      </trkpt>
      <trkpt lat="45.38544" lon="5.82616">
        <ele>1378</ele>
        <time>2011-06-03T12:12:10Z</time>
      </trkpt>
      <trkpt lat="45.38547" lon="5.82618">
        <ele>1378</ele>
        <time>2011-06-03T12:12:12Z</time>
      </trkpt>
      <trkpt lat="45.38559" lon="5.82623">
        <ele>1377</ele>
        <time>2011-06-03T12:12:22Z</time>
      </trkpt>
      <trkpt lat="45.38563" lon="5.82624">
        <ele>1377</ele>
        <time>2011-06-03T12:12:24Z</time>
      </trkpt>
      <trkpt lat="45.38569" lon="5.82634">
        <ele>1375</ele>
        <time>2011-06-03T12:12:29Z</time>
      </trkpt>
      <trkpt lat="45.3857" lon="5.82636">
        <ele>1374</ele>
        <time>2011-06-03T12:12:30Z</time>
      </trkpt>
      <trkpt lat="45.38577" lon="5.82647">
        <ele>1372</ele>
        <time>2011-06-03T12:12:35Z</time>
      </trkpt>
      <trkpt lat="45.38579" lon="5.8265">
        <ele>1371</ele>
        <time>2011-06-03T12:12:36Z</time>
      </trkpt>
      <trkpt lat="45.38589" lon="5.82665">
        <ele>1366</ele>
        <time>2011-06-03T12:12:46Z</time>
      </trkpt>
      <trkpt lat="45.38594" lon="5.82668">
        <ele>1360</ele>
        <time>2011-06-03T12:12:50Z</time>
      </trkpt>
      <trkpt lat="45.38596" lon="5.8267">
        <ele>1360</ele>
        <time>2011-06-03T12:12:52Z</time>
      </trkpt>
      <trkpt lat="45.38598" lon="5.82676">
        <ele>1359</ele>
        <time>2011-06-03T12:12:59Z</time>
      </trkpt>
      <trkpt lat="45.38605" lon="5.82681">
        <ele>1357</ele>
        <time>2011-06-03T12:13:02Z</time>
      </trkpt>
      <trkpt lat="45.38606" lon="5.82683">
        <ele>1357</ele>
        <time>2011-06-03T12:13:03Z</time>
      </trkpt>
      <trkpt lat="45.38616" lon="5.82694">
        <ele>1355</ele>
        <time>2011-06-03T12:13:13Z</time>
      </trkpt>
      <trkpt lat="45.38617" lon="5.82701">
        <ele>1354</ele>
        <time>2011-06-03T12:13:16Z</time>
      </trkpt>
      <trkpt lat="45.38619" lon="5.82707">
        <ele>1354</ele>
        <time>2011-06-03T12:13:19Z</time>
      </trkpt>
      <trkpt lat="45.38624" lon="5.82709">
        <ele>1353</ele>
        <time>2011-06-03T12:13:21Z</time>
      </trkpt>
      <trkpt lat="45.38631" lon="5.82716">
        <ele>1352</ele>
        <time>2011-06-03T12:13:27Z</time>
      </trkpt>
      <trkpt lat="45.38636" lon="5.82716">
        <ele>1352</ele>
        <time>2011-06-03T12:13:30Z</time>
      </trkpt>
      <trkpt lat="45.38648" lon="5.82717">
        <ele>1352</ele>
        <time>2011-06-03T12:13:37Z</time>
      </trkpt>
      <trkpt lat="45.3865" lon="5.82718">
        <ele>1351</ele>
        <time>2011-06-03T12:13:38Z</time>
      </trkpt>
      <trkpt lat="45.38653" lon="5.82717">
        <ele>1351</ele>
        <time>2011-06-03T12:13:40Z</time>
      </trkpt>
      <trkpt lat="45.38669" lon="5.82714">
        <ele>1348</ele>
        <time>2011-06-03T12:13:49Z</time>
      </trkpt>
      <trkpt lat="45.38673" lon="5.82713">
        <ele>1348</ele>
        <time>2011-06-03T12:13:53Z</time>
      </trkpt>
      <trkpt lat="45.38675" lon="5.82713">
        <ele>1348</ele>
        <time>2011-06-03T12:13:56Z</time>
      </trkpt>
      <trkpt lat="45.38679" lon="5.82713">
        <ele>1348</ele>
        <time>2011-06-03T12:13:59Z</time>
      </trkpt>
      <trkpt lat="45.38685" lon="5.82707">
        <ele>1348</ele>
        <time>2011-06-03T12:14:05Z</time>
      </trkpt>
      <trkpt lat="45.38693" lon="5.82713">
        <ele>1347</ele>
        <time>2011-06-03T12:14:10Z</time>
      </trkpt>
      <trkpt lat="45.38703" lon="5.82719">
        <ele>1346</ele>
        <time>2011-06-03T12:14:16Z</time>
      </trkpt>
      <trkpt lat="45.38722" lon="5.82732">
        <ele>1344</ele>
        <time>2011-06-03T12:14:27Z</time>
      </trkpt>
      <trkpt lat="45.38724" lon="5.82733">
        <ele>1344</ele>
        <time>2011-06-03T12:14:28Z</time>
      </trkpt>
      <trkpt lat="45.38735" lon="5.8274">
        <ele>1341</ele>
        <time>2011-06-03T12:14:35Z</time>
      </trkpt>
      <trkpt lat="45.38736" lon="5.82742">
        <ele>1341</ele>
        <time>2011-06-03T12:14:36Z</time>
      </trkpt>
      <trkpt lat="45.38739" lon="5.82744">
        <ele>1340</ele>
        <time>2011-06-03T12:14:38Z</time>
      </trkpt>
      <trkpt lat="45.38744" lon="5.82744">
        <ele>1339</ele>
        <time>2011-06-03T12:14:41Z</time>
      </trkpt>
      <trkpt lat="45.38756" lon="5.82745">
        <ele>1335</ele>
        <time>2011-06-03T12:14:48Z</time>
      </trkpt>
      <trkpt lat="45.38758" lon="5.82743">
        <ele>1335</ele>
        <time>2011-06-03T12:14:50Z</time>
      </trkpt>
      <trkpt lat="45.3876" lon="5.82743">
        <ele>1335</ele>
        <time>2011-06-03T12:14:52Z</time>
      </trkpt>
      <trkpt lat="45.3877" lon="5.82742">
        <ele>1334</ele>
        <time>2011-06-03T12:14:59Z</time>
      </trkpt>
      <trkpt lat="45.38778" lon="5.82741">
        <ele>1333</ele>
        <time>2011-06-03T12:15:04Z</time>
      </trkpt>
      <trkpt lat="45.38782" lon="5.82746">
        <ele>1332</ele>
        <time>2011-06-03T12:15:08Z</time>
      </trkpt>
      <trkpt lat="45.38783" lon="5.82744">
        <ele>1332</ele>
        <time>2011-06-03T12:15:11Z</time>
      </trkpt>
      <trkpt lat="45.38791" lon="5.82744">
        <ele>1331</ele>
        <time>2011-06-03T12:15:15Z</time>
      </trkpt>
      <trkpt lat="45.38795" lon="5.82744">
        <ele>1330</ele>
        <time>2011-06-03T12:15:17Z</time>
      </trkpt>
      <trkpt lat="45.38805" lon="5.82745">
        <ele>1327</ele>
        <time>2011-06-03T12:15:25Z</time>
      </trkpt>
      <trkpt lat="45.38806" lon="5.82745">
        <ele>1327</ele>
        <time>2011-06-03T12:15:27Z</time>
      </trkpt>
      <trkpt lat="45.38814" lon="5.82744">
        <ele>1325</ele>
        <time>2011-06-03T12:15:34Z</time>
      </trkpt>
      <trkpt lat="45.38817" lon="5.82744">
        <ele>1324</ele>
        <time>2011-06-03T12:15:37Z</time>
      </trkpt>
      <trkpt lat="45.38817" lon="5.82741">
        <ele>1324</ele>
        <time>2011-06-03T12:15:47Z</time>
      </trkpt>
      <trkpt lat="45.38826" lon="5.8274">
        <ele>1321</ele>
        <time>2011-06-03T12:16:09Z</time>
      </trkpt>
      <trkpt lat="45.38829" lon="5.82744">
        <ele>1318</ele>
        <time>2011-06-03T12:16:14Z</time>
      </trkpt>
      <trkpt lat="45.38845" lon="5.82759">
        <ele>1303</ele>
        <time>2011-06-03T12:16:36Z</time>
      </trkpt>
      <trkpt lat="45.38854" lon="5.82767">
        <ele>1298</ele>
        <time>2011-06-03T12:16:43Z</time>
      </trkpt>
      <trkpt lat="45.38862" lon="5.82768">
        <ele>1296</ele>
        <time>2011-06-03T12:16:53Z</time>
      </trkpt>
      <trkpt lat="45.38864" lon="5.82772">
        <ele>1295</ele>
        <time>2011-06-03T12:16:56Z</time>
      </trkpt>
      <trkpt lat="45.38874" lon="5.82778">
        <ele>1293</ele>
        <time>2011-06-03T12:17:06Z</time>
      </trkpt>
      <trkpt lat="45.3888" lon="5.82782">
        <ele>1291</ele>
        <time>2011-06-03T12:17:11Z</time>
      </trkpt>
      <trkpt lat="45.3889" lon="5.82784">
        <ele>1290</ele>
        <time>2011-06-03T12:17:17Z</time>
      </trkpt>
      <trkpt lat="45.38895" lon="5.82791">
        <ele>1289</ele>
        <time>2011-06-03T12:17:22Z</time>
      </trkpt>
      <trkpt lat="45.38897" lon="5.8279">
        <ele>1289</ele>
        <time>2011-06-03T12:17:23Z</time>
      </trkpt>
      <trkpt lat="45.38906" lon="5.82796">
        <ele>1287</ele>
        <time>2011-06-03T12:17:29Z</time>
      </trkpt>
      <trkpt lat="45.38912" lon="5.828">
        <ele>1285</ele>
        <time>2011-06-03T12:17:34Z</time>
      </trkpt>
      <trkpt lat="45.38914" lon="5.82802">
        <ele>1284</ele>
        <time>2011-06-03T12:17:35Z</time>
      </trkpt>
      <trkpt lat="45.38914" lon="5.82819">
        <ele>1277</ele>
        <time>2011-06-03T12:17:46Z</time>
      </trkpt>
      <trkpt lat="45.38915" lon="5.8282">
        <ele>1276</ele>
        <time>2011-06-03T12:17:48Z</time>
      </trkpt>
      <trkpt lat="45.38918" lon="5.82825">
        <ele>1273</ele>
        <time>2011-06-03T12:17:52Z</time>
      </trkpt>
      <trkpt lat="45.3892" lon="5.82829">
        <ele>1271</ele>
        <time>2011-06-03T12:17:56Z</time>
      </trkpt>
      <trkpt lat="45.38922" lon="5.82829">
        <ele>1272</ele>
        <time>2011-06-03T12:17:58Z</time>
      </trkpt>
      <trkpt lat="45.38933" lon="5.82823">
        <ele>1278</ele>
        <time>2011-06-03T12:18:09Z</time>
      </trkpt>
      <trkpt lat="45.38936" lon="5.82822">
        <ele>1279</ele>
        <time>2011-06-03T12:18:12Z</time>
      </trkpt>
      <trkpt lat="45.38941" lon="5.82821">
        <ele>1280</ele>
        <time>2011-06-03T12:18:20Z</time>
      </trkpt>
      <trkpt lat="45.38944" lon="5.82819">
        <ele>1281</ele>
        <time>2011-06-03T12:18:23Z</time>
      </trkpt>
      <trkpt lat="45.38949" lon="5.8282">
        <ele>1282</ele>
        <time>2011-06-03T12:18:29Z</time>
      </trkpt>
      <trkpt lat="45.3895" lon="5.82823">
        <ele>1281</ele>
        <time>2011-06-03T12:18:32Z</time>
      </trkpt>
      <trkpt lat="45.38952" lon="5.82831">
        <ele>1281</ele>
        <time>2011-06-03T12:18:39Z</time>
      </trkpt>
      <trkpt lat="45.38953" lon="5.82838">
        <ele>1262</ele>
        <time>2011-06-03T12:18:44Z</time>
      </trkpt>
      <trkpt lat="45.38953" lon="5.82844">
        <ele>1261</ele>
        <time>2011-06-03T12:18:48Z</time>
      </trkpt>
      <trkpt lat="45.38953" lon="5.82849">
        <ele>1260</ele>
        <time>2011-06-03T12:18:51Z</time>
      </trkpt>
      <trkpt lat="45.38953" lon="5.8285">
        <ele>1260</ele>
        <time>2011-06-03T12:18:52Z</time>
      </trkpt>
      <trkpt lat="45.38953" lon="5.82852">
        <ele>1260</ele>
        <time>2011-06-03T12:18:54Z</time>
      </trkpt>
      <trkpt lat="45.38949" lon="5.82875">
        <ele>1256</ele>
        <time>2011-06-03T12:19:11Z</time>
      </trkpt>
      <trkpt lat="45.3895" lon="5.82877">
        <ele>1256</ele>
        <time>2011-06-03T12:19:12Z</time>
      </trkpt>
      <trkpt lat="45.3895" lon="5.82884">
        <ele>1254</ele>
        <time>2011-06-03T12:19:16Z</time>
      </trkpt>
      <trkpt lat="45.38946" lon="5.82903">
        <ele>1250</ele>
        <time>2011-06-03T12:19:26Z</time>
      </trkpt>
      <trkpt lat="45.38941" lon="5.82909">
        <ele>1248</ele>
        <time>2011-06-03T12:19:29Z</time>
      </trkpt>
      <trkpt lat="45.38935" lon="5.82915">
        <ele>1245</ele>
        <time>2011-06-03T12:19:34Z</time>
      </trkpt>
      <trkpt lat="45.3893" lon="5.82916">
        <ele>1243</ele>
        <time>2011-06-03T12:19:37Z</time>
      </trkpt>
      <trkpt lat="45.38929" lon="5.82917">
        <ele>1242</ele>
        <time>2011-06-03T12:19:38Z</time>
      </trkpt>
      <trkpt lat="45.38927" lon="5.8292">
        <ele>1233</ele>
        <time>2011-06-03T12:19:42Z</time>
      </trkpt>
      <trkpt lat="45.38917" lon="5.82929">
        <ele>1232</ele>
        <time>2011-06-03T12:19:55Z</time>
      </trkpt>
      <trkpt lat="45.38913" lon="5.82931">
        <ele>1230</ele>
        <time>2011-06-03T12:20:00Z</time>
      </trkpt>
      <trkpt lat="45.38903" lon="5.82933">
        <ele>1229</ele>
        <time>2011-06-03T12:20:13Z</time>
      </trkpt>
      <trkpt lat="45.389" lon="5.82932">
        <ele>1229</ele>
        <time>2011-06-03T12:20:17Z</time>
      </trkpt>
      <trkpt lat="45.38895" lon="5.82936">
        <ele>1229</ele>
        <time>2011-06-03T12:20:21Z</time>
      </trkpt>
      <trkpt lat="45.38895" lon="5.82942">
        <ele>1228</ele>
        <time>2011-06-03T12:20:24Z</time>
      </trkpt>
      <trkpt lat="45.38887" lon="5.82957">
        <ele>1226</ele>
        <time>2011-06-03T12:20:43Z</time>
      </trkpt>
      <trkpt lat="45.3889" lon="5.82962">
        <ele>1225</ele>
        <time>2011-06-03T12:20:49Z</time>
      </trkpt>
      <trkpt lat="45.38891" lon="5.82963">
        <ele>1224</ele>
        <time>2011-06-03T12:20:50Z</time>
      </trkpt>
      <trkpt lat="45.3889" lon="5.82979">
        <ele>1221</ele>
        <time>2011-06-03T12:21:09Z</time>
      </trkpt>
      <trkpt lat="45.38889" lon="5.8299">
        <ele>1220</ele>
        <time>2011-06-03T12:21:21Z</time>
      </trkpt>
      <trkpt lat="45.38886" lon="5.82992">
        <ele>1220</ele>
        <time>2011-06-03T12:21:28Z</time>
      </trkpt>
      <trkpt lat="45.38885" lon="5.82996">
        <ele>1220</ele>
        <time>2011-06-03T12:21:30Z</time>
      </trkpt>
      <trkpt lat="45.38883" lon="5.83002">
        <ele>1204</ele>
        <time>2011-06-03T12:21:35Z</time>
      </trkpt>
      <trkpt lat="45.38881" lon="5.83008">
        <ele>1204</ele>
        <time>2011-06-03T12:21:44Z</time>
      </trkpt>
      <trkpt lat="45.38879" lon="5.83016">
        <ele>1203</ele>
        <time>2011-06-03T12:21:49Z</time>
      </trkpt>
      <trkpt lat="45.38878" lon="5.83018">
        <ele>1203</ele>
        <time>2011-06-03T12:21:50Z</time>
      </trkpt>
      <trkpt lat="45.38877" lon="5.83018">
        <ele>1203</ele>
        <time>2011-06-03T12:21:51Z</time>
      </trkpt>
      <trkpt lat="45.38872" lon="5.83025">
        <ele>1203</ele>
        <time>2011-06-03T12:21:57Z</time>
      </trkpt>
      <trkpt lat="45.38868" lon="5.83036">
        <ele>1201</ele>
        <time>2011-06-03T12:22:03Z</time>
      </trkpt>
      <trkpt lat="45.38867" lon="5.83037">
        <ele>1201</ele>
        <time>2011-06-03T12:22:04Z</time>
      </trkpt>
      <trkpt lat="45.3886" lon="5.83044">
        <ele>1200</ele>
        <time>2011-06-03T12:22:10Z</time>
      </trkpt>
      <trkpt lat="45.38855" lon="5.83047">
        <ele>1200</ele>
        <time>2011-06-03T12:22:15Z</time>
      </trkpt>
      <trkpt lat="45.38855" lon="5.83048">
        <ele>1199</ele>
        <time>2011-06-03T12:22:16Z</time>
      </trkpt>
      <trkpt lat="45.38855" lon="5.8305">
        <ele>1199</ele>
        <time>2011-06-03T12:22:18Z</time>
      </trkpt>
      <trkpt lat="45.38855" lon="5.83055">
        <ele>1198</ele>
        <time>2011-06-03T12:22:21Z</time>
      </trkpt>
      <trkpt lat="45.38855" lon="5.83055">
        <ele>1198</ele>
        <time>2011-06-03T12:22:22Z</time>
      </trkpt>
      <trkpt lat="45.38856" lon="5.83059">
        <ele>1197</ele>
        <time>2011-06-03T12:22:25Z</time>
      </trkpt>
      <trkpt lat="45.38857" lon="5.83063">
        <ele>1197</ele>
        <time>2011-06-03T12:22:29Z</time>
      </trkpt>
      <trkpt lat="45.38857" lon="5.83077">
        <ele>1195</ele>
        <time>2011-06-03T12:22:37Z</time>
      </trkpt>
      <trkpt lat="45.38856" lon="5.83079">
        <ele>1195</ele>
        <time>2011-06-03T12:22:39Z</time>
      </trkpt>
      <trkpt lat="45.38847" lon="5.83091">
        <ele>1182</ele>
        <time>2011-06-03T12:22:53Z</time>
      </trkpt>
      <trkpt lat="45.38847" lon="5.83097">
        <ele>1180</ele>
        <time>2011-06-03T12:22:57Z</time>
      </trkpt>
      <trkpt lat="45.38845" lon="5.83105">
        <ele>1179</ele>
        <time>2011-06-03T12:23:03Z</time>
      </trkpt>
      <trkpt lat="45.38844" lon="5.83107">
        <ele>1178</ele>
        <time>2011-06-03T12:23:04Z</time>
      </trkpt>
      <trkpt lat="45.38842" lon="5.83119">
        <ele>1175</ele>
        <time>2011-06-03T12:23:10Z</time>
      </trkpt>
      <trkpt lat="45.38843" lon="5.83121">
        <ele>1174</ele>
        <time>2011-06-03T12:23:12Z</time>
      </trkpt>
      <trkpt lat="45.38848" lon="5.83132">
        <ele>1172</ele>
        <time>2011-06-03T12:23:19Z</time>
      </trkpt>
      <trkpt lat="45.3885" lon="5.83143">
        <ele>1169</ele>
        <time>2011-06-03T12:23:25Z</time>
      </trkpt>
      <trkpt lat="45.38853" lon="5.83155">
        <ele>1167</ele>
        <time>2011-06-03T12:23:32Z</time>
      </trkpt>
      <trkpt lat="45.38854" lon="5.83157">
        <ele>1167</ele>
        <time>2011-06-03T12:23:33Z</time>
      </trkpt>
      <trkpt lat="45.38859" lon="5.83166">
        <ele>1167</ele>
        <time>2011-06-03T12:23:39Z</time>
      </trkpt>
      <trkpt lat="45.38861" lon="5.83171">
        <ele>1154</ele>
        <time>2011-06-03T12:23:43Z</time>
      </trkpt>
      <trkpt lat="45.38864" lon="5.83179">
        <ele>1153</ele>
        <time>2011-06-03T12:23:48Z</time>
      </trkpt>
      <trkpt lat="45.38865" lon="5.83182">
        <ele>1153</ele>
        <time>2011-06-03T12:23:49Z</time>
      </trkpt>
      <trkpt lat="45.38866" lon="5.83188">
        <ele>1153</ele>
        <time>2011-06-03T12:23:52Z</time>
      </trkpt>
      <trkpt lat="45.38866" lon="5.83189">
        <ele>1153</ele>
        <time>2011-06-03T12:23:54Z</time>
      </trkpt>
      <trkpt lat="45.3888" lon="5.83192">
        <ele>1153</ele>
        <time>2011-06-03T12:24:02Z</time>
      </trkpt>
      <trkpt lat="45.38886" lon="5.83203">
        <ele>1152</ele>
        <time>2011-06-03T12:24:15Z</time>
      </trkpt>
      <trkpt lat="45.38888" lon="5.83208">
        <ele>1151</ele>
        <time>2011-06-03T12:24:21Z</time>
      </trkpt>
      <trkpt lat="45.3889" lon="5.83211">
        <ele>1151</ele>
        <time>2011-06-03T12:24:23Z</time>
      </trkpt>
      <trkpt lat="45.38888" lon="5.83223">
        <ele>1149</ele>
        <time>2011-06-03T12:24:29Z</time>
      </trkpt>
      <trkpt lat="45.38889" lon="5.83231">
        <ele>1148</ele>
        <time>2011-06-03T12:24:33Z</time>
      </trkpt>
      <trkpt lat="45.38892" lon="5.83237">
        <ele>1148</ele>
        <time>2011-06-03T12:24:36Z</time>
      </trkpt>
      <trkpt lat="45.38896" lon="5.83247">
        <ele>1146</ele>
        <time>2011-06-03T12:24:43Z</time>
      </trkpt>
      <trkpt lat="45.38898" lon="5.83248">
        <ele>1146</ele>
        <time>2011-06-03T12:24:44Z</time>
      </trkpt>
      <trkpt lat="45.38908" lon="5.83253">
        <ele>1139</ele>
        <time>2011-06-03T12:24:53Z</time>
      </trkpt>
      <trkpt lat="45.38919" lon="5.83258">
        <ele>1140</ele>
        <time>2011-06-03T12:25:00Z</time>
      </trkpt>
      <trkpt lat="45.38925" lon="5.83265">
        <ele>1138</ele>
        <time>2011-06-03T12:25:05Z</time>
      </trkpt>
      <trkpt lat="45.38926" lon="5.83266">
        <ele>1138</ele>
        <time>2011-06-03T12:25:06Z</time>
      </trkpt>
      <trkpt lat="45.3893" lon="5.83266">
        <ele>1138</ele>
        <time>2011-06-03T12:25:09Z</time>
      </trkpt>
      <trkpt lat="45.38939" lon="5.83264">
        <ele>1138</ele>
        <time>2011-06-03T12:25:15Z</time>
      </trkpt>
      <trkpt lat="45.3894" lon="5.83263">
        <ele>1138</ele>
        <time>2011-06-03T12:25:16Z</time>
      </trkpt>
      <trkpt lat="45.38946" lon="5.83266">
        <ele>1138</ele>
        <time>2011-06-03T12:25:21Z</time>
      </trkpt>
      <trkpt lat="45.38947" lon="5.83266">
        <ele>1138</ele>
        <time>2011-06-03T12:25:22Z</time>
      </trkpt>
      <trkpt lat="45.38947" lon="5.83266">
        <ele>1138</ele>
        <time>2011-06-03T12:25:23Z</time>
      </trkpt>
      <trkpt lat="45.38953" lon="5.83263">
        <ele>1138</ele>
        <time>2011-06-03T12:25:28Z</time>
      </trkpt>
      <trkpt lat="45.38957" lon="5.83263">
        <ele>1138</ele>
        <time>2011-06-03T12:25:30Z</time>
      </trkpt>
      <trkpt lat="45.38967" lon="5.83276">
        <ele>1137</ele>
        <time>2011-06-03T12:25:36Z</time>
      </trkpt>
      <trkpt lat="45.38974" lon="5.8329">
        <ele>1135</ele>
        <time>2011-06-03T12:25:42Z</time>
      </trkpt>
      <trkpt lat="45.38979" lon="5.83297">
        <ele>1134</ele>
        <time>2011-06-03T12:25:45Z</time>
      </trkpt>
      <trkpt lat="45.38982" lon="5.83316">
        <ele>1130</ele>
        <time>2011-06-03T12:26:04Z</time>
      </trkpt>
      <trkpt lat="45.38988" lon="5.83321">
        <ele>1129</ele>
        <time>2011-06-03T12:26:09Z</time>
      </trkpt>
      <trkpt lat="45.3899" lon="5.83323">
        <ele>1128</ele>
        <time>2011-06-03T12:26:10Z</time>
      </trkpt>
      <trkpt lat="45.38994" lon="5.83326">
        <ele>1127</ele>
        <time>2011-06-03T12:26:12Z</time>
      </trkpt>
      <trkpt lat="45.38998" lon="5.83331">
        <ele>1124</ele>
        <time>2011-06-03T12:26:15Z</time>
      </trkpt>
      <trkpt lat="45.39003" lon="5.83335">
        <ele>1124</ele>
        <time>2011-06-03T12:26:19Z</time>
      </trkpt>
      <trkpt lat="45.39003" lon="5.83336">
        <ele>1124</ele>
        <time>2011-06-03T12:26:20Z</time>
      </trkpt>
      <trkpt lat="45.39004" lon="5.83339">
        <ele>1124</ele>
        <time>2011-06-03T12:26:23Z</time>
      </trkpt>
      <trkpt lat="45.39014" lon="5.83355">
        <ele>1126</ele>
        <time>2011-06-03T12:26:34Z</time>
      </trkpt>
      <trkpt lat="45.39015" lon="5.83356">
        <ele>1126</ele>
        <time>2011-06-03T12:26:35Z</time>
      </trkpt>
      <trkpt lat="45.39022" lon="5.83375">
        <ele>1125</ele>
        <time>2011-06-03T12:26:44Z</time>
      </trkpt>
      <trkpt lat="45.39025" lon="5.83378">
        <ele>1125</ele>
        <time>2011-06-03T12:26:46Z</time>
      </trkpt>
      <trkpt lat="45.39042" lon="5.83391">
        <ele>1126</ele>
        <time>2011-06-03T12:26:59Z</time>
      </trkpt>
      <trkpt lat="45.39044" lon="5.83393">
        <ele>1127</ele>
        <time>2011-06-03T12:27:01Z</time>
      </trkpt>
      <trkpt lat="45.39051" lon="5.83404">
        <ele>1127</ele>
        <time>2011-06-03T12:27:07Z</time>
      </trkpt>
      <trkpt lat="45.39055" lon="5.83411">
        <ele>1127</ele>
        <time>2011-06-03T12:27:11Z</time>
      </trkpt>
      <trkpt lat="45.39058" lon="5.83416">
        <ele>1127</ele>
        <time>2011-06-03T12:27:14Z</time>
      </trkpt>
      <trkpt lat="45.39061" lon="5.83422">
        <ele>1115</ele>
        <time>2011-06-03T12:27:17Z</time>
      </trkpt>
      <trkpt lat="45.39066" lon="5.83434">
        <ele>1114</ele>
        <time>2011-06-03T12:27:23Z</time>
      </trkpt>
      <trkpt lat="45.39074" lon="5.83452">
        <ele>1111</ele>
        <time>2011-06-03T12:27:32Z</time>
      </trkpt>
      <trkpt lat="45.39076" lon="5.83458">
        <ele>1110</ele>
        <time>2011-06-03T12:27:34Z</time>
      </trkpt>
      <trkpt lat="45.39084" lon="5.83472">
        <ele>1120</ele>
        <time>2011-06-03T12:27:44Z</time>
      </trkpt>
      <trkpt lat="45.3909" lon="5.83476">
        <ele>1119</ele>
        <time>2011-06-03T12:27:49Z</time>
      </trkpt>
      <trkpt lat="45.39093" lon="5.83479">
        <ele>1118</ele>
        <time>2011-06-03T12:27:51Z</time>
      </trkpt>
      <trkpt lat="45.39095" lon="5.83481">
        <ele>1118</ele>
        <time>2011-06-03T12:27:53Z</time>
      </trkpt>
      <trkpt lat="45.39098" lon="5.83492">
        <ele>1116</ele>
        <time>2011-06-03T12:27:59Z</time>
      </trkpt>
      <trkpt lat="45.391" lon="5.83494">
        <ele>1116</ele>
        <time>2011-06-03T12:28:01Z</time>
      </trkpt>
      <trkpt lat="45.39101" lon="5.835">
        <ele>1104</ele>
        <time>2011-06-03T12:28:03Z</time>
      </trkpt>
      <trkpt lat="45.39103" lon="5.83503">
        <ele>1104</ele>
        <time>2011-06-03T12:28:06Z</time>
      </trkpt>
      <trkpt lat="45.39109" lon="5.83516">
        <ele>1103</ele>
        <time>2011-06-03T12:28:14Z</time>
      </trkpt>
      <trkpt lat="45.39111" lon="5.83523">
        <ele>1102</ele>
        <time>2011-06-03T12:28:17Z</time>
      </trkpt>
      <trkpt lat="45.39111" lon="5.83526">
        <ele>1102</ele>
        <time>2011-06-03T12:28:18Z</time>
      </trkpt>
      <trkpt lat="45.39119" lon="5.83538">
        <ele>1101</ele>
        <time>2011-06-03T12:28:24Z</time>
      </trkpt>
      <trkpt lat="45.39122" lon="5.83545">
        <ele>1100</ele>
        <time>2011-06-03T12:28:27Z</time>
      </trkpt>
      <trkpt lat="45.39122" lon="5.83546">
        <ele>1100</ele>
        <time>2011-06-03T12:28:28Z</time>
      </trkpt>
      <trkpt lat="45.39124" lon="5.83548">
        <ele>1100</ele>
        <time>2011-06-03T12:28:30Z</time>
      </trkpt>
      <trkpt lat="45.39133" lon="5.83558">
        <ele>1099</ele>
        <time>2011-06-03T12:28:37Z</time>
      </trkpt>
      <trkpt lat="45.39137" lon="5.8356">
        <ele>1099</ele>
        <time>2011-06-03T12:28:40Z</time>
      </trkpt>
      <trkpt lat="45.39151" lon="5.83577">
        <ele>1097</ele>
        <time>2011-06-03T12:28:53Z</time>
      </trkpt>
      <trkpt lat="45.39151" lon="5.83578">
        <ele>1097</ele>
        <time>2011-06-03T12:28:54Z</time>
      </trkpt>
      <trkpt lat="45.39164" lon="5.83595">
        <ele>1088</ele>
        <time>2011-06-03T12:29:06Z</time>
      </trkpt>
      <trkpt lat="45.39165" lon="5.83596">
        <ele>1087</ele>
        <time>2011-06-03T12:29:07Z</time>
      </trkpt>
      <trkpt lat="45.39176" lon="5.83613">
        <ele>1086</ele>
        <time>2011-06-03T12:29:18Z</time>
      </trkpt>
      <trkpt lat="45.39178" lon="5.83626">
        <ele>1083</ele>
        <time>2011-06-03T12:29:24Z</time>
      </trkpt>
      <trkpt lat="45.39178" lon="5.83637">
        <ele>1081</ele>
        <time>2011-06-03T12:29:28Z</time>
      </trkpt>
      <trkpt lat="45.39178" lon="5.83641">
        <ele>1080</ele>
        <time>2011-06-03T12:29:29Z</time>
      </trkpt>
      <trkpt lat="45.39185" lon="5.83668">
        <ele>1068</ele>
        <time>2011-06-03T12:29:43Z</time>
      </trkpt>
      <trkpt lat="45.39187" lon="5.83673">
        <ele>1067</ele>
        <time>2011-06-03T12:29:46Z</time>
      </trkpt>
      <trkpt lat="45.39194" lon="5.83691">
        <ele>1065</ele>
        <time>2011-06-03T12:29:56Z</time>
      </trkpt>
      <trkpt lat="45.39195" lon="5.83695">
        <ele>1065</ele>
        <time>2011-06-03T12:29:58Z</time>
      </trkpt>
      <trkpt lat="45.39194" lon="5.83704">
        <ele>1064</ele>
        <time>2011-06-03T12:30:02Z</time>
      </trkpt>
      <trkpt lat="45.39193" lon="5.83709">
        <ele>1064</ele>
        <time>2011-06-03T12:30:04Z</time>
      </trkpt>
      <trkpt lat="45.39193" lon="5.83718">
        <ele>1063</ele>
        <time>2011-06-03T12:30:08Z</time>
      </trkpt>
      <trkpt lat="45.39192" lon="5.83724">
        <ele>1062</ele>
        <time>2011-06-03T12:30:10Z</time>
      </trkpt>
      <trkpt lat="45.39194" lon="5.83732">
        <ele>1061</ele>
        <time>2011-06-03T12:30:14Z</time>
      </trkpt>
      <trkpt lat="45.39196" lon="5.83739">
        <ele>1061</ele>
        <time>2011-06-03T12:30:18Z</time>
      </trkpt>
      <trkpt lat="45.39197" lon="5.83743">
        <ele>1061</ele>
        <time>2011-06-03T12:30:20Z</time>
      </trkpt>
      <trkpt lat="45.39201" lon="5.83755">
        <ele>1050</ele>
        <time>2011-06-03T12:30:27Z</time>
      </trkpt>
      <trkpt lat="45.39202" lon="5.83757">
        <ele>1049</ele>
        <time>2011-06-03T12:30:28Z</time>
      </trkpt>
      <trkpt lat="45.39209" lon="5.83766">
        <ele>1049</ele>
        <time>2011-06-03T12:30:32Z</time>
      </trkpt>
      <trkpt lat="45.39216" lon="5.83776">
        <ele>1048</ele>
        <time>2011-06-03T12:30:38Z</time>
      </trkpt>
      <trkpt lat="45.39219" lon="5.83782">
        <ele>1047</ele>
        <time>2011-06-03T12:30:42Z</time>
      </trkpt>
      <trkpt lat="45.39219" lon="5.83786">
        <ele>1047</ele>
        <time>2011-06-03T12:30:44Z</time>
      </trkpt>
      <trkpt lat="45.39225" lon="5.83798">
        <ele>1045</ele>
        <time>2011-06-03T12:30:51Z</time>
      </trkpt>
      <trkpt lat="45.3923" lon="5.83808">
        <ele>1044</ele>
        <time>2011-06-03T12:30:56Z</time>
      </trkpt>
      <trkpt lat="45.39234" lon="5.83828">
        <ele>1042</ele>
        <time>2011-06-03T12:31:06Z</time>
      </trkpt>
      <trkpt lat="45.39235" lon="5.83832">
        <ele>1041</ele>
        <time>2011-06-03T12:31:10Z</time>
      </trkpt>
      <trkpt lat="45.39238" lon="5.83847">
        <ele>1033</ele>
        <time>2011-06-03T12:31:17Z</time>
      </trkpt>
      <trkpt lat="45.3924" lon="5.83857">
        <ele>1032</ele>
        <time>2011-06-03T12:31:21Z</time>
      </trkpt>
      <trkpt lat="45.39243" lon="5.83861">
        <ele>1032</ele>
        <time>2011-06-03T12:31:23Z</time>
      </trkpt>
      <trkpt lat="45.39251" lon="5.83875">
        <ele>1025</ele>
        <time>2011-06-03T12:31:32Z</time>
      </trkpt>
      <trkpt lat="45.39252" lon="5.83879">
        <ele>1024</ele>
        <time>2011-06-03T12:31:34Z</time>
      </trkpt>
      <trkpt lat="45.39253" lon="5.83888">
        <ele>1024</ele>
        <time>2011-06-03T12:31:39Z</time>
      </trkpt>
      <trkpt lat="45.39253" lon="5.83891">
        <ele>1023</ele>
        <time>2011-06-03T12:31:40Z</time>
      </trkpt>
      <trkpt lat="45.39253" lon="5.83899">
        <ele>1023</ele>
        <time>2011-06-03T12:31:44Z</time>
      </trkpt>
      <trkpt lat="45.39254" lon="5.83906">
        <ele>1023</ele>
        <time>2011-06-03T12:31:47Z</time>
      </trkpt>
      <trkpt lat="45.39256" lon="5.83906">
        <ele>1023</ele>
        <time>2011-06-03T12:31:48Z</time>
      </trkpt>
      <trkpt lat="45.39263" lon="5.83916">
        <ele>1023</ele>
        <time>2011-06-03T12:31:53Z</time>
      </trkpt>
      <trkpt lat="45.3927" lon="5.83918">
        <ele>1016</ele>
        <time>2011-06-03T12:31:57Z</time>
      </trkpt>
      <trkpt lat="45.39279" lon="5.8392">
        <ele>1014</ele>
        <time>2011-06-03T12:32:03Z</time>
      </trkpt>
      <trkpt lat="45.39286" lon="5.83926">
        <ele>1012</ele>
        <time>2011-06-03T12:32:08Z</time>
      </trkpt>
      <trkpt lat="45.39291" lon="5.83932">
        <ele>1011</ele>
        <time>2011-06-03T12:32:13Z</time>
      </trkpt>
      <trkpt lat="45.39293" lon="5.83933">
        <ele>1010</ele>
        <time>2011-06-03T12:32:15Z</time>
      </trkpt>
      <trkpt lat="45.39295" lon="5.83934">
        <ele>1010</ele>
        <time>2011-06-03T12:32:16Z</time>
      </trkpt>
      <trkpt lat="45.39297" lon="5.83931">
        <ele>1010</ele>
        <time>2011-06-03T12:32:18Z</time>
      </trkpt>
      <trkpt lat="45.39303" lon="5.83925">
        <ele>1009</ele>
        <time>2011-06-03T12:32:23Z</time>
      </trkpt>
      <trkpt lat="45.3931" lon="5.83926">
        <ele>1009</ele>
        <time>2011-06-03T12:32:29Z</time>
      </trkpt>
      <trkpt lat="45.39318" lon="5.83928">
        <ele>1008</ele>
        <time>2011-06-03T12:32:33Z</time>
      </trkpt>
      <trkpt lat="45.39326" lon="5.83931">
        <ele>1007</ele>
        <time>2011-06-03T12:32:40Z</time>
      </trkpt>
      <trkpt lat="45.39328" lon="5.83931">
        <ele>1007</ele>
        <time>2011-06-03T12:32:41Z</time>
      </trkpt>
      <trkpt lat="45.39334" lon="5.83937">
        <ele>997</ele>
        <time>2011-06-03T12:32:45Z</time>
      </trkpt>
      <trkpt lat="45.39336" lon="5.8394">
        <ele>996</ele>
        <time>2011-06-03T12:32:47Z</time>
      </trkpt>
      <trkpt lat="45.3934" lon="5.83952">
        <ele>994</ele>
        <time>2011-06-03T12:32:53Z</time>
      </trkpt>
      <trkpt lat="45.39355" lon="5.83968">
        <ele>991</ele>
        <time>2011-06-03T12:33:17Z</time>
      </trkpt>
      <trkpt lat="45.39356" lon="5.8397">
        <ele>991</ele>
        <time>2011-06-03T12:33:18Z</time>
      </trkpt>
      <trkpt lat="45.39362" lon="5.83978">
        <ele>990</ele>
        <time>2011-06-03T12:33:23Z</time>
      </trkpt>
      <trkpt lat="45.39363" lon="5.8398">
        <ele>989</ele>
        <time>2011-06-03T12:33:24Z</time>
      </trkpt>
      <trkpt lat="45.3937" lon="5.83983">
        <ele>988</ele>
        <time>2011-06-03T12:33:28Z</time>
      </trkpt>
      <trkpt lat="45.39376" lon="5.83984">
        <ele>987</ele>
        <time>2011-06-03T12:33:31Z</time>
      </trkpt>
      <trkpt lat="45.3939" lon="5.83984">
        <ele>984</ele>
        <time>2011-06-03T12:33:41Z</time>
      </trkpt>
      <trkpt lat="45.39391" lon="5.83983">
        <ele>984</ele>
        <time>2011-06-03T12:33:42Z</time>
      </trkpt>
      <trkpt lat="45.39393" lon="5.83984">
        <ele>984</ele>
        <time>2011-06-03T12:33:49Z</time>
      </trkpt>
      <trkpt lat="45.39396" lon="5.83983">
        <ele>983</ele>
        <time>2011-06-03T12:33:51Z</time>
      </trkpt>
      <trkpt lat="45.39409" lon="5.83987">
        <ele>979</ele>
        <time>2011-06-03T12:34:01Z</time>
      </trkpt>
      <trkpt lat="45.39411" lon="5.83986">
        <ele>979</ele>
        <time>2011-06-03T12:34:04Z</time>
      </trkpt>
      <trkpt lat="45.39415" lon="5.83984">
        <ele>979</ele>
        <time>2011-06-03T12:34:06Z</time>
      </trkpt>
      <trkpt lat="45.39419" lon="5.83985">
        <ele>973</ele>
        <time>2011-06-03T12:34:09Z</time>
      </trkpt>
      <trkpt lat="45.39425" lon="5.83989">
        <ele>972</ele>
        <time>2011-06-03T12:34:13Z</time>
      </trkpt>
      <trkpt lat="45.39429" lon="5.83995">
        <ele>972</ele>
        <time>2011-06-03T12:34:16Z</time>
      </trkpt>
      <trkpt lat="45.39429" lon="5.83997">
        <ele>972</ele>
        <time>2011-06-03T12:34:17Z</time>
      </trkpt>
      <trkpt lat="45.39432" lon="5.84007">
        <ele>964</ele>
        <time>2011-06-03T12:34:22Z</time>
      </trkpt>
      <trkpt lat="45.39438" lon="5.84018">
        <ele>961</ele>
        <time>2011-06-03T12:34:28Z</time>
      </trkpt>
      <trkpt lat="45.3944" lon="5.84021">
        <ele>960</ele>
        <time>2011-06-03T12:34:30Z</time>
      </trkpt>
      <trkpt lat="45.39451" lon="5.84036">
        <ele>958</ele>
        <time>2011-06-03T12:34:40Z</time>
      </trkpt>
      <trkpt lat="45.39451" lon="5.84039">
        <ele>958</ele>
        <time>2011-06-03T12:34:41Z</time>
      </trkpt>
      <trkpt lat="45.39457" lon="5.84043">
        <ele>957</ele>
        <time>2011-06-03T12:34:45Z</time>
      </trkpt>
      <trkpt lat="45.39467" lon="5.84056">
        <ele>955</ele>
        <time>2011-06-03T12:34:53Z</time>
      </trkpt>
      <trkpt lat="45.39484" lon="5.84068">
        <ele>951</ele>
        <time>2011-06-03T12:35:05Z</time>
      </trkpt>
      <trkpt lat="45.39485" lon="5.84069">
        <ele>950</ele>
        <time>2011-06-03T12:35:06Z</time>
      </trkpt>
      <trkpt lat="45.395" lon="5.84077">
        <ele>944</ele>
        <time>2011-06-03T12:35:17Z</time>
      </trkpt>
      <trkpt lat="45.39519" lon="5.84082">
        <ele>945</ele>
        <time>2011-06-03T12:35:30Z</time>
      </trkpt>
      <trkpt lat="45.39523" lon="5.84082">
        <ele>946</ele>
        <time>2011-06-03T12:35:34Z</time>
      </trkpt>
      <trkpt lat="45.39538" lon="5.84083">
        <ele>946</ele>
        <time>2011-06-03T12:35:43Z</time>
      </trkpt>
      <trkpt lat="45.39557" lon="5.84086">
        <ele>935</ele>
        <time>2011-06-03T12:35:55Z</time>
      </trkpt>
      <trkpt lat="45.39571" lon="5.84094">
        <ele>935</ele>
        <time>2011-06-03T12:36:04Z</time>
      </trkpt>
      <trkpt lat="45.39573" lon="5.84097">
        <ele>935</ele>
        <time>2011-06-03T12:36:06Z</time>
      </trkpt>
      <trkpt lat="45.39581" lon="5.8411">
        <ele>934</ele>
        <time>2011-06-03T12:36:13Z</time>
      </trkpt>
      <trkpt lat="45.39584" lon="5.84118">
        <ele>932</ele>
        <time>2011-06-03T12:36:18Z</time>
      </trkpt>
      <trkpt lat="45.39588" lon="5.84145">
        <ele>929</ele>
        <time>2011-06-03T12:36:30Z</time>
      </trkpt>
      <trkpt lat="45.39592" lon="5.84161">
        <ele>926</ele>
        <time>2011-06-03T12:36:38Z</time>
      </trkpt>
      <trkpt lat="45.39593" lon="5.84169">
        <ele>921</ele>
        <time>2011-06-03T12:36:42Z</time>
      </trkpt>
      <trkpt lat="45.39609" lon="5.84185">
        <ele>918</ele>
        <time>2011-06-03T12:36:55Z</time>
      </trkpt>
      <trkpt lat="45.39625" lon="5.84198">
        <ele>917</ele>
        <time>2011-06-03T12:37:08Z</time>
      </trkpt>
      <trkpt lat="45.39639" lon="5.84216">
        <ele>915</ele>
        <time>2011-06-03T12:37:20Z</time>
      </trkpt>
      <trkpt lat="45.39652" lon="5.84235">
        <ele>913</ele>
        <time>2011-06-03T12:37:33Z</time>
      </trkpt>
      <trkpt lat="45.3967" lon="5.84244">
        <ele>909</ele>
        <time>2011-06-03T12:37:44Z</time>
      </trkpt>
      <trkpt lat="45.39689" lon="5.84246">
        <ele>909</ele>
        <time>2011-06-03T12:37:56Z</time>
      </trkpt>
      <trkpt lat="45.39707" lon="5.84251">
        <ele>899</ele>
        <time>2011-06-03T12:38:09Z</time>
      </trkpt>
      <trkpt lat="45.39725" lon="5.84254">
        <ele>897</ele>
        <time>2011-06-03T12:38:22Z</time>
      </trkpt>
      <trkpt lat="45.39742" lon="5.84264">
        <ele>897</ele>
        <time>2011-06-03T12:38:33Z</time>
      </trkpt>
      <trkpt lat="45.39758" lon="5.84279">
        <ele>892</ele>
        <time>2011-06-03T12:38:45Z</time>
      </trkpt>
      <trkpt lat="45.39773" lon="5.84293">
        <ele>891</ele>
        <time>2011-06-03T12:38:57Z</time>
      </trkpt>
      <trkpt lat="45.39778" lon="5.843">
        <ele>891</ele>
        <time>2011-06-03T12:39:03Z</time>
      </trkpt>
      <trkpt lat="45.39783" lon="5.84313">
        <ele>890</ele>
        <time>2011-06-03T12:39:21Z</time>
      </trkpt>
      <trkpt lat="45.39785" lon="5.84338">
        <ele>885</ele>
        <time>2011-06-03T12:39:35Z</time>
      </trkpt>
      <trkpt lat="45.39795" lon="5.84356">
        <ele>884</ele>
        <time>2011-06-03T12:39:53Z</time>
      </trkpt>
      <trkpt lat="45.39813" lon="5.84362">
        <ele>884</ele>
        <time>2011-06-03T12:40:06Z</time>
      </trkpt>
      <trkpt lat="45.39833" lon="5.84367">
        <ele>884</ele>
        <time>2011-06-03T12:40:18Z</time>
      </trkpt>
      <trkpt lat="45.3985" lon="5.84373">
        <ele>882</ele>
        <time>2011-06-03T12:40:30Z</time>
      </trkpt>
      <trkpt lat="45.39851" lon="5.84373">
        <ele>882</ele>
        <time>2011-06-03T12:40:31Z</time>
      </trkpt>
      <trkpt lat="45.39868" lon="5.84385">
        <ele>881</ele>
        <time>2011-06-03T12:40:44Z</time>
      </trkpt>
      <trkpt lat="45.39886" lon="5.84391">
        <ele>881</ele>
        <time>2011-06-03T12:40:57Z</time>
      </trkpt>
      <trkpt lat="45.39905" lon="5.84388">
        <ele>880</ele>
        <time>2011-06-03T12:41:09Z</time>
      </trkpt>
      <trkpt lat="45.39923" lon="5.84383">
        <ele>877</ele>
        <time>2011-06-03T12:41:21Z</time>
      </trkpt>
      <trkpt lat="45.39925" lon="5.84383">
        <ele>877</ele>
        <time>2011-06-03T12:41:22Z</time>
      </trkpt>
      <trkpt lat="45.39939" lon="5.84378">
        <ele>877</ele>
        <time>2011-06-03T12:41:30Z</time>
      </trkpt>
      <trkpt lat="45.39941" lon="5.84378">
        <ele>877</ele>
        <time>2011-06-03T12:41:32Z</time>
      </trkpt>
      <trkpt lat="45.3996" lon="5.84375">
        <ele>876</ele>
        <time>2011-06-03T12:41:43Z</time>
      </trkpt>
      <trkpt lat="45.39978" lon="5.84372">
        <ele>876</ele>
        <time>2011-06-03T12:41:56Z</time>
      </trkpt>
      <trkpt lat="45.39996" lon="5.84365">
        <ele>876</ele>
        <time>2011-06-03T12:42:10Z</time>
      </trkpt>
      <trkpt lat="45.40006" lon="5.84363">
        <ele>874</ele>
        <time>2011-06-03T12:42:17Z</time>
      </trkpt>
      <trkpt lat="45.40014" lon="5.84361">
        <ele>874</ele>
        <time>2011-06-03T12:42:22Z</time>
      </trkpt>
      <trkpt lat="45.40033" lon="5.84358">
        <ele>874</ele>
        <time>2011-06-03T12:42:34Z</time>
      </trkpt>
      <trkpt lat="45.40051" lon="5.84362">
        <ele>874</ele>
        <time>2011-06-03T12:42:46Z</time>
      </trkpt>
      <trkpt lat="45.40069" lon="5.84368">
        <ele>873</ele>
        <time>2011-06-03T12:42:57Z</time>
      </trkpt>
      <trkpt lat="45.40088" lon="5.84372">
        <ele>872</ele>
        <time>2011-06-03T12:43:09Z</time>
      </trkpt>
      <trkpt lat="45.40106" lon="5.84377">
        <ele>871</ele>
        <time>2011-06-03T12:43:21Z</time>
      </trkpt>
      <trkpt lat="45.40123" lon="5.8439">
        <ele>870</ele>
        <time>2011-06-03T12:43:34Z</time>
      </trkpt>
      <trkpt lat="45.40139" lon="5.84402">
        <ele>868</ele>
        <time>2011-06-03T12:43:45Z</time>
      </trkpt>
      <trkpt lat="45.40156" lon="5.84411">
        <ele>865</ele>
        <time>2011-06-03T12:43:56Z</time>
      </trkpt>
      <trkpt lat="45.40174" lon="5.8442">
        <ele>858</ele>
        <time>2011-06-03T12:44:08Z</time>
      </trkpt>
      <trkpt lat="45.40192" lon="5.84426">
        <ele>855</ele>
        <time>2011-06-03T12:44:20Z</time>
      </trkpt>
      <trkpt lat="45.4021" lon="5.84422">
        <ele>853</ele>
        <time>2011-06-03T12:44:31Z</time>
      </trkpt>
      <trkpt lat="45.40228" lon="5.84416">
        <ele>861</ele>
        <time>2011-06-03T12:44:43Z</time>
      </trkpt>
      <trkpt lat="45.40246" lon="5.84407">
        <ele>858</ele>
        <time>2011-06-03T12:44:56Z</time>
      </trkpt>
      <trkpt lat="45.40264" lon="5.844">
        <ele>855</ele>
        <time>2011-06-03T12:45:08Z</time>
      </trkpt>
      <trkpt lat="45.40283" lon="5.84393">
        <ele>855</ele>
        <time>2011-06-03T12:45:20Z</time>
      </trkpt>
      <trkpt lat="45.40301" lon="5.84389">
        <ele>854</ele>
        <time>2011-06-03T12:45:32Z</time>
      </trkpt>
      <trkpt lat="45.4032" lon="5.84385">
        <ele>853</ele>
        <time>2011-06-03T12:45:43Z</time>
      </trkpt>
      <trkpt lat="45.40337" lon="5.84373">
        <ele>848</ele>
        <time>2011-06-03T12:45:55Z</time>
      </trkpt>
      <trkpt lat="45.40352" lon="5.84357">
        <ele>849</ele>
        <time>2011-06-03T12:46:09Z</time>
      </trkpt>
      <trkpt lat="45.40371" lon="5.8436">
        <ele>847</ele>
        <time>2011-06-03T12:46:19Z</time>
      </trkpt>
      <trkpt lat="45.40388" lon="5.8437">
        <ele>845</ele>
        <time>2011-06-03T12:46:30Z</time>
      </trkpt>
      <trkpt lat="45.40403" lon="5.84386">
        <ele>843</ele>
        <time>2011-06-03T12:46:42Z</time>
      </trkpt>
      <trkpt lat="45.40418" lon="5.84405">
        <ele>837</ele>
        <time>2011-06-03T12:46:54Z</time>
      </trkpt>
      <trkpt lat="45.40433" lon="5.84421">
        <ele>831</ele>
        <time>2011-06-03T12:47:06Z</time>
      </trkpt>
      <trkpt lat="45.4045" lon="5.84432">
        <ele>830</ele>
        <time>2011-06-03T12:47:18Z</time>
      </trkpt>
      <trkpt lat="45.40468" lon="5.84431">
        <ele>829</ele>
        <time>2011-06-03T12:47:30Z</time>
      </trkpt>
      <trkpt lat="45.40486" lon="5.84427">
        <ele>830</ele>
        <time>2011-06-03T12:47:42Z</time>
      </trkpt>
      <trkpt lat="45.40502" lon="5.84412">
        <ele>834</ele>
        <time>2011-06-03T12:47:54Z</time>
      </trkpt>
      <trkpt lat="45.40512" lon="5.84391">
        <ele>838</ele>
        <time>2011-06-03T12:48:07Z</time>
      </trkpt>
      <trkpt lat="45.40516" lon="5.84389">
        <ele>839</ele>
        <time>2011-06-03T12:48:10Z</time>
      </trkpt>
      <trkpt lat="45.40529" lon="5.84398">
        <ele>839</ele>
        <time>2011-06-03T12:48:19Z</time>
      </trkpt>
      <trkpt lat="45.40533" lon="5.84411">
        <ele>838</ele>
        <time>2011-06-03T12:48:25Z</time>
      </trkpt>
      <trkpt lat="45.40538" lon="5.84422">
        <ele>831</ele>
        <time>2011-06-03T12:48:32Z</time>
      </trkpt>
      <trkpt lat="45.40541" lon="5.8443">
        <ele>831</ele>
        <time>2011-06-03T12:48:37Z</time>
      </trkpt>
      <trkpt lat="45.40546" lon="5.84448">
        <ele>830</ele>
        <time>2011-06-03T12:48:45Z</time>
      </trkpt>
      <trkpt lat="45.40552" lon="5.84464">
        <ele>829</ele>
        <time>2011-06-03T12:48:53Z</time>
      </trkpt>
      <trkpt lat="45.40554" lon="5.8447">
        <ele>828</ele>
        <time>2011-06-03T12:48:56Z</time>
      </trkpt>
      <trkpt lat="45.40555" lon="5.84471">
        <ele>828</ele>
        <time>2011-06-03T12:48:57Z</time>
      </trkpt>
      <trkpt lat="45.40569" lon="5.84484">
        <ele>827</ele>
        <time>2011-06-03T12:49:07Z</time>
      </trkpt>
      <trkpt lat="45.4057" lon="5.84485">
        <ele>826</ele>
        <time>2011-06-03T12:49:08Z</time>
      </trkpt>
      <trkpt lat="45.40586" lon="5.84497">
        <ele>825</ele>
        <time>2011-06-03T12:49:19Z</time>
      </trkpt>
      <trkpt lat="45.40603" lon="5.84508">
        <ele>820</ele>
        <time>2011-06-03T12:49:30Z</time>
      </trkpt>
      <trkpt lat="45.40614" lon="5.84515">
        <ele>819</ele>
        <time>2011-06-03T12:49:37Z</time>
      </trkpt>
      <trkpt lat="45.40621" lon="5.84515">
        <ele>819</ele>
        <time>2011-06-03T12:49:42Z</time>
      </trkpt>
      <trkpt lat="45.4064" lon="5.84511">
        <ele>821</ele>
        <time>2011-06-03T12:49:54Z</time>
      </trkpt>
      <trkpt lat="45.40657" lon="5.84521">
        <ele>822</ele>
        <time>2011-06-03T12:50:08Z</time>
      </trkpt>
      <trkpt lat="45.40659" lon="5.84526">
        <ele>820</ele>
        <time>2011-06-03T12:50:11Z</time>
      </trkpt>
      <trkpt lat="45.4067" lon="5.84538">
        <ele>823</ele>
        <time>2011-06-03T12:50:20Z</time>
      </trkpt>
      <trkpt lat="45.40688" lon="5.84544">
        <ele>822</ele>
        <time>2011-06-03T12:50:34Z</time>
      </trkpt>
      <trkpt lat="45.40696" lon="5.84542">
        <ele>823</ele>
        <time>2011-06-03T12:50:40Z</time>
      </trkpt>
      <trkpt lat="45.40706" lon="5.84535">
        <ele>825</ele>
        <time>2011-06-03T12:50:48Z</time>
      </trkpt>
      <trkpt lat="45.40708" lon="5.84531">
        <ele>826</ele>
        <time>2011-06-03T12:50:51Z</time>
      </trkpt>
      <trkpt lat="45.40709" lon="5.84529">
        <ele>826</ele>
        <time>2011-06-03T12:50:53Z</time>
      </trkpt>
      <trkpt lat="45.40719" lon="5.84526">
        <ele>828</ele>
        <time>2011-06-03T12:51:00Z</time>
      </trkpt>
      <trkpt lat="45.40722" lon="5.84525">
        <ele>828</ele>
        <time>2011-06-03T12:51:02Z</time>
      </trkpt>
      <trkpt lat="45.40741" lon="5.84528">
        <ele>830</ele>
        <time>2011-06-03T12:51:16Z</time>
      </trkpt>
      <trkpt lat="45.4076" lon="5.84532">
        <ele>835</ele>
        <time>2011-06-03T12:51:30Z</time>
      </trkpt>
      <trkpt lat="45.40768" lon="5.84536">
        <ele>834</ele>
        <time>2011-06-03T12:51:36Z</time>
      </trkpt>
      <trkpt lat="45.40778" lon="5.84538">
        <ele>834</ele>
        <time>2011-06-03T12:51:44Z</time>
      </trkpt>
      <trkpt lat="45.4079" lon="5.84538">
        <ele>835</ele>
        <time>2011-06-03T12:52:22Z</time>
      </trkpt>
      <trkpt lat="45.40793" lon="5.84538">
        <ele>835</ele>
        <time>2011-06-03T12:52:27Z</time>
      </trkpt>
      <trkpt lat="45.40802" lon="5.84535">
        <ele>836</ele>
        <time>2011-06-03T12:52:42Z</time>
      </trkpt>
      <trkpt lat="45.40808" lon="5.84533">
        <ele>836</ele>
        <time>2011-06-03T12:52:47Z</time>
      </trkpt>
      <trkpt lat="45.40812" lon="5.84532">
        <ele>837</ele>
        <time>2011-06-03T12:52:52Z</time>
      </trkpt>
      <trkpt lat="45.40815" lon="5.8453">
        <ele>837</ele>
        <time>2011-06-03T12:52:55Z</time>
      </trkpt>
      <trkpt lat="45.40829" lon="5.84523">
        <ele>840</ele>
        <time>2011-06-03T12:53:07Z</time>
      </trkpt>
      <trkpt lat="45.40836" lon="5.84515">
        <ele>844</ele>
        <time>2011-06-03T12:53:17Z</time>
      </trkpt>
      <trkpt lat="45.40845" lon="5.84513">
        <ele>843</ele>
        <time>2011-06-03T12:53:21Z</time>
      </trkpt>
      <trkpt lat="45.40864" lon="5.84516">
        <ele>841</ele>
        <time>2011-06-03T12:53:35Z</time>
      </trkpt>
      <trkpt lat="45.4087" lon="5.84515">
        <ele>841</ele>
        <time>2011-06-03T12:53:41Z</time>
      </trkpt>
      <trkpt lat="45.40882" lon="5.84517">
        <ele>840</ele>
        <time>2011-06-03T12:53:50Z</time>
      </trkpt>
      <trkpt lat="45.40901" lon="5.84516">
        <ele>841</ele>
        <time>2011-06-03T12:54:04Z</time>
      </trkpt>
      <trkpt lat="45.4092" lon="5.84513">
        <ele>844</ele>
        <time>2011-06-03T12:54:18Z</time>
      </trkpt>
      <trkpt lat="45.40939" lon="5.84509">
        <ele>843</ele>
        <time>2011-06-03T12:54:32Z</time>
      </trkpt>
      <trkpt lat="45.40958" lon="5.84506">
        <ele>843</ele>
        <time>2011-06-03T12:54:46Z</time>
      </trkpt>
      <trkpt lat="45.40976" lon="5.84502">
        <ele>844</ele>
        <time>2011-06-03T12:55:00Z</time>
      </trkpt>
      <trkpt lat="45.40995" lon="5.84497">
        <ele>849</ele>
        <time>2011-06-03T12:55:14Z</time>
      </trkpt>
      <trkpt lat="45.41014" lon="5.8449">
        <ele>853</ele>
        <time>2011-06-03T12:55:28Z</time>
      </trkpt>
      <trkpt lat="45.41031" lon="5.84482">
        <ele>856</ele>
        <time>2011-06-03T12:55:42Z</time>
      </trkpt>
      <trkpt lat="45.41035" lon="5.84481">
        <ele>856</ele>
        <time>2011-06-03T12:55:47Z</time>
      </trkpt>
      <trkpt lat="45.41048" lon="5.84475">
        <ele>857</ele>
        <time>2011-06-03T12:56:10Z</time>
      </trkpt>
      <trkpt lat="45.41065" lon="5.84465">
        <ele>859</ele>
        <time>2011-06-03T12:56:24Z</time>
      </trkpt>
      <trkpt lat="45.41083" lon="5.84458">
        <ele>860</ele>
        <time>2011-06-03T12:56:38Z</time>
      </trkpt>
      <trkpt lat="45.41088" lon="5.84457">
        <ele>859</ele>
        <time>2011-06-03T12:56:43Z</time>
      </trkpt>
      <trkpt lat="45.41101" lon="5.84454">
        <ele>859</ele>
        <time>2011-06-03T12:56:54Z</time>
      </trkpt>
      <trkpt lat="45.4112" lon="5.84446">
        <ele>859</ele>
        <time>2011-06-03T12:57:09Z</time>
      </trkpt>
      <trkpt lat="45.41137" lon="5.84434">
        <ele>858</ele>
        <time>2011-06-03T12:57:23Z</time>
      </trkpt>
      <trkpt lat="45.41145" lon="5.84412">
        <ele>864</ele>
        <time>2011-06-03T12:57:37Z</time>
      </trkpt>
      <trkpt lat="45.41134" lon="5.84391">
        <ele>866</ele>
        <time>2011-06-03T12:57:52Z</time>
      </trkpt>
      <trkpt lat="45.41121" lon="5.84373">
        <ele>868</ele>
        <time>2011-06-03T12:58:08Z</time>
      </trkpt>
      <trkpt lat="45.41107" lon="5.84355">
        <ele>869</ele>
        <time>2011-06-03T12:58:20Z</time>
      </trkpt>
      <trkpt lat="45.411" lon="5.84331">
        <ele>878</ele>
        <time>2011-06-03T12:58:35Z</time>
      </trkpt>
      <trkpt lat="45.41099" lon="5.84305">
        <ele>882</ele>
        <time>2011-06-03T12:58:48Z</time>
      </trkpt>
      <trkpt lat="45.41107" lon="5.8428">
        <ele>887</ele>
        <time>2011-06-03T12:59:02Z</time>
      </trkpt>
      <trkpt lat="45.41122" lon="5.84264">
        <ele>887</ele>
        <time>2011-06-03T12:59:16Z</time>
      </trkpt>
      <trkpt lat="45.41137" lon="5.84248">
        <ele>900</ele>
        <time>2011-06-03T12:59:30Z</time>
      </trkpt>
      <trkpt lat="45.41152" lon="5.84232">
        <ele>898</ele>
        <time>2011-06-03T12:59:44Z</time>
      </trkpt>
      <trkpt lat="45.41151" lon="5.84228">
        <ele>900</ele>
        <time>2011-06-03T12:59:46Z</time>
      </trkpt>
      <trkpt lat="45.41163" lon="5.84217">
        <ele>902</ele>
        <time>2011-06-03T12:59:55Z</time>
      </trkpt>
      <trkpt lat="45.41164" lon="5.84215">
        <ele>902</ele>
        <time>2011-06-03T12:59:56Z</time>
      </trkpt>
      <trkpt lat="45.41166" lon="5.84214">
        <ele>902</ele>
        <time>2011-06-03T12:59:57Z</time>
      </trkpt>
      <trkpt lat="45.41178" lon="5.84198">
        <ele>894</ele>
        <time>2011-06-03T13:00:09Z</time>
      </trkpt>
      <trkpt lat="45.41193" lon="5.84184">
        <ele>895</ele>
        <time>2011-06-03T13:00:22Z</time>
      </trkpt>
      <trkpt lat="45.41208" lon="5.84168">
        <ele>894</ele>
        <time>2011-06-03T13:00:35Z</time>
      </trkpt>
      <trkpt lat="45.41221" lon="5.84151">
        <ele>902</ele>
        <time>2011-06-03T13:00:51Z</time>
      </trkpt>
      <trkpt lat="45.41232" lon="5.84131">
        <ele>902</ele>
        <time>2011-06-03T13:01:05Z</time>
      </trkpt>
      <trkpt lat="45.41239" lon="5.84108">
        <ele>902</ele>
        <time>2011-06-03T13:01:27Z</time>
      </trkpt>
      <trkpt lat="45.4124" lon="5.84081">
        <ele>904</ele>
        <time>2011-06-03T13:01:43Z</time>
      </trkpt>
      <trkpt lat="45.4124" lon="5.84053">
        <ele>912</ele>
        <time>2011-06-03T13:01:57Z</time>
      </trkpt>
      <trkpt lat="45.41246" lon="5.84027">
        <ele>915</ele>
        <time>2011-06-03T13:02:12Z</time>
      </trkpt>
      <trkpt lat="45.41255" lon="5.84005">
        <ele>906</ele>
        <time>2011-06-03T13:02:27Z</time>
      </trkpt>
      <trkpt lat="45.41263" lon="5.83982">
        <ele>910</ele>
        <time>2011-06-03T13:02:41Z</time>
      </trkpt>
      <trkpt lat="45.41274" lon="5.83961">
        <ele>910</ele>
        <time>2011-06-03T13:02:54Z</time>
      </trkpt>
      <trkpt lat="45.41285" lon="5.8394">
        <ele>912</ele>
        <time>2011-06-03T13:03:07Z</time>
      </trkpt>
      <trkpt lat="45.41295" lon="5.83919">
        <ele>911</ele>
        <time>2011-06-03T13:03:21Z</time>
      </trkpt>
      <trkpt lat="45.41306" lon="5.83898">
        <ele>921</ele>
        <time>2011-06-03T13:03:35Z</time>
      </trkpt>
      <trkpt lat="45.41318" lon="5.83878">
        <ele>922</ele>
        <time>2011-06-03T13:03:48Z</time>
      </trkpt>
      <trkpt lat="45.41328" lon="5.83854">
        <ele>923</ele>
        <time>2011-06-03T13:04:01Z</time>
      </trkpt>
      <trkpt lat="45.4133" lon="5.83841">
        <ele>923</ele>
        <time>2011-06-03T13:04:10Z</time>
      </trkpt>
      <trkpt lat="45.41327" lon="5.8384">
        <ele>923</ele>
        <time>2011-06-03T13:04:14Z</time>
      </trkpt>
      <trkpt lat="45.41324" lon="5.83841">
        <ele>924</ele>
        <time>2011-06-03T13:05:05Z</time>
      </trkpt>
      <trkpt lat="45.41331" lon="5.83843">
        <ele>923</ele>
        <time>2011-06-03T13:05:20Z</time>
      </trkpt>
      <trkpt lat="45.41337" lon="5.83828">
        <ele>924</ele>
        <time>2011-06-03T13:05:33Z</time>
      </trkpt>
      <trkpt lat="45.41344" lon="5.83816">
        <ele>926</ele>
        <time>2011-06-03T13:05:42Z</time>
      </trkpt>
      <trkpt lat="45.41345" lon="5.83806">
        <ele>926</ele>
        <time>2011-06-03T13:05:50Z</time>
      </trkpt>
      <trkpt lat="45.41345" lon="5.83804">
        <ele>927</ele>
        <time>2011-06-03T13:05:53Z</time>
      </trkpt>
      <trkpt lat="45.4135" lon="5.83795">
        <ele>927</ele>
        <time>2011-06-03T13:06:01Z</time>
      </trkpt>
      <trkpt lat="45.41359" lon="5.83787">
        <ele>928</ele>
        <time>2011-06-03T13:06:09Z</time>
      </trkpt>
      <trkpt lat="45.41369" lon="5.83782">
        <ele>928</ele>
        <time>2011-06-03T13:06:17Z</time>
      </trkpt>
      <trkpt lat="45.41369" lon="5.83784">
        <ele>928</ele>
        <time>2011-06-03T13:06:21Z</time>
      </trkpt>
      <trkpt lat="45.41365" lon="5.83784">
        <ele>928</ele>
        <time>2011-06-03T13:06:24Z</time>
      </trkpt>
      <trkpt lat="45.41368" lon="5.83784">
        <ele>928</ele>
        <time>2011-06-03T13:06:31Z</time>
      </trkpt>
      <trkpt lat="45.41369" lon="5.83782">
        <ele>928</ele>
        <time>2011-06-03T13:06:33Z</time>
      </trkpt>
      <trkpt lat="45.41369" lon="5.8378">
        <ele>929</ele>
        <time>2011-06-03T13:06:34Z</time>
      </trkpt>
      <trkpt lat="45.4137" lon="5.83774">
        <ele>929</ele>
        <time>2011-06-03T13:06:38Z</time>
      </trkpt>
      <trkpt lat="45.41371" lon="5.83772">
        <ele>929</ele>
        <time>2011-06-03T13:06:40Z</time>
      </trkpt>
      <trkpt lat="45.41376" lon="5.8377">
        <ele>929</ele>
        <time>2011-06-03T13:06:45Z</time>
      </trkpt>
      <trkpt lat="45.41376" lon="5.8377">
        <ele>929</ele>
        <time>2011-06-03T13:06:47Z</time>
      </trkpt>
    </trkseg>
  </trk>
</gpx>